[[{"header":{"parameterUnit":"m.s-1","parameterCategory":1,"la1":30.6,"la2":29.2853,"lo1":-89.7004,"lo2":-87.6739,"dy":0.0162,"dx":0.0183,"nx":112,"ny":82,"refTime":"2026-05-23T00:00:00:Z","depth":0,"parameterNumber":2,"parameterNumberName":"U-component_of_WINDS"},"data":[0.0,0.0,0.0,0.0,0.0,0.0,0.0,0.0,0.0,0.0,0.0,0.0,0.0,0.0,0.0,0.0,0.0,0.0,0.0,0.0,0.0,0.0,0.0,0.0,0.0,0.0,0.0,0.0,0.0,0.0,0.0,0.0,0.0,0.0,0.0,0.0,0.0,0.0,0.0,0.0,0.0,0.0,0.0,0.0,0.0,0.0,0.0,0.0,0.0,0.0,0.0,0.0,0.0,0.0,0.0,0.0,0.0,0.0,0.0,0.0,0.0,0.0,0.0,0.0,0.0,0.0,0.0,0.0,0.0,0.0,0.0,0.0,0.0,0.0,0.0,0.0,0.0,0.0,0.0,0.0,0.0,0.0,0.0,0.0,0.0,0.0,0.0,0.0,0.0,0.0,-3.4081,-3.6781,-4.0673,-4.3408,-4.4222,-4.1868,-3.8065,-3.2705,0.0,0.0,0.0,0.0,0.0,0.0,0.0,0.0,0.0,0.0,0.0,0.0,0.0,0.0,0.0,0.0,0.0,0.0,0.0,0.0,0.0,0.0,0.0,0.0,0.0,0.0,0.0,0.0,0.0,0.0,0.0,0.0,0.0,0.0,0.0,0.0,0.0,0.0,0.0,0.0,0.0,0.0,0.0,0.0,0.0,0.0,0.0,0.0,0.0,0.0,0.0,0.0,0.0,0.0,0.0,0.0,0.0,0.0,0.0,0.0,0.0,0.0,0.0,0.0,0.0,0.0,0.0,0.0,0.0,0.0,0.0,0.0,0.0,0.0,0.0,0.0,0.0,0.0,0.0,0.0,0.0,0.0,0.0,0.0,0.0,0.0,0.0,0.0,0.0,0.0,0.0,0.0,0.0,0.0,0.0,0.0,0.0,0.0,0.0,0.0,0.0,0.0,0.0,0.0,-3.4298,-4.2013,-4.3498,-4.4222,-4.5055,-4.1723,-3.7739,-3.3502,0.0,0.0,0.0,0.0,0.0,0.0,0.0,0.0,0.0,0.0,0.0,0.0,0.0,0.0,0.0,0.0,0.0,0.0,0.0,0.0,0.0,0.0,0.0,0.0,0.0,0.0,0.0,0.0,0.0,0.0,0.0,0.0,0.0,0.0,0.0,0.0,0.0,0.0,0.0,0.0,0.0,0.0,0.0,0.0,0.0,0.0,0.0,0.0,0.0,0.0,0.0,0.0,0.0,0.0,0.0,0.0,0.0,0.0,0.0,0.0,0.0,0.0,0.0,0.0,0.0,0.0,0.0,0.0,0.0,0.0,0.0,0.0,0.0,0.0,0.0,0.0,0.0,0.0,0.0,0.0,0.0,0.0,0.0,0.0,0.0,0.0,0.0,0.0,0.0,0.0,0.0,0.0,0.0,0.0,0.0,0.0,0.0,0.0,0.0,0.0,0.0,0.0,0.0,-3.3335,-3.6959,-4.4005,-4.4729,-4.491,-4.5273,-4.2448,-3.8572,-3.3719,-3.0374,0.0,0.0,0.0,0.0,0.0,0.0,0.0,0.0,0.0,0.0,0.0,0.0,0.0,0.0,0.0,0.0,0.0,0.0,0.0,0.0,0.0,0.0,0.0,0.0,0.0,0.0,0.0,0.0,0.0,0.0,0.0,0.0,0.0,0.0,0.0,0.0,0.0,0.0,0.0,0.0,0.0,0.0,0.0,0.0,0.0,0.0,0.0,0.0,0.0,0.0,0.0,0.0,0.0,0.0,0.0,0.0,0.0,0.0,0.0,0.0,0.0,0.0,0.0,0.0,0.0,0.0,0.0,0.0,0.0,0.0,0.0,0.0,0.0,0.0,0.0,0.0,0.0,0.0,0.0,0.0,0.0,0.0,0.0,0.0,0.0,0.0,0.0,0.0,0.0,0.0,0.0,0.0,0.0,0.0,0.0,0.0,0.0,0.0,0.0,0.0,0.0,0.0,-3.7466,-4.0183,-4.4802,-4.5454,-4.5526,-4.5309,-4.2774,-3.8917,-3.3719,-3.0012,0.0,0.0,0.0,0.0,0.0,0.0,0.0,0.0,0.0,0.0,0.0,0.0,0.0,0.0,0.0,0.0,0.0,0.0,0.0,0.0,0.0,0.0,0.0,0.0,0.0,0.0,0.0,0.0,0.0,0.0,0.0,0.0,0.0,0.0,0.0,0.0,0.0,0.0,0.0,0.0,0.0,0.0,0.0,0.0,0.0,0.0,0.0,0.0,0.0,0.0,0.0,0.0,0.0,0.0,0.0,0.0,0.0,0.0,0.0,0.0,0.0,0.0,0.0,0.0,0.0,0.0,0.0,0.0,0.0,0.0,0.0,0.0,0.0,0.0,0.0,0.0,0.0,0.0,0.0,0.0,0.0,0.0,0.0,0.0,0.0,0.0,0.0,0.0,0.0,0.0,0.0,0.0,0.0,0.0,0.0,0.0,0.0,0.0,0.0,0.0,0.0,0.0,-3.8826,-4.3227,-4.5091,-4.5961,-4.6106,-4.5345,-4.1759,-3.7812,-3.3647,-2.8974,0.0,0.0,0.0,0.0,0.0,0.0,0.0,0.0,0.0,0.0,0.0,0.0,0.0,0.0,0.0,0.0,0.0,0.0,0.0,0.0,0.0,0.0,0.0,0.0,0.0,0.0,0.0,0.0,0.0,0.0,0.0,0.0,0.0,0.0,0.0,0.0,0.0,0.0,0.0,0.0,0.0,0.0,0.0,0.0,0.0,0.0,0.0,0.0,0.0,0.0,0.0,0.0,0.0,0.0,0.0,0.0,0.0,0.0,0.0,0.0,0.0,0.0,0.0,0.0,0.0,0.0,0.0,0.0,0.0,0.0,0.0,0.0,0.0,0.0,0.0,0.0,0.0,0.0,0.0,0.0,0.0,0.0,0.0,0.0,0.0,0.0,0.0,0.0,0.0,0.0,0.0,0.0,0.0,0.0,0.0,0.0,0.0,0.0,0.0,0.0,0.0,0.0,-3.8717,-4.2592,-4.5707,-4.6757,-4.6721,-4.5417,-4.3027,-3.9224,-3.3755,0.0,0.0,0.0,0.0,0.0,0.0,0.0,0.0,0.0,0.0,0.0,0.0,0.0,0.0,0.0,0.0,0.0,0.0,0.0,0.0,0.0,0.0,0.0,0.0,0.0,0.0,0.0,0.0,0.0,0.0,0.0,0.0,0.0,0.0,0.0,0.0,0.0,0.0,0.0,0.0,0.0,0.0,0.0,0.0,0.0,0.0,0.0,0.0,0.0,0.0,0.0,0.0,0.0,0.0,0.0,0.0,0.0,0.0,0.0,0.0,0.0,0.0,0.0,0.0,0.0,0.0,0.0,0.0,0.0,0.0,0.0,0.0,0.0,0.0,0.0,0.0,0.0,0.0,0.0,0.0,0.0,0.0,0.0,0.0,0.0,0.0,0.0,0.0,0.0,0.0,0.0,0.0,0.0,0.0,0.0,0.0,0.0,0.0,0.0,0.0,0.0,0.0,-3.508,-3.9224,-4.2882,-4.6142,-4.7228,-4.7047,-4.5454,-4.3353,-3.9623,-3.3755,0.0,0.0,0.0,0.0,0.0,0.0,0.0,0.0,0.0,0.0,0.0,0.0,0.0,0.0,0.0,0.0,0.0,0.0,0.0,0.0,0.0,0.0,0.0,0.0,0.0,0.0,0.0,0.0,0.0,0.0,0.0,0.0,0.0,0.0,0.0,0.0,0.0,0.0,0.0,0.0,0.0,0.0,0.0,0.0,0.0,0.0,0.0,0.0,0.0,0.0,0.0,0.0,0.0,0.0,0.0,0.0,0.0,0.0,0.0,0.0,0.0,0.0,0.0,0.0,0.0,0.0,0.0,0.0,0.0,0.0,0.0,0.0,0.0,0.0,0.0,0.0,0.0,0.0,0.0,0.0,0.0,0.0,0.0,0.0,0.0,0.0,0.0,0.0,0.0,0.0,0.0,0.0,0.0,0.0,0.0,0.0,0.0,0.0,0.0,0.0,0.0,0.0,-3.5297,-4.0673,-4.4729,-4.6359,-4.7228,-4.7047,-4.5454,-4.2375,-3.8483,0.0,0.0,0.0,0.0,0.0,0.0,0.0,0.0,0.0,0.0,0.0,0.0,0.0,0.0,0.0,0.0,0.0,0.0,0.0,0.0,0.0,0.0,0.0,0.0,0.0,0.0,0.0,0.0,0.0,0.0,0.0,0.0,0.0,0.0,0.0,0.0,0.0,0.0,0.0,0.0,0.0,0.0,0.0,0.0,0.0,0.0,0.0,0.0,0.0,0.0,0.0,0.0,0.0,0.0,0.0,0.0,0.0,0.0,0.0,0.0,0.0,0.0,0.0,0.0,0.0,0.0,0.0,0.0,0.0,0.0,0.0,0.0,0.0,0.0,0.0,0.0,0.0,0.0,0.0,0.0,0.0,0.0,0.0,0.0,0.0,0.0,0.0,0.0,0.0,0.0,0.0,0.0,0.0,0.0,0.0,0.0,0.0,0.0,0.0,0.0,0.0,0.0,0.0,-3.6906,-4.1832,-4.5562,-4.7192,-4.7554,-4.7047,-4.5454,-4.3389,-3.9659,-3.3755,0.0,0.0,0.0,0.0,0.0,0.0,0.0,0.0,0.0,0.0,0.0,0.0,0.0,0.0,0.0,0.0,0.0,0.0,0.0,0.0,0.0,0.0,0.0,0.0,0.0,0.0,0.0,0.0,0.0,0.0,0.0,0.0,0.0,0.0,0.0,0.0,0.0,0.0,0.0,0.0,0.0,0.0,0.0,0.0,0.0,0.0,0.0,0.0,0.0,0.0,0.0,0.0,0.0,0.0,0.0,0.0,0.0,0.0,0.0,0.0,0.0,0.0,0.0,0.0,0.0,0.0,0.0,0.0,0.0,0.0,0.0,0.0,0.0,0.0,0.0,0.0,0.0,0.0,0.0,0.0,0.0,0.0,0.0,0.0,0.0,0.0,0.0,0.0,0.0,0.0,0.0,0.0,0.0,0.0,0.0,0.0,0.0,0.0,0.0,0.0,0.0,0.0,-3.7575,-4.2339,-4.5924,-4.7554,-4.7699,-4.7192,-4.5888,-4.4005,-4.0456,-3.4733,0.0,0.0,0.0,0.0,0.0,0.0,0.0,0.0,0.0,0.0,0.0,0.0,0.0,0.0,0.0,0.0,0.0,0.0,0.0,0.0,0.0,0.0,0.0,0.0,0.0,0.0,0.0,0.0,0.0,0.0,0.0,0.0,0.0,0.0,0.0,0.0,0.0,0.0,0.0,0.0,0.0,0.0,0.0,0.0,0.0,0.0,0.0,0.0,0.0,0.0,0.0,0.0,0.0,0.0,0.0,0.0,0.0,0.0,0.0,0.0,0.0,0.0,0.0,0.0,0.0,0.0,0.0,0.0,0.0,0.0,0.0,0.0,0.0,0.0,0.0,0.0,0.0,0.0,0.0,0.0,0.0,0.0,0.0,0.0,0.0,0.0,0.0,0.0,0.0,0.0,0.0,0.0,0.0,0.0,0.0,0.0,0.0,0.0,0.0,0.0,0.0,0.0,-3.7611,-4.2411,-4.5997,-4.7554,-4.7699,-4.7373,-4.6576,-4.4367,-4.0963,-3.6202,0.0,0.0,0.0,0.0,0.0,0.0,0.0,0.0,0.0,0.0,0.0,0.0,0.0,0.0,0.0,0.0,0.0,0.0,0.0,0.0,0.0,0.0,0.0,0.0,0.0,0.0,0.0,0.0,0.0,0.0,0.0,0.0,0.0,0.0,0.0,0.0,0.0,0.0,0.0,0.0,0.0,0.0,0.0,0.0,0.0,0.0,0.0,0.0,0.0,0.0,0.0,0.0,0.0,0.0,0.0,0.0,0.0,0.0,0.0,0.0,-3.6073,-3.403,0.0,0.0,0.0,0.0,0.0,0.0,0.0,0.0,0.0,0.0,0.0,0.0,0.0,0.0,0.0,0.0,0.0,0.0,0.0,0.0,0.0,0.0,0.0,0.0,0.0,0.0,0.0,0.0,0.0,0.0,0.0,0.0,0.0,0.0,0.0,0.0,0.0,0.0,0.0,0.0,-3.7756,-4.2918,-4.6613,-4.7627,-4.7699,-4.7373,-4.6576,-4.4874,-4.1796,-3.7031,-3.3393,0.0,0.0,0.0,0.0,0.0,0.0,0.0,0.0,0.0,0.0,0.0,0.0,0.0,0.0,0.0,0.0,0.0,0.0,0.0,0.0,0.0,0.0,0.0,0.0,0.0,0.0,0.0,0.0,0.0,0.0,0.0,0.0,0.0,0.0,0.0,0.0,0.0,0.0,0.0,0.0,0.0,0.0,0.0,0.0,0.0,0.0,0.0,0.0,0.0,0.0,0.0,0.0,0.0,0.0,0.0,0.0,0.0,0.0,0.0,-4.0908,-3.8845,0.0,0.0,0.0,0.0,0.0,0.0,0.0,0.0,0.0,0.0,0.0,0.0,0.0,0.0,0.0,0.0,0.0,0.0,0.0,0.0,0.0,0.0,0.0,0.0,0.0,0.0,0.0,0.0,0.0,0.0,0.0,0.0,0.0,0.0,0.0,0.0,0.0,0.0,0.0,0.0,-3.821,-4.2955,-4.6395,-4.7569,-4.7699,-4.7554,-4.712,-4.5236,-4.2556,-3.8898,-3.495,0.0,0.0,0.0,0.0,0.0,0.0,0.0,0.0,0.0,0.0,0.0,0.0,0.0,0.0,0.0,0.0,0.0,0.0,0.0,0.0,0.0,0.0,0.0,0.0,0.0,0.0,0.0,0.0,0.0,0.0,0.0,0.0,0.0,0.0,0.0,0.0,0.0,0.0,0.0,0.0,0.0,0.0,0.0,0.0,0.0,0.0,0.0,0.0,0.0,0.0,0.0,0.0,0.0,-4.6757,-4.7663,-4.8967,-4.8967,-4.9307,-4.9705,-4.5723,-4.4295,-4.444,-4.1035,0.0,0.0,0.0,0.0,0.0,0.0,0.0,0.0,0.0,0.0,0.0,0.0,0.0,0.0,0.0,0.0,0.0,0.0,0.0,0.0,0.0,0.0,-3.7377,-3.7901,-3.9623,-3.9441,-3.3212,0.0,0.0,0.0,0.0,0.0,0.0,0.0,0.0,0.0,0.0,0.0,-3.8971,-4.3136,-4.625,-4.7554,-4.7699,-4.7699,-4.7699,-4.5635,-4.3353,-4.1071,-3.6725,-3.2777,0.0,0.0,0.0,0.0,0.0,0.0,0.0,0.0,0.0,0.0,0.0,0.0,0.0,0.0,0.0,0.0,0.0,0.0,0.0,0.0,0.0,0.0,0.0,0.0,0.0,0.0,0.0,0.0,0.0,0.0,0.0,0.0,-2.6274,-2.7518,0.0,0.0,0.0,0.0,0.0,0.0,0.0,0.0,0.0,0.0,0.0,0.0,0.0,-4.3122,-4.4512,-4.8061,-5.009,-5.0524,-5.2625,-5.3748,-5.3965,-5.3965,-5.4001,-5.4074,-5.3458,0.0,-4.712,-4.5924,0.0,0.0,0.0,0.0,0.0,0.0,0.0,0.0,0.0,0.0,0.0,0.0,0.0,0.0,0.0,0.0,0.0,0.0,0.0,0.0,0.0,0.0,-4.2846,-4.2249,-4.2882,-4.2991,-4.0619,-3.6979,-3.3357,-3.0726,-2.9192,-2.7695,0.0,0.0,0.0,0.0,0.0,0.0,-4.0003,-4.4476,-4.7482,-4.7699,-4.7699,-4.7699,-4.7699,-4.6142,-4.4403,-4.2701,-3.9423,-3.6109,-3.2886,-2.9686,0.0,0.0,0.0,0.0,0.0,0.0,0.0,0.0,0.0,0.0,0.0,0.0,0.0,0.0,0.0,0.0,0.0,0.0,0.0,0.0,0.0,0.0,0.0,0.0,0.0,0.0,0.0,0.0,0.0,-2.5965,-2.928,-2.9757,-3.0575,-3.0584,0.0,0.0,0.0,0.0,0.0,0.0,0.0,0.0,0.0,-4.3757,-4.5646,-4.7697,-5.0043,-5.2019,-5.3441,-5.4332,-5.5123,-5.574,-5.621,-5.621,-5.621,-5.621,-5.621,-5.4725,-5.2154,-4.9582,-4.6939,-4.4331,0.0,0.0,0.0,0.0,-4.1379,-4.1307,-4.3462,-4.3679,-4.2846,-4.1832,0.0,0.0,0.0,0.0,0.0,0.0,0.0,-3.8734,-4.0401,-4.2448,-4.4222,-4.4802,-4.5526,-4.5816,-4.4637,-4.2411,-3.9369,-3.5183,-3.4154,-3.2777,-2.8902,-2.8974,0.0,0.0,0.0,-3.8698,-4.1506,-4.4874,-4.7192,-4.7663,-4.7699,-4.7518,-4.7083,-4.5961,-4.4621,-4.301,-4.0311,-3.7812,-3.553,-3.2343,-2.9337,0.0,0.0,0.0,0.0,0.0,0.0,0.0,0.0,0.0,0.0,0.0,0.0,0.0,0.0,0.0,0.0,0.0,0.0,0.0,0.0,0.0,0.0,0.0,0.0,0.0,0.0,0.0,0.0,-2.9567,-3.2288,-3.2325,-3.414,-3.4471,0.0,0.0,0.0,0.0,0.0,0.0,-4.1767,-4.3389,-4.5876,-4.9433,-5.0497,-5.219,-5.4707,-5.5373,-5.6307,-5.7501,-5.7217,-5.7412,-5.7969,-5.788,-5.7804,-5.7804,-5.7587,-5.7152,-5.6319,-5.277,-5.0379,-4.8749,-4.6721,-4.5454,-4.493,-4.6323,-4.6468,-4.6323,-4.8931,-4.9184,-4.8098,-4.6685,-4.5671,-4.4331,-4.0582,0.0,0.0,0.0,0.0,-4.1723,-4.386,-4.4874,-4.5671,-4.7083,-4.7735,-4.7823,-4.7265,-4.6323,-4.4258,-3.9712,-3.8988,-3.7631,-3.3045,-3.3248,0.0,-3.4045,-3.7087,-4.0401,-4.3155,-4.5454,-4.7047,-4.7663,-4.7699,-4.7373,-4.6576,-4.5743,-4.4693,-4.33,-4.0926,-3.9007,-3.7683,-3.4733,-3.1981,-2.9577,0.0,0.0,0.0,0.0,0.0,0.0,0.0,0.0,0.0,0.0,0.0,0.0,0.0,0.0,0.0,0.0,0.0,0.0,0.0,0.0,0.0,0.0,0.0,0.0,0.0,0.0,0.0,0.0,0.0,-3.6218,-3.9098,0.0,0.0,0.0,0.0,-3.9719,-4.2089,-4.4924,-4.8236,-4.9936,-5.1807,-5.3995,-5.5515,-5.6594,-5.7215,-5.8756,-5.9552,-5.9664,-5.9955,-6.0102,-6.0114,-5.9667,-5.947,-5.9434,-5.8673,-5.8311,-5.8094,-5.5667,-5.3711,-5.2154,-5.1285,-5.0474,-4.9858,-5.0669,-5.0959,-5.1067,-5.2009,-5.1285,-5.022,-5.1611,-5.0017,-4.7337,-4.6323,-4.4947,0.0,0.0,-4.5562,-4.654,-4.8149,-4.8619,-4.8894,-4.9727,-4.9365,-4.8837,-4.8764,-4.7554,-4.5888,-4.4077,-4.2556,-4.0981,-3.9224,0.0,-3.8971,-3.9007,-4.1126,-4.3244,-4.4947,-4.6613,-4.7663,-4.7699,-4.7699,-4.7373,-4.6576,-4.5743,-4.4947,-4.4077,-4.1759,-4.0093,-3.9297,-3.6942,-3.448,-3.2053,-2.8853,0.0,0.0,0.0,0.0,0.0,0.0,0.0,0.0,0.0,0.0,0.0,0.0,0.0,0.0,0.0,0.0,0.0,0.0,0.0,0.0,0.0,0.0,0.0,0.0,0.0,0.0,0.0,0.0,-4.1141,-4.287,0.0,-4.2565,-4.2822,-4.3576,-4.4978,-4.7449,-4.9854,-5.2106,-5.3784,-5.5493,-5.7317,-5.8299,-5.9152,-5.9917,-6.066,-6.101,-6.101,-6.0853,-6.0623,-6.0272,-6.014,-5.9878,-5.9579,-5.9289,-5.918,-5.9108,-5.8275,-5.6681,-5.4689,-5.3892,-5.3422,-5.3204,-5.3494,-5.3639,-5.3675,-5.3965,-5.3675,-5.3096,-5.2661,-5.1357,-4.9872,-4.9039,-4.8445,-4.8046,-4.8315,-4.8605,-4.8931,-4.951,-4.9655,-4.9727,-5.0039,-4.9872,-4.9655,-4.9655,-4.8822,-4.788,-4.7301,-4.549,-4.3353,-4.1234,-4.1723,-4.2049,-4.1035,-4.2918,-4.4838,-4.5924,-4.7011,-4.7699,-4.7699,-4.7699,-4.7156,-4.5852,-4.5454,-4.4512,-4.2646,-4.1234,-4.0166,-3.9405,-3.7558,-3.5675,-3.3791,-3.1618,-2.8178,0.0,0.0,0.0,0.0,0.0,0.0,0.0,0.0,0.0,0.0,0.0,0.0,0.0,0.0,0.0,0.0,0.0,0.0,0.0,0.0,0.0,0.0,0.0,0.0,0.0,-3.9156,-4.2899,-4.4284,-4.6462,-4.7608,-4.6997,-4.7494,-4.8411,-4.9824,-5.2002,-5.4027,-5.5708,-5.6788,-5.812,-5.9798,-6.0236,-6.0881,-6.1685,-6.2156,-6.2409,-6.2316,-6.2208,-6.1964,-6.1596,-6.1435,-6.1117,-6.0627,-6.0373,-6.0134,-5.9977,-5.9724,-5.8673,-5.7152,-5.6391,-5.5921,-5.5667,-5.5667,-5.5667,-5.5631,-5.5377,-5.5269,-5.5051,-5.3748,-5.2951,-5.2408,-5.1864,-5.1538,-5.1285,-5.1285,-5.1126,-5.0886,-5.0886,-5.0886,-5.0886,-5.0886,-5.0728,-5.051,-5.051,-4.9872,-4.922,-4.8945,-4.7409,-4.5526,-4.3623,-4.444,-4.4874,-4.3515,-4.491,-4.6287,-4.683,-4.7373,-4.7699,-4.7699,-4.7699,-4.7047,-4.5454,-4.5055,-4.3969,-4.185,-4.0691,-3.9804,-3.9007,-3.772,-3.6125,-3.4226,-3.2089,-2.8902,-2.4675,0.0,0.0,0.0,0.0,0.0,0.0,0.0,0.0,0.0,0.0,0.0,0.0,0.0,0.0,0.0,0.0,0.0,0.0,0.0,0.0,0.0,0.0,0.0,-3.9184,-4.3443,-4.6347,-4.566,-4.9862,-5.1582,-4.8399,-5.1047,-5.3263,-5.4142,-5.5747,-5.739,-5.9019,-5.9078,-5.9836,-6.1453,-6.1477,-6.1802,-6.252,-6.3394,-6.3761,-6.3658,-6.4049,-6.4229,-6.4189,-6.3637,-6.3141,-6.2658,-6.1863,-6.127,-6.0774,-6.0013,-5.9651,-5.9579,-5.8709,-5.7913,-5.7224,-5.7188,-5.7188,-5.708,-5.6319,-5.6029,-5.5921,-5.516,-5.4943,-5.4943,-5.4907,-5.4363,-5.3748,-5.3711,-5.3132,-5.2516,-5.2516,-5.248,-5.248,-5.248,-5.19,-5.1321,-5.1321,-5.0728,-4.9908,-4.9148,-4.8294,-4.7482,-4.6685,-4.7192,-4.7446,-4.6649,-4.7192,0.0,-4.7699,-4.7699,-4.7678,-4.7663,-4.7663,-4.7011,-4.5381,-4.4512,-4.3389,-4.1741,-4.0238,-3.9007,-3.8227,-3.743,-3.5908,-3.3538,-3.0301,-2.7912,-2.6367,0.0,0.0,0.0,0.0,0.0,0.0,0.0,0.0,0.0,0.0,0.0,0.0,0.0,0.0,0.0,0.0,0.0,0.0,0.0,0.0,0.0,-4.0759,-4.3517,-4.3558,-4.6347,-4.9213,-5.1429,-5.2881,-5.4104,-5.5021,-5.5403,-5.5899,-5.6778,-5.781,-5.8612,-5.9071,-6.0227,-6.1106,-6.1564,-6.2711,-6.3343,-6.3514,-6.4301,-6.4634,-6.4547,-6.4668,-6.4539,-6.4189,-6.3637,-6.3141,-6.267,-6.2115,-6.1778,-6.1652,-6.1435,-6.1027,-6.0339,-5.8963,-5.8275,-5.7985,-5.7406,-5.7188,-5.7152,-5.6935,-5.6862,-5.6717,-5.5957,-5.5703,-5.5595,-5.5051,-5.4762,-5.4436,-5.3856,-5.353,-5.3241,-5.2661,-5.248,-5.248,-5.248,-5.2335,-5.2154,-5.2154,-5.1538,-5.0886,-5.0669,-4.951,-4.8294,-4.7518,-4.7554,-4.7606,-4.7409,-4.7554,-4.7699,-4.7699,-4.7699,-4.7482,-4.6902,-4.683,-4.6178,-4.4548,-4.3679,-4.252,-4.0945,-3.9369,-3.8444,-3.8227,-3.743,-3.6399,-3.5152,-3.1981,-3.0133,0.0,0.0,0.0,0.0,0.0,0.0,0.0,0.0,0.0,0.0,0.0,0.0,0.0,0.0,0.0,0.0,0.0,0.0,0.0,0.0,0.0,0.0,-4.4895,-4.7761,-4.8831,-5.0245,-5.204,-5.4371,-5.525,-5.6282,-5.7772,-5.7734,-5.7848,-5.8345,-5.9185,-5.9644,-5.9644,-6.0905,-6.1784,-6.2128,-6.342,-6.4199,-6.4486,-6.4862,-6.5044,-6.4941,-6.4906,-6.4763,-6.4464,-6.4172,-6.3782,-6.3317,-6.2794,-6.2453,-6.2255,-6.2087,-6.1725,-6.1136,0.0,0.0,0.0,0.0,-5.7188,-5.7188,-5.7188,-5.7188,-5.7116,-5.6645,-5.65,-5.6428,-5.5993,-5.5631,-5.5269,-5.4798,-5.4182,-5.3603,-5.3132,-5.2733,-5.248,-5.248,-5.248,-5.248,-5.248,-5.2118,-5.1683,-5.1357,-5.0271,0.0,-4.8351,-4.7916,-4.7699,-4.7699,-4.7699,-4.7699,-4.7699,-4.7699,-4.7497,-4.7047,-4.7011,-4.6359,-4.4729,-4.386,0.0,0.0,0.0,-3.8408,-3.772,-3.6596,0.0,0.0,0.0,0.0,0.0,0.0,0.0,0.0,-2.9771,-2.959,0.0,0.0,0.0,0.0,0.0,0.0,0.0,0.0,0.0,0.0,0.0,0.0,0.0,0.0,0.0,0.0,-4.8613,-5.1594,-5.4027,-5.4295,-5.4562,-5.5441,-5.6931,-5.7925,-5.8039,-5.8765,-5.9262,-5.9262,-5.995,-6.046,-6.0537,-6.1325,0.0,0.0,0.0,-6.4642,-6.5274,-6.5248,-6.5128,-6.4972,-6.4924,-6.4888,-6.4888,-6.4835,-6.4577,-6.407,-6.355,-6.3047,-6.2606,-6.2158,-6.1942,-6.1688,-6.0194,-5.9108,-5.8311,-5.7478,-5.7188,-5.7188,-5.7188,0.0,0.0,-5.7188,-5.7188,-5.7188,-5.7188,-5.6681,-5.6102,-5.6029,-5.4943,-5.382,-5.3711,-5.3096,-5.248,-5.248,-5.248,-5.248,-5.248,-5.248,-5.2299,-5.1574,-5.0705,-4.9872,-4.9184,-4.8315,-4.7699,-4.7699,-4.7699,-4.7699,-4.7699,-4.7699,-4.7663,-4.7569,-4.7482,0.0,-4.5273,-4.4331,-4.2918,-4.0764,-3.9948,-3.8843,-3.7321,-3.5965,-3.5892,-3.7249,-3.658,-3.6906,-3.8336,-3.8336,-3.8372,-3.8336,-3.3154,-3.2284,0.0,0.0,0.0,0.0,0.0,0.0,0.0,0.0,0.0,0.0,0.0,0.0,0.0,0.0,0.0,-4.8727,-5.1667,-5.4051,-5.5874,-5.5556,-5.5441,-5.6282,-5.7275,-5.8154,-5.8803,-5.9644,-6.0141,-6.0141,-6.0293,-6.0676,-6.1325,-6.2166,-6.3045,-6.3923,-6.4726,-6.5199,-6.5232,-6.5215,-6.5133,-6.4906,-6.4888,0.0,-6.4871,-6.4521,-6.407,-6.3527,-6.3047,-6.2581,-6.2105,-6.2033,-6.1616,-6.0955,-5.9977,-5.9108,-5.8311,-5.7478,-5.7188,-5.7188,-5.7188,-5.7188,-5.7188,-5.7188,-5.7188,-5.7188,-5.7188,-5.708,0.0,-5.6174,-5.5341,-5.4508,-5.3856,-5.3096,-5.248,-5.248,-5.248,-5.248,-5.248,-5.248,-5.2444,-5.2299,-5.1067,-5.0075,-4.9872,-4.8677,-4.7699,-4.7699,-4.7699,-4.7699,-4.7699,-4.7699,-4.7446,-4.6794,-4.6142,-4.5381,-4.4403,-4.2991,-4.1958,-4.1488,-4.0727,-3.9876,-3.8988,-3.9224,-3.9224,-3.8934,-3.879,-3.8862,-3.9169,-3.9169,-3.9478,-4.0021,-3.7667,-3.6922,0.0,0.0,0.0,0.0,0.0,0.0,0.0,0.0,0.0,0.0,0.0,-3.7538,-4.093,0.0,-4.7712,-5.1101,-5.3413,-5.5071,-5.5874,-5.6002,-5.632,-5.716,-5.7619,-5.8383,-5.9644,-6.0141,-6.0422,-6.0422,-6.0422,-6.0575,-6.0981,-6.2204,-6.2892,-6.2892,-6.4535,-6.5123,-6.4578,-6.5003,-6.5095,-6.4958,-6.4906,-6.4888,-6.4871,-6.4652,-6.4289,-6.3782,-6.3257,-6.2794,-6.2334,-6.2114,-6.1507,-6.0738,-5.9905,-5.9108,-5.8311,-5.7478,-5.7188,-5.7188,-5.7188,-5.7188,-5.7188,-5.7188,-5.7188,-5.7188,-5.7188,-5.7188,-5.7116,-5.6717,-5.6029,-5.5269,-5.4508,-5.3711,-5.2987,-5.2589,-5.248,-5.248,-5.248,-5.248,-5.248,-5.248,-5.1176,-5.0112,-5.0112,-4.8786,-4.7699,-4.7699,-4.7699,-4.7699,-4.7699,-4.7699,-4.7554,-4.7156,-4.6757,-4.5997,-4.4802,-4.2882,-4.1705,-4.1705,-4.0945,-4.0329,-3.9985,-4.0293,-4.051,-4.0564,-4.0564,-4.0745,-4.1144,-4.1144,-4.1325,-4.1687,-4.089,-4.0347,0.0,0.0,0.0,0.0,0.0,0.0,0.0,-3.2508,-3.4289,-3.7568,-3.945,-4.1657,-4.5456,-4.7482,-4.9663,-5.292,-5.4534,-5.5428,-5.5632,-5.6053,-5.6702,-5.7542,-5.781,-5.8498,-5.9988,-6.0307,-6.0422,-6.0422,-6.0422,-6.0446,-6.0599,-6.1898,-6.2471,-6.2128,-6.4114,-6.4871,-6.426,-6.4867,-6.5128,-6.4989,-6.4924,-6.4888,-6.4888,-6.4799,-6.4483,-6.4009,-6.3393,-6.2903,-6.2556,-6.2158,-6.1616,-6.0955,-5.9977,-5.9216,-5.8528,-5.755,-5.7188,-5.7188,-5.7188,-5.7188,-5.7188,-5.7188,-5.7188,-5.7188,-5.7188,-5.7188,-5.7188,-5.7188,-5.6609,-5.5812,-5.5088,-5.4291,-5.3494,-5.2697,-5.248,-5.248,-5.248,-5.248,-5.248,-5.248,-5.1176,-5.0112,-5.0112,-4.8786,-4.7699,-4.7699,-4.7699,-4.7699,-4.7699,-4.7699,-4.7699,-4.7699,-4.7554,-4.683,-4.52,-4.3136,-4.1922,-4.1922,-4.1325,-4.0963,-4.0963,-4.0963,-4.1289,-4.1922,-4.1922,-4.2266,-4.2901,-4.2901,-4.2901,-4.2901,-4.2901,-4.2556,-2.7075,-2.76,-2.9017,-3.1369,-3.2728,-3.4886,0.0,-4.0914,-4.1215,-4.3857,-4.516,-4.6426,-4.8416,-5.0199,-5.2165,-5.4712,-5.5261,-5.5657,-5.6384,-5.5938,-5.5823,-5.6664,-5.7428,-5.8268,-5.9147,-5.995,-6.0422,-6.0422,-6.0422,-6.0714,-6.144,-6.1631,-6.2395,-6.3847,-6.4206,-6.4619,-6.5137,-6.5172,-6.5128,-6.4989,-6.4924,-6.4888,-6.4871,-6.4482,-6.4009,-6.3438,-6.253,-6.2141,-6.2087,-6.2005,-6.1942,-6.1688,-6.0194,-5.9542,-5.9289,-5.7768,-5.7188,-5.7188,-5.7188,-5.7188,-5.7188,-5.7188,-5.7188,-5.7188,-5.7188,-5.7188,-5.7188,-5.7188,-5.6609,-5.5812,-5.5088,-5.4291,-5.3494,-5.2697,-5.248,-5.248,-5.248,-5.248,-5.248,-5.248,-5.1176,-5.0112,-5.0112,-4.8786,-4.7699,-4.7699,-4.7699,-4.7699,-4.7699,-4.7699,-4.7699,-4.7699,-4.7083,-4.5997,-4.4367,-4.3317,-4.2774,-4.2774,-4.2665,-4.2629,-4.2629,-4.2629,-4.2665,-4.2737,-4.2774,-4.281,-4.2901,-4.2901,-4.2901,-4.2901,-4.2901,-4.2865,-3.2315,-3.2926,-3.3731,-3.5339,-3.7447,-3.97,-4.1775,-4.3052,-4.4384,-4.6431,-4.7555,-4.8813,-5.0971,-5.1962,-5.3146,-5.5143,-5.5451,-5.5529,-5.5849,-5.5619,-5.5326,-5.5174,-5.632,-5.7657,-5.8981,-5.9415,-5.9835,-6.0384,-6.0422,-6.0561,-6.0867,-6.1363,-6.1936,-6.2662,-6.3656,-6.4314,-6.4527,-6.4981,-6.5128,-6.4989,-6.4924,-6.4763,-6.4501,-6.4289,-6.3761,-6.2951,-6.2281,-6.1978,-6.1978,-6.1978,-6.1725,-6.1218,-6.0557,-5.9724,-5.8746,-5.7623,-5.7188,-5.7188,-5.7188,-5.7188,-5.7188,-5.7188,-5.7188,-5.7188,-5.7188,-5.7188,-5.7188,-5.7188,-5.6971,-5.6428,-5.5233,-5.4653,-5.4074,-5.2806,-5.248,-5.248,-5.248,-5.248,-5.248,-5.248,-5.1176,-5.0112,-5.0112,-4.8786,-4.7699,-4.7699,-4.7699,-4.7699,-4.7699,-4.7699,-4.7699,-4.7699,-4.6975,-4.625,-4.5562,-4.4331,-4.3788,-4.4258,-4.386,-4.3788,-4.4258,-4.4295,-4.4295,-4.4295,-4.4295,-4.4295,-4.4295,-4.4295,-4.4295,-4.4295,-4.4295,-4.4295,-3.5683,-3.6654,-3.757,-3.8653,-4.1459,-4.38,-4.3512,-4.5189,-4.7172,-4.8377,-4.9168,-5.0225,-5.2219,-5.2625,-5.3173,-5.4886,-5.5095,-5.5134,-5.5351,-5.5199,-5.483,-5.418,-5.5174,-5.6473,-5.7949,-5.8689,-5.9376,-5.9988,-6.0255,-6.0422,-6.0422,-6.0943,-6.1478,-6.1936,-6.3159,-6.4008,-6.4367,-6.4921,-6.5144,-6.5061,-6.4797,-6.4539,-6.4209,-6.3925,-6.3317,-6.2479,-6.2132,-6.1978,-6.1978,-6.1978,-6.1652,-6.1109,-6.0892,-6.0086,-5.8963,-5.8166,-5.7587,-5.7188,-5.7188,-5.7188,-5.7188,-5.7188,-5.7188,-5.7188,-5.7188,-5.7188,-5.7188,-5.7188,-5.7188,-5.6899,-5.5558,-5.5051,-5.4544,-5.3168,-5.2661,-5.248,-5.248,-5.248,-5.248,-5.248,-5.1176,-5.0112,-5.0112,-4.8786,-4.7699,-4.7699,-4.7699,-4.7699,-4.7699,-4.7699,-4.7699,-4.7699,-4.6975,-4.6504,-4.6504,-4.5236,-4.4693,-4.5273,-4.4729,-4.4693,-4.5273,-4.5309,-4.5309,-4.5309,-4.5309,-4.5309,-4.5309,-4.5309,-4.5309,-4.5309,-4.5309,-4.5309,-3.5385,-3.7233,-3.953,-4.1165,-4.4161,-4.6877,-4.7624,-4.9151,-5.0448,-5.0434,-5.0556,-5.0903,-5.1683,-5.1765,-5.228,-5.3984,-5.4192,-5.4409,-5.5288,-5.4677,-5.4142,-5.4104,-5.4142,-5.4524,-5.5441,-5.7695,-5.9095,-5.9133,-5.9911,-6.0422,-6.0422,-6.0408,-6.1172,-6.2815,-6.293,-6.3732,-6.5337,-6.5258,-6.5215,-6.5199,-6.4521,-6.4229,-6.4189,-6.3201,-6.2479,-6.2005,-6.2005,-6.1978,-6.1978,-6.1978,-6.1978,-6.1869,-6.1073,-6.0774,-6.0629,-5.9832,-5.8528,-5.7188,-5.7188,-5.7188,-5.7188,-5.7188,-5.7188,-5.7188,-5.7188,-5.7188,-5.7188,-5.7188,-5.7188,-5.7007,-5.6174,-5.545,-5.4689,-5.3856,-5.3059,-5.248,-5.248,-5.248,-5.248,-5.248,-5.1176,-5.0112,-5.0112,-4.8786,-4.7699,-4.7699,-4.7699,-4.7699,-4.7699,-4.7699,-4.7699,-4.7699,-4.6975,-4.6504,-4.6504,-4.5743,-4.5273,-4.5309,-4.5273,-4.5273,-4.5309,-4.5309,-4.5309,-4.5309,-4.5309,-4.5309,-4.5309,-4.5309,-4.5309,-4.5309,-4.5309,-4.5309,-3.8653,-4.0636,-4.2258,-4.4515,-4.6772,-4.8538,-4.8797,-4.9767,-5.042,-4.9823,-4.9307,-4.9202,-4.9865,-5.0078,-5.0807,-5.2942,-5.3783,-5.4459,-5.5288,-5.5135,-5.4524,-5.3378,-5.4256,-5.4639,-5.376,-5.5976,-5.7886,-5.9019,-5.9376,-5.9797,-6.037,-6.0905,-6.1707,-6.2853,-6.3465,-6.4275,-6.5337,-6.5226,-6.5144,-6.5078,-6.4114,-6.3483,-6.3201,-6.253,-6.2132,-6.1978,-6.1978,-6.1978,-6.1978,-6.1978,-6.1978,-6.1978,-6.1688,-6.1254,-6.0774,-6.052,-5.9398,-5.7985,-5.7985,-5.7659,-5.7188,-5.7188,-5.7188,-5.7188,-5.7188,-5.7188,-5.7188,-5.7188,-5.7188,-5.7007,-5.621,-5.545,-5.4689,-5.3892,-5.3096,-5.248,-5.248,-5.248,-5.248,-5.248,-5.1611,-5.0728,-5.0184,-4.922,-4.8294,-4.7772,-4.7699,-4.7699,-4.7699,-4.7699,-4.7699,-4.7699,-4.7482,-4.7301,-4.7301,-4.6576,-4.6323,-4.6866,-4.6395,-4.6359,-4.6866,-4.6902,-4.6902,-4.6902,-4.6902,-4.6902,-4.6902,-4.6902,-4.6902,-4.6902,-4.6902,-4.6902,-4.1481,-4.3274,-4.4542,-4.705,-4.8519,-4.9336,-4.9316,-4.9749,-4.9836,-4.8683,-4.7741,-4.73,-4.7709,-4.7576,-4.8332,-5.1032,-5.2229,-5.3312,-5.4715,-5.4944,-5.4524,-5.3416,-5.4256,-5.4639,-5.3798,-5.5212,-5.6855,-5.8536,-5.9224,-5.9797,-6.037,-6.0867,-6.1707,-6.2853,-6.3427,-6.4222,-6.529,-6.5248,-6.5044,-6.4687,-6.3829,-6.3164,-6.2695,-6.2212,-6.1978,-6.1978,-6.1978,-6.1978,-6.1978,-6.1978,-6.1978,-6.1978,-6.1978,-6.1652,-6.1218,-6.1218,-6.0412,-5.918,-5.8601,-5.7876,-5.7188,-5.7188,-5.7188,-5.7188,-5.7188,-5.7188,-5.7188,-5.7188,-5.7188,-5.708,-5.6536,-5.5667,-5.4762,-5.4255,-5.3277,-5.248,-5.248,-5.248,-5.248,-5.248,-5.1828,-5.114,-5.0597,-4.9619,-4.8619,-4.7844,-4.7699,-4.7699,-4.7699,-4.7699,-4.7699,-4.7699,-4.7699,-4.7699,-4.7699,-4.7228,-4.7156,-4.7663,-4.7228,-4.7156,-4.7699,-4.7699,-4.7699,-4.7699,-4.7699,-4.7699,-4.7699,-4.7699,-4.7699,-4.7699,-4.7699,-4.7699,-4.3726,-4.5107,-4.6385,-4.8788,-4.9433,-4.9462,-4.9326,-4.9279,-4.8779,-4.7048,-4.5905,-4.513,-4.5036,-4.4451,-4.5043,-4.8384,-4.971,-5.1238,-5.376,-5.4142,-5.418,-5.418,-5.4218,-5.4562,-5.5403,-5.5556,-5.6243,-5.7848,-5.9376,-6.0307,-6.0422,-6.0499,-6.1249,-6.2853,-6.2968,-6.3764,-6.5274,-6.5232,-6.485,-6.4209,-6.3637,-6.3164,-6.2695,-6.2212,-6.1978,-6.1978,-6.1978,-6.1978,-6.1978,-6.1978,-6.1978,-6.1978,-6.1978,-6.1978,-6.1978,-6.1978,-6.1435,-6.0557,-5.9035,-5.7985,-5.7261,-5.7224,-5.7188,-5.7188,-5.7188,-5.7188,-5.7188,-5.7188,-5.7188,-5.7188,-5.7188,-5.6066,-5.4907,-5.4907,-5.3675,-5.248,-5.248,-5.248,-5.248,-5.248,-5.1828,-5.1285,-5.1249,-4.9945,-4.8619,-4.7844,-4.7699,-4.7699,-4.7699,-4.7699,-4.7699,-4.7699,-4.7699,-4.7699,-4.7699,-4.7699,-4.7699,-4.7699,-4.7699,-4.7699,-4.7699,-4.7699,-4.7699,-4.7699,-4.7699,-4.7699,-4.7699,-4.7699,-4.7699,-4.7699,-4.7699,-4.7699,-4.5521,-4.7308,-4.874,-5.0038,-5.0346,-5.0202,-4.9529,-4.8423,-4.6894,-4.4547,-4.233,-4.0598,-3.9925,-4.1138,-4.312,-4.5823,-4.9098,-5.1926,-5.3836,-5.4677,-5.5059,-5.5059,-5.5594,-5.6052,-5.6282,-5.7428,-5.8345,-5.8765,-5.8612,-5.9071,-6.0332,-6.1593,-6.2471,-6.2892,-6.4114,-6.4932,-6.521,-6.5044,-6.4743,-6.4253,-6.368,-6.3164,-6.2695,-6.2212,-6.1978,-6.1978,-6.1978,-6.1978,-6.1978,-6.1978,-6.1978,-6.1978,-6.1978,-6.1978,-6.1978,-6.1978,-6.1109,-5.9941,-6.0122,-5.9289,-5.7985,-5.7369,-5.7188,-5.7188,-5.7188,-5.7188,-5.7188,-5.7188,-5.7188,-5.7188,-5.7188,-5.6066,-5.4907,-5.4907,-5.3675,-5.248,-5.248,-5.248,-5.248,-5.248,-5.1828,-5.1104,-5.051,-4.9582,-4.8619,-4.7844,-4.7699,-4.7699,-4.7699,-4.7699,-4.7699,-4.7699,-4.7699,-4.7699,-4.7699,-4.7699,-4.7699,-4.7699,-4.7699,-4.7699,-4.7699,-4.7699,-4.7699,-4.7699,-4.7699,-4.7699,-4.7699,-4.7699,-4.7699,-4.7699,-4.7699,-4.7699,-4.7269,-4.8971,-5.0087,-5.0596,-5.0404,-4.9586,-4.7625,-4.6163,-4.4192,-4.0492,-3.8539,-3.7156,-3.5891,-3.798,-4.073,-4.3282,-4.7505,-5.12,-5.3225,-5.46,-5.5517,-5.5861,-5.632,-5.6893,-5.7619,-5.823,-5.888,-5.9606,-5.9262,-5.9568,-6.0867,-6.1822,-6.2701,-6.3465,-6.4352,-6.4893,-6.5111,-6.501,-6.4725,-6.4271,-6.368,-6.3164,-6.2695,-6.2212,-6.1978,-6.1978,-6.1978,-6.1978,-6.1978,-6.1978,-6.1978,-6.1978,-6.1978,-6.1978,-6.1978,-6.1978,-6.1435,-6.0665,-6.0774,-6.0231,-5.9253,-5.8094,-5.7478,-5.7188,-5.7188,-5.7188,-5.7188,-5.7188,-5.7188,-5.7188,-5.7188,-5.6283,-5.5305,-5.4979,-5.3929,-5.2915,-5.2589,-5.248,-5.248,-5.248,-5.2118,-5.1574,-5.0764,-5.0234,-4.9582,-4.8402,-4.8221,-4.8076,-4.7772,-4.7699,-4.7699,-4.7699,-4.7699,-4.7699,-4.7699,-4.7699,-4.7699,-4.7699,-4.7699,-4.7699,-4.7699,-4.7699,-4.7699,-4.7699,-4.7699,-4.7699,-4.7699,-4.7699,-4.7699,-4.7699,-4.7699,-4.7699,-4.8894,-5.0125,-5.0673,-5.0558,-4.9856,-4.8317,-4.4923,-4.3239,-4.1038,-3.608,-3.4777,-3.4096,-3.2586,-3.4971,-3.8141,-4.0959,-4.5566,-4.971,-5.2422,-5.4218,-5.5594,-5.6664,-5.6778,-5.7428,-5.9109,-5.8651,-5.8842,-6.0307,-6.0422,-6.0752,-6.1554,-6.1707,-6.2586,-6.432,-6.423,-6.4448,-6.5023,-6.5006,-6.4723,-6.4229,-6.3659,-6.3164,-6.2695,-6.2212,-6.1978,-6.1978,-6.1978,-6.1978,-6.1978,-6.1978,-6.1978,-6.1978,-6.1978,-6.1978,-6.1978,-6.1978,-6.1906,-6.1761,-6.1145,-6.0846,-6.0412,-5.8891,-5.7913,-5.7333,-5.7224,-5.7188,-5.7188,-5.7188,-5.7188,-5.7188,-5.7188,-5.6609,-5.5812,-5.5088,-5.4291,-5.3494,-5.2661,-5.248,-5.248,-5.248,-5.248,-5.2226,-5.143,-5.1285,-5.0778,-4.9293,-4.8945,-4.8656,-4.7953,-4.7772,-4.7699,-4.7699,-4.7699,-4.7699,-4.7699,-4.7699,-4.7699,-4.7699,-4.7699,-4.7699,-4.7699,-4.7699,-4.7699,-4.7699,-4.7699,-4.7699,-4.7699,-4.7699,-4.7699,-4.7699,-4.7699,-4.7699,-4.9971,-5.0596,-5.0519,-4.9817,-4.8971,-4.7423,-4.4013,-4.0984,-3.78,-3.4009,-3.1571,-3.0024,-2.9717,-3.2393,-3.5925,-3.989,-4.4131,-4.8334,-5.2231,-5.3683,-5.5174,-5.739,-5.7657,-5.8345,-5.9988,-6.0026,-6.0064,-6.037,-6.0422,-6.0752,-6.1554,-6.228,-6.3465,-6.5146,-6.5108,-6.5121,-6.5242,-6.5057,-6.4759,-6.4273,-6.368,-6.3164,-6.2695,-6.2212,-6.1978,-6.1978,-6.1978,-6.1978,-6.1978,-6.1978,-6.1978,-6.1978,-6.1978,-6.1978,-6.1978,-6.1978,-6.158,-6.1073,-6.1616,-6.0919,-5.9651,-5.8709,-5.8311,-5.8058,-5.7406,-5.7188,-5.7188,-5.7188,-5.7188,-5.7188,-5.7188,-5.6609,-5.5812,-5.5088,-5.4291,-5.3494,-5.2661,-5.248,-5.248,-5.248,-5.248,-5.2226,-5.143,-5.1285,-5.0959,-5.0017,-4.9329,-4.8837,-4.8692,-4.8113,-4.7699,-4.7699,-4.7699,-4.7699,-4.7699,-4.7699,-4.7699,-4.7699,-4.7699,-4.7699,-4.7699,-4.7699,-4.7699,-4.7699,-4.7699,-4.7699,-4.7699,-4.7699,-4.7699,-4.7699,-4.7699,-4.7699,-4.9663,-5.0366,-5.0481,-4.9625,-4.8432,-4.6231,-4.1484,-3.8493,-3.5332,-3.051,-2.8918,-2.8101,-2.719,-3.0473,-3.412,-3.6621,-4.0893,-4.5545,-5.0206,-5.1582,-5.3569,-5.7428,-5.7886,-5.8574,-6.0231,-6.0422,-6.0422,-6.0422,-6.0422,-6.0943,-6.2204,-6.3503,-6.4558,-6.5314,-6.5305,-6.5242,-6.5161,-6.4813,-6.4388,-6.3867,-6.3303,-6.2794,-6.2334,-6.2078,-6.1978,-6.1978,-6.1978,-6.1978,-6.1978,-6.1978,-6.1978,-6.1978,-6.1978,-6.1978,-6.1978,-6.1978,-6.1761,-6.1471,-6.1869,-6.1471,-6.0665,-5.9434,-5.8746,-5.8347,-5.7949,-5.7514,-5.7188,-5.7188,-5.7188,-5.7188,-5.7188,-5.6899,-5.6428,-5.5667,-5.4544,-5.3494,-5.2661,-5.248,-5.248,-5.248,-5.248,-5.2371,-5.1973,-5.19,-5.1647,-5.0873,-5.0379,-5.0017,-4.9582,-4.8822,-4.8149,-4.7714,-4.7699,-4.7699,-4.7699,-4.7699,-4.7699,-4.7699,-4.7699,-4.7699,-4.7699,-4.7699,-4.7699,-4.7699,-4.7699,-4.7895,-4.8294,-4.8294,-4.8532,-4.8931,-4.8931,-4.8931,-4.9125,-5.0048,-5.0442,-4.9394,-4.774,-4.4808,-3.9038,-3.6154,-3.3141,-2.762,-2.6918,-2.6868,-2.5685,-2.8823,-3.221,-3.3961,-3.7882,-4.2603,-4.8028,-4.9671,-5.2079,-5.6816,-5.7695,-5.8498,-5.9988,-6.0307,-6.0422,-6.0422,-6.0561,-6.1325,-6.2815,-6.4496,-6.5383,-6.5321,-6.529,-6.521,-6.5023,-6.4558,-6.4033,-6.3453,-6.294,-6.2453,-6.1978,-6.1978,-6.1978,-6.1978,-6.1978,-6.1978,-6.1978,-6.1978,-6.1978,-6.1978,-6.1978,-6.1978,-6.1978,-6.1978,-6.1978,-6.1978,-6.1978,-6.1869,-6.1507,-6.0267,-5.9325,-5.8601,-5.8239,-5.7695,-5.7188,-5.7188,-5.7188,-5.7188,-5.7188,-5.7188,-5.6971,-5.5993,-5.4725,-5.3494,-5.2661,-5.248,-5.248,-5.248,-5.248,-5.248,-5.248,-5.248,-5.2299,-5.1647,-5.1393,-5.109,-5.0438,-4.9655,-4.8931,-4.8279,-4.8061,-4.7968,-4.7968,-4.7968,-4.7859,-4.7735,-4.7699,-4.7699,-4.7699,-4.7699,-4.7772,-4.7932,-4.7968,-4.833,-4.9184,-4.9184,-4.9474,-5.0112,-5.0112,-5.0112,-4.8971,-5.0048,-5.0289,-4.8625,-4.6355,-4.3192,-3.8016,-3.4333,-3.0982,-2.7278,-2.5937,-2.5598,-2.6191,-2.7319,-2.9688,-3.4312,-3.6757,-4.0348,-4.6986,-4.9289,-5.162,-5.5212,-5.6969,-5.8268,-5.9147,-5.995,-6.0422,-6.0422,-6.1096,-6.1898,-6.2853,-6.4496,-6.5413,-6.5398,-6.5321,-6.5242,-6.5199,-6.4595,-6.3995,-6.3416,-6.2903,-6.2453,-6.1978,-6.1978,-6.1978,-6.1978,-6.1978,-6.1978,-6.1978,-6.1978,-6.1978,-6.1978,-6.1978,-6.1978,-6.1978,-6.1978,-6.1978,-6.1978,-6.1978,-6.1507,-6.0892,-6.0738,-6.0158,-5.9216,-5.7732,-5.7261,-5.7188,-5.7188,-5.7188,-5.7188,-5.7188,-5.7188,-5.6826,-5.5341,-5.4327,-5.3494,-5.2661,-5.248,-5.248,-5.248,-5.248,-5.248,-5.248,-5.248,-5.248,-5.2408,-5.1756,-5.1249,-5.1176,-5.0488,-4.9967,-4.9894,-4.922,-4.8764,-4.8764,-4.8764,-4.8475,-4.7772,-4.7699,-4.7699,-4.7699,-4.7699,-4.804,-4.8764,-4.8764,-4.9184,-5.0003,-5.0003,-5.0039,-5.0112,-5.0112,-5.0112,-4.8163,-4.9625,-5.0289,-4.8548,-4.6163,-4.2846,-3.7202,-3.3718,-3.0559,-2.655,-2.5439,-2.5291,-2.5618,-2.637,-2.7892,-3.0904,-3.2401,-3.5381,-4.1609,-4.394,-4.7035,-5.2461,-5.5059,-5.7122,-5.8904,-5.9873,-6.0422,-6.0422,-6.1134,-6.1975,-6.2853,-6.4038,-6.4902,-6.5337,-6.5258,-6.504,-6.4649,-6.4056,-6.3505,-6.2975,-6.2504,-6.2185,-6.1978,-6.1978,-6.1978,-6.1978,-6.1471,-6.1543,-6.1942,-6.1471,-6.1543,-6.1978,-6.1978,-6.1978,-6.1978,-6.1978,-6.1978,-6.1978,-6.1978,-6.1471,-6.0738,-6.0231,-5.9542,-5.8746,-5.813,-5.7587,-5.7188,-5.7188,-5.7188,-5.7188,-5.7188,-5.7188,-5.6826,-5.5269,-5.4653,-5.4074,-5.277,-5.248,-5.248,-5.248,-5.248,-5.248,-5.248,-5.248,-5.248,-5.248,-5.2226,-5.2009,-5.2009,-5.1321,-5.0995,-5.1466,-5.0379,-4.9619,-4.9619,-4.9184,-4.8967,-4.9112,-4.8713,-4.8641,-4.9112,-4.9148,-4.9293,-4.9619,-4.9619,-5.0017,-5.0836,-5.0836,-5.109,-5.1538,-5.1538,-5.1538,-4.6509,-4.8432,-4.951,-4.7778,-4.5432,-4.2077,-3.6356,-3.3096,-3.0163,-2.6052,-2.5209,-2.5204,-2.5197,-2.5873,-2.6937,-2.8643,-3.0063,-3.2936,-3.8591,-4.1036,-4.4399,-5.0168,-5.311,-5.5517,-5.7796,-5.9453,-6.0422,-6.0422,-6.0905,-6.1631,-6.2471,-6.3335,-6.4245,-6.529,-6.5073,-6.4759,-6.4311,-6.3534,-6.3023,-6.2695,-6.2238,-6.1978,-6.1978,-6.1978,-6.1978,-6.1942,-6.1145,-6.1254,-6.1942,-6.1109,-6.1254,-6.1978,-6.1978,-6.1978,-6.1978,-6.1978,-6.1978,-6.1978,-6.1978,-6.1471,-6.0665,-5.9868,-5.9072,-5.8347,-5.813,-5.7659,-5.7188,-5.7188,-5.7188,-5.7188,-5.7188,-5.7188,-5.6862,-5.5522,-5.5051,-5.4508,-5.3132,-5.2661,-5.248,-5.248,-5.248,-5.248,-5.248,-5.248,-5.248,-5.248,-5.248,-5.248,-5.248,-5.2009,-5.1864,-5.2444,-5.1466,-5.0705,-5.0474,-4.9945,-4.9764,-5.0075,-4.9582,-4.951,-5.0075,-5.0112,-5.022,-5.0474,-5.0474,-5.0873,-5.1647,-5.1647,-5.1937,-5.248,-5.248,-5.248,-4.3893,-4.6201,-4.774,-4.6056,-4.3701,-4.0492,-3.5388,-3.2231,-2.9409,-2.5937,-2.5193,-2.5187,-2.5197,-2.5873,-2.6937,-2.8643,-3.1011,-3.4456,-3.9575,-4.2402,-4.5277,-4.8716,-5.1314,-5.3492,-5.5288,-5.8459,-6.0422,-6.0422,-6.0422,-6.0752,-6.1554,-6.236,-6.3574,-6.5252,-6.4739,-6.4351,-6.4292,-6.3257,-6.272,-6.2695,-6.2238,-6.1978,-6.1978,-6.1978,-6.1978,-6.1942,-6.1145,-6.1254,-6.1942,-6.1109,-6.1254,-6.1978,-6.1978,-6.1978,-6.1978,-6.1978,-6.1978,-6.1978,-6.1978,-6.1471,-6.0665,-5.9868,-5.9072,-5.8239,-5.7442,-5.7188,-5.7188,-5.7188,-5.7188,-5.7188,-5.7188,-5.7188,-5.7007,-5.6174,-5.5414,-5.4689,-5.3856,-5.3059,-5.248,-5.248,-5.248,-5.248,-5.248,-5.248,-5.248,-5.248,-5.248,-5.248,-5.248,-5.248,-5.248,-5.248,-5.248,-5.2154,-5.1357,-5.1285,-5.0923,-5.0148,-5.0112,-5.0112,-5.0112,-5.0112,-5.0452,-5.1249,-5.1285,-5.1683,-5.248,-5.248,-5.248,-5.248,-5.248,-5.248,-4.0392,-4.2316,-4.3393,-4.17,-3.9777,-3.7262,-3.3332,-3.0912,-2.8673,-2.5794,-2.522,-2.5187,-2.5197,-2.5421,-2.6714,-3.0109,-3.1324,-3.3578,-3.8706,-4.2058,-4.5267,-4.8689,-5.3836,-5.7542,-5.8689,-5.9759,-6.0422,-6.0422,-6.0366,-6.0666,-6.1482,-6.1751,-6.2455,-6.3813,-6.4162,-6.3975,-6.3211,-6.2855,-6.2556,-6.2238,-6.2087,-6.1978,-6.1978,-6.1978,-6.1978,-6.1942,-6.1145,-6.1254,-6.1942,-6.1109,-6.1254,-6.1978,-6.1978,-6.1978,-6.1978,-6.1978,-6.1978,-6.1978,-6.1978,-6.1109,-5.9941,-5.9687,-5.8673,-5.7514,-5.7261,-5.7188,-5.7188,-5.7188,-5.7188,-5.7188,-5.7188,-5.7188,-5.7007,-5.6174,-5.5812,-5.545,-5.4689,-5.3892,-5.3313,-5.3313,-5.2878,-5.248,-5.248,-5.248,-5.248,-5.248,-5.248,-5.248,-5.248,-5.248,-5.248,-5.248,-5.248,-5.2408,-5.2118,-5.1611,-5.143,-5.1719,-5.1212,-5.1199,-5.1719,-5.1719,-5.1864,-5.2118,-5.2118,-5.2226,-5.248,-5.248,-5.248,-5.248,-5.248,-5.248,-3.6668,-3.8854,-4.0046,-3.8661,-3.7046,-3.4955,-3.1828,-2.9819,-2.7965,-2.5667,-2.5203,-2.5208,-2.5191,-2.572,-2.702,-2.965,-3.1095,-3.354,-3.8323,-4.1609,-4.5277,-4.9939,-5.5021,-5.8498,-5.9376,-6.0026,-6.0408,-6.0366,-6.0352,-6.0499,-6.0936,-6.1071,-6.1547,-6.2369,-6.3136,-6.328,-6.272,-6.253,-6.2281,-6.1978,-6.1978,-6.1978,-6.1978,-6.1978,-6.1978,-6.1942,-6.1145,-6.1254,0.0,-6.1109,-6.1254,-6.1978,-6.1978,-6.1978,-6.1978,-6.1978,-6.1978,-6.1942,-6.1652,-6.0892,-5.9977,-5.9361,-5.8275,-5.7188,-5.7188,-5.7188,-5.7188,-5.7188,-5.7188,-5.7188,-5.7188,-5.7188,-5.708,-5.6573,-5.621,-5.5848,-5.5414,-5.4689,-5.4074,-5.3748,-5.3313,-5.2842,-5.2552,-5.248,-5.248,-5.248,-5.248,-5.248,-5.248,-5.248,-5.248,-5.248,-5.248,-5.248,-5.248,-5.2045,-5.1973,-5.248,-5.2009,-5.1973,-5.248,-5.248,-5.248,-5.248,-5.248,-5.248,-5.248,-5.248,-5.248,-5.248,-5.248,-5.248,0.0,-3.5468,-3.7161,-3.6269,-3.4891,-3.3109,-3.0593,-2.8841,0.0,-2.5547,-2.5191,-2.5268,-2.5421,-2.6638,-2.7778,-2.8236,-3.0942,-3.4456,-3.8667,-4.1724,-4.5927,-5.2384,-5.5365,-5.7199,-5.8001,-5.9491,-6.038,-6.0294,-6.0352,-6.0285,-6.0053,-6.0392,-6.0717,-6.0954,-6.1682,-6.2271,-6.2645,-6.2238,-6.1978,-6.1978,-6.1978,-6.1978,-6.1978,-6.1978,-6.1978,-6.1942,-6.1181,-6.129,-6.1942,-6.1208,-6.1326,-6.1978,-6.1978,-6.1978,-6.1978,-6.1978,-6.1942,-6.1797,-6.1109,-6.0774,-6.0375,-5.8818,-5.7804,-5.7188,-5.7188,-5.7188,-5.7188,-5.7188,-5.7188,-5.7188,-5.7188,-5.7188,-5.7188,-5.7188,-5.6609,-5.6066,-5.6066,-5.5486,-5.4762,-5.4001,-5.3784,-5.3458,-5.2697,-5.2552,-5.248,-5.248,-5.248,-5.248,-5.248,-5.248,-5.248,-5.248,-5.248,-5.248,-5.248,-5.248,-5.248,-5.248,-5.248,-5.248,-5.248,-5.248,-5.248,-5.248,-5.248,-5.248,-5.248,-5.248,-5.248,-5.248,-5.248,-5.248,-2.8137,0.0,-3.0976,-3.0154,-2.9625,-2.8975,0.0,-2.7098,-2.6489,-2.5426,-2.5191,-2.5797,-2.7695,-2.7319,-2.8389,-3.3578,-3.5106,-3.7092,-4.1304,-4.6844,-5.2002,-5.6205,-5.8345,-5.9581,-5.9797,-6.0193,-6.038,-6.0294,-6.0212,-5.9991,-5.9575,-5.9567,-5.9565,-5.9564,-5.9762,-6.0604,-6.2158,-6.206,-6.1978,-6.1978,-6.1978,-6.1978,-6.1978,-6.1978,-6.1978,-6.1978,-6.1797,-6.1833,-6.1978,-6.1797,-6.1833,-6.1978,-6.1978,-6.1978,-6.1978,-6.1978,-6.1616,-6.1136,-6.1543,-6.052,-5.8818,-5.7804,-5.7333,-5.7188,-5.7188,-5.7188,-5.7188,-5.7188,-5.7188,-5.7188,-5.7188,-5.7188,-5.7188,-5.7188,-5.7043,-5.6899,-5.6899,-5.6283,-5.5667,-5.5486,-5.4508,-5.3639,-5.3458,-5.2915,-5.248,-5.248,-5.248,-5.248,-5.248,-5.248,-5.248,-5.248,-5.248,-5.248,-5.248,-5.248,-5.248,-5.248,-5.248,-5.248,-5.248,-5.248,-5.248,-5.248,-5.248,-5.248,-5.248,-5.248,-5.248,-5.248,-5.248,-5.248,-2.6008,-2.7808,-2.9568,-2.9113,-2.8668,-2.8216,-2.7744,-2.6736,-2.5756,-2.5312,-2.5497,-2.6179,-2.7504,-2.8275,-2.9917,-3.3578,-3.5793,-3.8935,-4.436,-4.9901,-5.4524,-5.7542,-5.9033,-5.995,-6.0384,-6.038,-6.0323,-6.0197,-5.9975,-5.9656,-5.9344,-5.8892,-5.8794,-5.9098,-5.8896,-5.9645,-6.1435,-6.1435,-6.1435,-6.1435,-6.1797,-6.1797,-6.1435,-6.1833,-6.1978,-6.1978,-6.1978,-6.1978,-6.1978,-6.1978,-6.1978,-6.1978,-6.1978,-6.1978,-6.1978,-6.1978,-6.1471,-6.0856,-6.129,-6.0122,-5.8347,-5.7876,-5.7514,-5.7188,-5.7188,-5.7188,-5.7188,-5.7188,-5.7188,-5.7188,-5.7188,-5.7188,-5.7188,-5.7188,-5.7188,-5.7188,-5.7188,-5.6862,-5.6428,-5.6066,-5.5051,-5.4146,-5.3748,-5.3349,-5.2915,-5.2552,-5.2806,-5.2915,-5.2552,-5.248,-5.248,-5.248,-5.248,-5.248,-5.248,-5.248,-5.248,-5.248,-5.248,-5.248,-5.248,-5.248,-5.2364,-5.209,-5.1835,-5.1676,-5.1676,-5.1676,-5.1676,-5.1676,-5.1676,-5.1835,-2.5761,-2.813,-3.0343,-2.9832,-2.936,-2.8957,-2.8823,0.0,0.0,0.0,-2.6217,-2.6937,-2.7472,-2.9917,-3.2095,-3.2821,-3.6375,-4.1227,-4.7483,-5.1811,-5.5174,-5.7619,-5.8727,-5.9606,-6.0332,-6.0337,-6.025,-6.0099,-5.9793,-5.9467,-5.9215,-5.8508,-5.834,-5.8891,-5.848,-5.8999,-6.0629,-6.0738,-6.081,-6.081,-6.1616,-6.158,-6.0846,-6.1616,-6.1978,-6.1978,-6.1978,-6.1978,-6.1978,-6.1978,-6.1978,-6.1978,-6.1978,-6.1978,-6.1978,-6.1978,-6.1471,-6.0774,-6.0665,-5.9724,-5.8565,-5.8456,-5.784,-5.7188,-5.7188,-5.7188,-5.7188,-5.7188,-5.7188,-5.7188,-5.7188,-5.7188,-5.7188,-5.7188,-5.7188,-5.7188,-5.7188,-5.7188,-5.7007,-5.6319,-5.5486,-5.4689,-5.4001,-5.3784,-5.3422,-5.2625,-5.3168,-5.3422,-5.2589,-5.248,-5.248,-5.248,-5.248,-5.248,-5.248,-5.248,-5.248,-5.248,-5.248,-5.248,-5.248,-5.241,-5.2114,-5.1601,-5.1105,-5.0805,-5.0697,-5.0805,-5.0805,-5.0697,-5.0697,-5.1035,-2.7838,-2.9838,-3.0629,-2.7782,-2.8013,-2.8746,-2.8039,-2.7612,0.0,0.0,0.0,-2.9414,-3.2286,-3.3249,-3.5007,-3.924,-4.287,-4.6538,-5.0462,-5.3416,-5.5861,-5.7695,-5.9262,-6.0255,-6.0384,-6.0337,-6.025,-6.0099,-5.9991,-5.9711,-5.9234,-5.877,-5.8369,-5.8107,-5.7643,-5.8166,-5.976,-6.0484,-6.081,-6.081,-6.1616,-6.158,-6.0846,-6.1616,-6.1978,-6.1978,-6.1978,-6.1978,-6.1978,-6.1978,-6.1978,-6.1978,-6.1978,-6.1978,-6.1978,-6.1978,-6.1471,-6.0701,-6.0013,-5.9615,-5.9325,-5.8637,-5.784,-5.7188,-5.7188,-5.7188,-5.7188,-5.7188,-5.7188,-5.7188,-5.7188,-5.7188,-5.7188,-5.7188,-5.7188,-5.7188,-5.7188,-5.7188,-5.7152,-5.7043,-5.5884,-5.487,-5.4762,-5.4146,-5.3422,-5.2625,-5.3168,-5.3422,-5.2589,-5.248,-5.248,-5.248,-5.248,-5.248,-5.248,-5.248,-5.248,-5.248,-5.248,-5.248,-5.248,-5.1982,-5.1676,-5.1601,-5.15,-5.1209,-5.0697,-5.1209,-5.1209,-5.0697,-5.0697,-5.1138,-2.6627,-2.8505,-2.9855,-2.8772,-3.0428,-3.221,-3.1843,-3.1071,-3.0407,0.0,0.0,0.0,-3.3708,-3.5878,-3.9049,-4.4093,-4.6577,-4.8907,-5.1849,-5.3645,-5.5479,-5.7657,-5.8574,-5.9401,-6.0275,-6.0241,-6.0152,-6.0038,-5.9744,-5.9361,-5.891,-5.8461,-5.8,-5.7522,-5.7313,-5.7985,-5.9579,-5.9977,-6.0375,-6.081,-6.1616,-6.158,-6.0846,-6.1616,-6.1978,-6.1978,-6.1978,-6.1978,-6.1978,-6.1978,-6.1978,-6.1978,-6.1978,-6.1978,-6.1942,-6.1507,-6.1136,-6.0701,-5.9905,-5.9615,-5.947,-5.8673,-5.8166,-5.7768,-5.7333,-5.7188,-5.7188,-5.7188,-5.7188,-5.7188,-5.7188,-5.7188,-5.7188,-5.7188,-5.7188,-5.7188,-5.7188,-5.7188,-5.7188,-5.7188,-5.6283,-5.5486,-5.5486,-5.5196,-5.4689,-5.3929,-5.411,-5.4074,-5.3241,-5.3132,-5.2987,-5.2552,-5.3277,-5.3639,-5.3204,-5.3566,-5.3422,-5.2552,-5.248,-5.248,-5.248,-5.1601,-5.126,-5.1576,-5.1008,-5.0542,-5.0265,-5.0542,-5.0349,-4.9786,-5.0164,-5.0754,-2.6106,-2.7606,-2.9261,-3.072,-3.2707,-3.4579,-3.5572,-3.4495,-3.3501,-3.4304,0.0,-3.5534,-3.5733,-3.9049,-4.3128,-4.7417,-4.9137,-5.0703,-5.2805,-5.418,-5.5708,-5.7657,-5.823,-5.8967,-6.0179,-6.0182,-6.0068,-6.0029,-5.9485,-5.9084,-5.877,-5.8201,-5.7737,-5.7388,-5.7264,-5.7985,-5.9579,-5.9615,-6.0013,-6.081,-6.1616,-6.158,-6.0846,-6.1616,-6.1978,-6.1978,-6.1978,-6.1978,-6.1978,-6.1978,-6.1978,-6.1978,-6.1978,-6.1978,-6.1906,-6.129,-6.1073,-6.0991,-6.0375,-6.005,-5.9796,-5.918,-5.8818,-5.8565,-5.7949,-5.7623,-5.7478,-5.7478,-5.7333,-5.7188,-5.7188,-5.7188,-5.7188,-5.7188,-5.7188,-5.7188,-5.7188,-5.7188,-5.7188,-5.7188,-5.6536,-5.5993,-5.5993,-5.5993,-5.574,-5.5015,-5.5051,-5.487,-5.4074,-5.4001,-5.3748,-5.3132,-5.4146,-5.4653,-5.4037,-5.4544,-5.4363,-5.3132,-5.2697,-5.248,-5.248,-5.1337,-5.0964,-5.1576,-5.0597,-5.0086,-5.0149,-5.0293,-5.0076,-4.9526,-5.0101,-5.0691,-2.8772,-2.9365,-2.9681,-3.2936,-3.2745,-3.2783,-3.6642,-3.6222,-3.5908,-3.9079,-3.9804,-4.0081,-4.0807,-4.3749,-4.6691,-4.8678,-5.0971,-5.2881,-5.3874,-5.6091,-5.7695,-5.7886,-5.9262,-6.0227,-6.0294,-6.0182,-6.0068,-6.0029,-5.9485,-5.9197,-5.9159,-5.8375,-5.7863,-5.7854,-5.7437,-5.7985,-5.9579,-5.9615,-6.0013,-6.081,-6.1616,-6.158,-6.0846,-6.1616,-6.1978,-6.1978,-6.1978,-6.1978,-6.1978,-6.1978,-6.1978,-6.1978,-6.1978,-6.1978,-6.1978,-6.1906,-6.1906,-6.1906,-6.1833,-6.1353,-6.0701,-6.0665,-6.0122,-5.9506,-5.9434,-5.8927,-5.8311,-5.8311,-5.7768,-5.7188,-5.7188,-5.7188,-5.7188,-5.7188,-5.7188,-5.7188,-5.7188,-5.7188,-5.7188,-5.7188,-5.6536,-5.5993,-5.5993,-5.5993,-5.574,-5.5015,-5.5486,-5.5631,-5.4907,-5.4798,-5.4798,-5.4725,-5.4834,-5.487,-5.4834,-5.487,-5.487,-5.4725,-5.3313,-5.248,-5.248,-5.1337,-5.0964,-5.1576,-5.0964,-5.0753,-5.0912,-5.1492,-5.1493,-5.1016,-5.1083,-5.1488,-2.7408,-2.916,-3.0942,-3.2737,-3.4273,0.0,0.0,-3.9623,-4.0578,-4.2947,-4.3405,-4.3673,-4.4475,-4.566,-4.7417,-5.0206,-5.1849,-5.3301,-5.4715,-5.5747,-5.674,-5.7772,-5.8459,-5.922,-6.0082,-5.989,-5.9777,-5.9934,-5.9234,-5.8831,-5.8831,-5.8245,-5.7784,-5.7449,-5.7289,-5.7985,-5.9579,-5.9615,-6.0267,-6.1543,-6.1833,-6.1833,-6.1543,-6.1833,-6.1978,-6.1978,-6.1978,-6.1978,-6.1978,-6.1978,-6.1978,-6.1978,-6.1978,-6.1978,-6.1978,-6.1978,-6.1652,-6.1254,-6.1254,-6.1037,-6.0738,-6.0231,-6.0194,-6.0267,-5.976,-5.9035,-5.8383,-5.8383,-5.7804,-5.7188,-5.7188,-5.7188,-5.7188,-5.7188,-5.7188,-5.7188,-5.7188,-5.7188,-5.7188,-5.7188,-5.6935,-5.6754,-5.6754,-5.6754,-5.6645,-5.6355,-5.6138,-5.5884,-5.5631,-5.5595,-5.5414,-5.4943,-5.5305,-5.5776,-5.6283,-5.5884,-5.5595,-5.5595,-5.411,-5.3241,-5.3241,-5.1987,-5.1551,-5.2162,-5.2075,-5.1855,-5.1562,-5.2243,-5.2107,-5.1217,-5.2106,-5.245,-2.7052,-2.9115,-3.1408,-3.2776,0.0,0.0,-4.1304,-4.2756,-4.4284,-4.6768,-4.6882,-4.6653,-4.7226,-4.7302,-4.8258,-5.1111,-5.2499,-5.3722,-5.5212,-5.5632,-5.6205,-5.7351,-5.772,-5.8377,-5.9619,-5.9447,-5.9396,-5.9643,-5.9007,-5.8545,-5.8397,-5.7909,-5.7522,-5.7213,-5.7188,-5.7985,-5.9579,-5.9615,-6.0412,-6.1978,-6.1978,-6.1978,-6.1978,-6.1978,-6.1978,-6.1978,-6.1978,-6.1978,-6.1978,-6.1978,-6.1978,-6.1978,-6.1978,-6.1978,-6.1978,-6.1978,-6.1652,-6.1181,-6.1181,-6.1181,-6.11,-6.0557,-6.0738,-6.1,-6.0231,-5.9434,-5.8782,-5.8782,-5.8202,-5.7623,-5.7876,-5.7587,-5.7188,-5.7188,-5.7188,-5.7188,-5.7188,-5.7188,-5.7188,-5.7188,-5.7188,-5.7188,-5.7188,-5.7188,-5.7188,-5.7188,-5.6717,-5.6355,-5.6355,-5.6355,-5.6174,-5.5667,-5.6066,-5.6609,-5.7152,-5.6681,-5.6355,-5.6355,-5.516,-5.4218,-5.3711,-5.259,-5.2135,-5.248,-5.2698,-5.2635,-5.2222,-5.3022,-5.2869,-5.1961,-5.2923,-5.313,-2.8459,-2.9529,-3.0842,-3.3402,0.0,0.0,-4.436,-4.5326,-4.6538,-5.0741,-5.0283,-4.911,-4.911,-4.911,-4.9671,-5.1353,-5.2996,-5.4409,-5.5288,-5.6091,-5.6587,-5.6587,-5.7298,-5.8092,-5.8805,-5.8844,-5.8889,-5.9158,-5.8831,-5.8397,-5.7909,-5.7449,-5.7188,-5.7188,-5.7188,-5.7985,-5.9579,-5.9615,-6.0412,-6.1978,-6.1978,-6.1978,-6.1978,-6.1978,-6.1978,-6.1978,-6.1978,-6.1978,-6.1978,-6.1978,-6.1978,-6.1978,-6.1978,-6.1978,-6.1978,-6.1978,-6.1978,-6.1978,-6.1978,-6.1978,-6.1978,-6.1978,-6.1978,-6.1833,-6.1037,-6.0267,-5.9615,-5.9615,-5.9035,-5.8601,-5.9398,-5.842,-5.7224,-5.7224,-5.7188,-5.7188,-5.7188,-5.7188,-5.7188,-5.7188,-5.7188,-5.7188,-5.7188,-5.7188,-5.7188,-5.7188,-5.7188,-5.7188,-5.7188,-5.7188,-5.7188,-5.7188,-5.7188,-5.7188,-5.7188,-5.7188,-5.7188,-5.7188,-5.6428,-5.5305,-5.3784,-5.3153,-5.2709,-5.2552,-5.2734,-5.2883,-5.3028,-5.3829,-5.3979,-5.3518,-5.3518,-5.3518,-2.8077,-3.0414,-3.3318,-3.5267,0.0,0.0,0.0,-4.7963,0.0,0.0,-5.1582,-5.0856,-5.0856,-5.0856,-5.12,-5.227,-5.3378,-5.4409,-5.5288,-5.5594,-5.5963,-5.6483,-5.6723,-5.7039,-5.7467,-5.8006,-5.8214,-5.7955,-5.8042,-5.8046,-5.7923,-5.7449,-5.7188,-5.7188,-5.7188,-5.7985,-5.9579,-5.9615,-6.0412,-6.1978,-6.1978,-6.1978,-6.1978,-6.1978,-6.1978,-6.1978,-6.1978,-6.1978,-6.1978,-6.1978,-6.1978,-6.1978,-6.1978,-6.1978,-6.1978,-6.1978,-6.1978,-6.1978,-6.1978,-6.1978,-6.1978,-6.1978,-6.1978,-6.1942,-6.1725,-6.0701,-5.9724,-6.0303,-5.947,-5.8601,-5.9398,-5.9253,-5.8746,-5.8166,-5.7623,-5.7188,-5.7188,-5.7188,-5.7188,-5.7188,-5.7188,-5.7188,-5.7188,-5.7188,-5.7188,-5.7188,-5.7188,-5.7188,-5.7188,-5.7188,-5.7188,-5.7188,-5.7188,-5.7188,-5.7188,-5.7188,-5.7188,-5.7188,-5.6971,-5.6391,-5.5341,-5.4652,-5.423,-5.4182,-5.476,-5.4633,-5.3864,-5.4665,-5.453,-5.3518,-5.3946,-5.3881,-2.9956,-3.2783,-3.6031,-3.84,-4.2412,-4.6691,-5.0283,-5.1085,-5.162,-5.3454,-5.2919,-5.2193,-5.2537,-5.2308,-5.2346,-5.3187,-5.4065,-5.4791,-5.5326,-5.5403,-5.5568,-5.5922,-5.5822,-5.5906,-5.6363,-5.6944,-5.7247,-5.7138,-5.7626,-5.7831,-5.7642,-5.7363,-5.7188,-5.7188,-5.7188,-5.7804,-5.9108,-5.9434,-6.0267,-6.1507,-6.1833,-6.1978,-6.1978,-6.1978,-6.1978,-6.1978,-6.1978,-6.1978,-6.1978,-6.1978,-6.1978,-6.1978,-6.1978,-6.1978,-6.1978,-6.1978,-6.1978,-6.1978,-6.1978,-6.1978,-6.1978,-6.1978,-6.1978,-6.1942,-6.1616,-6.0629,-5.976,-6.0593,-5.9868,-5.9144,-6.0267,-6.0339,-5.9796,-5.8673,-5.8021,-5.7587,-5.7261,-5.7188,-5.7188,-5.7188,-5.7188,-5.7188,-5.7188,-5.7188,-5.7188,-5.7188,-5.7188,-5.7188,-5.7188,-5.7188,-5.7188,-5.7188,-5.7188,-5.7188,-5.7188,-5.7188,-5.7188,-5.7188,-5.7188,-5.6971,-5.65,-5.574,-5.5062,-5.4514,-5.5235,-5.5044,-5.3798,-5.4595,-5.4488,-5.3518,-5.4155,-5.4258,-3.286,-3.5687,-3.8553,-4.203,-4.501,-4.8296,-5.3034,-5.4142,-5.4448,-5.525,-5.4142,-5.3263,-5.4065,-5.3569,-5.3301,-5.4104,-5.4868,-5.5403,-5.5403,-5.539,-5.5326,-5.5222,-5.4769,-5.4775,-5.545,-5.5791,-5.6138,-5.6506,-5.7313,-5.764,-5.7213,-5.7188,-5.7188,-5.7188,-5.7188,-5.7587,-5.8383,-5.9144,-5.9941,-6.081,-6.1543,-6.1869,-6.1869,-6.1978,-6.1978,-6.1978,-6.1978,-6.1978,-6.1978,-6.1906,-6.1906,-6.1978,-6.1906,-6.1942,-6.1978,-6.1978,-6.1978,-6.1978,-6.1978,-6.1978,-6.1978,-6.1978,-6.1978,-6.1833,-6.1109,-6.0375,-5.9905,-6.0701,-6.0339,-6.0086,-6.158,-6.1462,-6.052,-5.8891,-5.8456,-5.8166,-5.7369,-5.7188,-5.7188,-5.7188,-5.7188,-5.7188,-5.7188,-5.7188,-5.7188,-5.7188,-5.7188,-5.7188,-5.7188,-5.7188,-5.7188,-5.7188,-5.7188,-5.7188,-5.7188,-5.7188,-5.7188,-5.7188,-5.7188,-5.7188,-5.7188,-5.65,-5.5491,-5.4144,-5.4857,-5.4599,-5.3325,-5.4046,-5.4108,-5.3619,-5.4296,-5.4634,-3.1484,-3.4808,-3.8667,-4.2708,-4.7608,-5.1926,-5.3683,-5.4639,-5.5174,-5.5365,-5.5097,-5.4906,-5.5097,-5.4982,-5.4906,-5.5097,-5.5288,-5.5403,-5.5403,-5.5313,-5.5222,-5.5116,-5.4716,-5.4351,-5.4167,-5.4763,-5.518,-5.5291,-5.6324,-5.7018,-5.7177,-5.7188,-5.7188,-5.7188,-5.7188,-5.7587,-5.8383,-5.8565,-5.9398,-6.081,-6.0991,-6.1037,-6.1073,-6.1688,-6.1978,-6.1978,-6.1978,-6.1978,-6.1942,-6.1326,-6.1435,-6.1942,-6.129,-6.1435,-6.1978,-6.1978,-6.1978,-6.1978,-6.1978,-6.1978,-6.1978,-6.1978,-6.1978,-6.1978,-6.1761,-6.1181,-6.0738,-6.1507,-6.1145,-6.0774,-6.1725,-6.1869,-6.1353,-5.9724,-5.8854,-5.8166,-5.7369,-5.7188,-5.7188,-5.7188,-5.7188,-5.7188,-5.7188,-5.7188,-5.7188,-5.7188,-5.7188,-5.7188,-5.7188,-5.7188,-5.7188,-5.7188,-5.7188,-5.7188,-5.7188,-5.7188,-5.7188,-5.7188,-5.7188,-5.7188,-5.7188,-5.7043,-5.6572,-5.5812,-5.5927,-5.5411,-5.4149,-5.4322,-5.4383,-5.4363,-5.4532,-5.4905,-3.2248,-3.6069,0.0,-4.6184,0.0,-5.3148,-5.4448,-5.5059,-5.5403,-5.5403,-5.5403,-5.5403,-5.5403,-5.5403,-5.5403,-5.5403,-5.5403,-5.5403,-5.5403,-5.5275,-5.5116,-5.4851,-5.4409,-5.3943,-5.345,-5.3981,-5.4334,-5.4339,-5.5605,-5.643,-5.6634,-5.6971,-5.7188,-5.7188,-5.7188,-5.7406,-5.7804,-5.8202,-5.8818,-5.9651,-6.0448,-6.081,-6.0783,-6.1218,-6.1616,-6.1978,-6.1978,-6.1978,-6.1978,-6.1543,-6.1616,-6.1942,-6.1543,-6.1399,-6.1471,-6.1833,-6.1761,-6.1471,-6.1869,-6.1978,-6.1978,-6.1978,-6.1978,-6.1978,-6.1978,-6.1435,-6.0991,-6.1761,-6.1399,-6.0991,-6.1761,-6.1978,-6.1688,-6.0484,-5.9579,-5.8637,-5.7442,-5.7188,-5.7188,-5.7188,-5.7188,-5.7188,-5.7188,-5.7188,-5.7188,-5.7188,-5.7188,-5.7188,-5.7188,-5.7188,-5.7188,-5.7188,-5.7188,-5.7188,-5.7188,-5.7188,-5.7188,-5.7188,-5.7188,-5.7188,-5.7188,-5.6819,-5.6474,-5.6174,-5.5658,-5.4918,-5.3979,-5.3979,-5.4191,-5.46,-5.4972,-5.5513,-3.2669,-3.7368,-4.2478,-4.9774,-5.2193,0.0,-5.5021,-5.5403,-5.5403,-5.5403,-5.5403,-5.5403,-5.5403,-5.5403,-5.5403,-5.5403,-5.539,-5.539,-5.539,-5.5208,-5.4924,-5.4532,-5.4013,-5.3528,-5.312,-5.3358,-5.3566,-5.3675,-5.487,-5.5703,-5.5993,-5.6609,-5.7043,-5.7188,-5.7188,-5.7188,-5.7188,-5.7876,-5.8275,-5.842,-5.976,-6.0484,-6.0593,-6.0593,-6.1,-6.1761,-6.1761,-6.1869,-6.1978,-6.1833,-6.1869,-6.1978,-6.1833,-6.1471,-6.11,-6.1725,-6.158,-6.1073,-6.1761,-6.1978,-6.1978,-6.1978,-6.1978,-6.1978,-6.1978,-6.1543,-6.1172,-6.1797,-6.1507,-6.1145,-6.1833,-6.1978,-6.1797,-6.0991,-6.0303,-5.9398,-5.7913,-5.7623,-5.7587,-5.7442,-5.7297,-5.7188,-5.7188,-5.7188,-5.7188,-5.7188,-5.7188,-5.7188,-5.7188,-5.7188,-5.7188,-5.7188,-5.7188,-5.7188,-5.7188,-5.7188,-5.7188,-5.7188,-5.7188,-5.7188,-5.7188,-5.6138,-5.5572,-5.5572,-5.4826,-5.4106,-5.3518,-5.3619,-5.4059,-5.4803,-5.5547,-5.6292,-2.8931,0.0,-4.394,0.0,-5.2193,-5.3263,0.0,0.0,-5.5403,-5.5403,-5.5403,-5.5403,-5.5403,-5.5403,-5.5403,-5.5403,-5.5313,-5.5261,-5.539,-5.4889,-5.4506,-5.4484,-5.3721,-5.3162,-5.3099,-5.2848,-5.2951,-5.3639,-5.3892,-5.4581,-5.5921,-5.6102,-5.6464,-5.7188,-5.7188,-5.7188,-5.7188,-5.7297,-5.7695,-5.8383,-5.8637,-5.9108,-5.976,-5.976,-6.0194,-6.0964,-6.0964,-6.139,-6.1942,-6.1254,-6.1362,-6.1906,-6.1218,-6.1326,-6.1833,-6.1942,-6.1906,-6.1833,-6.1942,-6.1978,-6.1978,-6.1978,-6.1978,-6.1978,-6.1978,-6.1906,-6.1833,-6.1978,-6.1906,-6.1833,-6.1978,-6.1978,-6.1797,-6.0991,-6.0738,-6.0412,-5.947,-5.9289,-5.9072,-5.8383,-5.7695,-5.7188,-5.7188,-5.7188,-5.7188,-5.7188,-5.7188,-5.7188,-5.7188,-5.7188,-5.7188,-5.7188,-5.7188,-5.7188,-5.7188,-5.7188,-5.7188,-5.7188,-5.7188,-5.7188,-5.7188,-5.5039,-5.3816,-5.3816,-5.4203,-5.4106,-5.3518,-5.4126,-5.4837,-5.5581,-5.6325,-5.7036,-3.2141,-3.7521,-4.2908,0.0,-5.1505,-5.2575,-5.4295,-5.5059,-5.5403,-5.5403,-5.5403,-5.5403,-5.5403,-5.5403,-5.5403,-5.5403,-5.5313,-5.5235,-5.5261,-5.4776,-5.4326,-5.4118,-5.3528,-5.303,-5.2783,-5.2618,-5.2661,-5.2987,-5.3458,-5.4182,-5.5305,-5.5776,-5.6355,-5.7152,-5.7188,-5.7188,-5.7188,-5.7188,-5.7587,-5.8383,-5.7949,-5.8166,-5.8927,-5.8927,-5.9615,-6.081,-6.081,-6.1254,-6.1942,-6.1109,-6.1254,-6.1942,-6.1616,-6.1399,-6.1362,-6.1833,-6.1688,-6.1362,-6.1833,-6.1978,-6.1978,-6.1978,-6.1978,-6.1978,-6.1978,-6.1978,-6.1978,-6.1978,-6.1978,-6.1978,-6.1978,-6.1978,-6.1906,-6.1543,-6.1471,-6.1362,-6.1027,-6.0267,-5.9434,-5.8746,-5.8347,-5.7913,-5.7297,-5.7188,-5.7188,-5.7188,-5.7188,-5.7188,-5.7188,-5.7188,-5.7188,-5.7188,-5.7188,-5.7188,-5.7188,-5.7188,-5.7188,-5.7188,-5.7188,-5.6572,-5.5189,-5.4076,-5.389,-5.4735,-5.4567,-5.4363,-5.4126,-5.4871,-5.5615,-5.6325,-5.6664,-5.7205,-3.3586,-3.7215,-4.0348,-4.7302,-4.9824,-5.1238,0.0,0.0,-5.5135,-5.5365,-5.5403,-5.5403,-5.5403,-5.5403,-5.5403,-5.5403,-5.5439,-5.5486,-5.5379,-5.4871,-5.4385,-5.4018,-5.3355,-5.285,-5.2526,-5.248,-5.248,-5.248,-5.3059,-5.3856,-5.487,-5.5414,-5.6174,-5.7152,-5.7188,-5.7188,-5.7188,-5.7188,-5.7514,-5.8094,-5.7478,-5.7514,-5.8094,-5.8311,-5.9072,-6.0194,-6.0412,-6.0846,-6.139,-6.0964,-6.1145,-6.1725,-6.1906,-6.1616,-6.1181,-6.1761,-6.1616,-6.1208,-6.1761,-6.1978,-6.1978,-6.1978,-6.1978,-6.1978,-6.1978,-6.1978,-6.1978,-6.1978,-6.1978,-6.1978,-6.1978,-6.1978,-6.1978,-6.1978,-6.1978,-6.1978,-6.1978,-6.0846,-5.9687,-5.9289,-5.8782,-5.813,-5.7333,-5.7876,-5.842,-5.842,-5.842,-5.842,-5.842,-5.7695,-5.7188,-5.7188,-5.7913,-5.842,-5.842,-5.842,-5.842,-5.842,-5.842,-5.76,-5.5758,-5.4974,-5.5141,-5.6258,-5.548,-5.5006,-5.4871,-5.5615,-5.6258,-5.6799,-5.7002,-5.7374,-2.9153,-3.2409,-3.6154,-4.3683,-4.6806,-4.9049,0.0,-5.4142,-5.4409,-5.525,-5.5403,-5.5403,-5.5403,-5.5403,-5.5403,-5.5403,-5.5933,-5.6221,-5.5813,-5.5262,-5.4756,-5.4412,-5.3288,-5.2503,-5.248,-5.248,-5.248,-5.248,-5.2552,-5.3241,-5.4834,-5.4943,-5.5667,-5.7152,-5.7188,-5.7188,-5.7188,-5.7188,-5.7224,-5.7261,-5.7224,-5.7224,-5.7297,-5.8058,-5.8456,-5.8565,-5.9325,-5.9687,-5.9796,-6.052,-6.0846,-6.0955,-6.1688,-6.1978,-6.1942,-6.1978,-6.1978,-6.1942,-6.1978,-6.1978,-6.1978,-6.1978,-6.1978,-6.1978,-6.1978,-6.1978,-6.1978,-6.1978,-6.1978,-6.1978,-6.1978,-6.1978,-6.1978,-6.1978,-6.1978,-6.1978,-6.1978,-6.1136,-6.0339,-6.0303,-5.8673,-5.7261,-5.7188,-5.9724,-6.1725,-6.1725,-6.1725,-6.1725,-6.1725,-5.9108,-5.7188,-5.7188,-5.9941,-6.1725,-6.1725,-6.1725,-6.1725,-6.1725,-6.1725,-6.1697,-6.1559,-5.9038,-5.7712,-5.778,-5.6799,-5.6122,-5.5649,-5.6393,-5.6765,-5.6833,-5.7509,-5.7848,-2.8306,-3.1209,-3.4464,-3.989,-4.3749,-4.6882,-4.948,-5.198,-5.3919,-5.4448,-5.48,-5.5004,-5.5004,-5.5233,-5.539,-5.5313,-5.5204,-5.5101,-5.4942,-5.4224,-5.3691,-5.3603,-5.2907,-5.248,-5.248,-5.248,-5.248,-5.248,-5.248,-5.2987,-5.4074,-5.4146,-5.4834,-5.6355,-5.6428,-5.6681,-5.7188,-5.7188,-5.7188,-5.7188,-5.7188,-5.7188,-5.7224,-5.8021,-5.813,-5.7659,-5.8492,-5.9108,-5.9615,-5.9905,-6.0339,-6.0883,-6.1688,-6.1978,-6.1978,-6.1978,-6.1978,-6.1978,-6.1978,-6.1978,-6.1978,-6.1978,-6.1978,-6.1978,-6.1978,-6.1978,-6.1978,-6.1978,-6.1978,-6.1978,-6.1978,-6.1978,-6.1978,-6.1978,-6.1978,-6.1978,-6.1978,-6.1688,-6.1426,-6.1426,-6.081,-6.0303,-6.0303,-6.1245,-6.1978,-6.1978,-6.1978,-6.1978,-6.1978,-6.0991,-6.0303,-6.0303,-6.129,-6.1978,-6.1978,-6.1978,-6.1978,-6.1978,-6.1978,-6.1228,-5.9447,-5.8423,-5.7881,-5.7881,-5.7543,-5.6968,-5.6121,-5.707,-5.7509,-5.7509,-5.778,-5.7881,-2.6625,-2.9299,0.0,0.0,-4.0196,-4.298,-4.7445,-4.977,-5.1519,-5.3503,-5.4083,-5.4345,-5.4739,-5.5004,-5.5154,-5.5061,-5.4989,-5.4872,-5.4654,-5.3975,-5.3439,-5.3303,-5.2831,-5.248,-5.248,-5.248,-5.248,-5.248,-5.248,-5.2842,-5.3675,-5.3711,-5.4399,-5.5957,-5.6247,-5.6645,-5.7188,-5.7188,-5.7188,-5.7188,-5.7188,-5.7188,-5.7224,-5.7732,-5.7695,-5.7224,-5.7768,-5.8311,-5.8818,-5.9108,-5.9506,-6.0122,-6.1181,-6.158,-6.1616,-6.1906,-6.1978,-6.1978,-6.1978,-6.1978,-6.1978,-6.1978,-6.1978,-6.1978,-6.1978,-6.1978,-6.1978,-6.1978,-6.1978,-6.1978,-6.1978,-6.1978,-6.1978,-6.1978,-6.1978,-6.1978,-6.1978,-6.1978,-6.1978,-6.1978,-6.1978,-6.1978,-6.1978,-6.1978,-6.1978,-6.1978,-6.1978,-6.1978,-6.1978,-6.1978,-6.1978,-6.1978,-6.1978,-6.1978,-6.1978,-6.1978,-6.1978,-6.1978,-6.1978,-6.0777,-5.8027,-5.7881,-5.7881,-5.7881,-5.7881,-5.7577,-5.69,-5.7577,-5.7881,-5.7881,-5.7881,-5.7881,0.0,0.0,0.0,0.0,0.0,0.0,-4.7163,-4.7446,-4.7085,-5.2329,-5.3179,-5.3322,-5.4489,-5.4776,-5.4761,-5.467,-5.5287,-5.5563,-5.5025,-5.4535,-5.41,-5.371,-5.2987,-5.248,-5.248,-5.248,-5.248,-5.248,-5.248,-5.2842,-5.3675,-5.3748,-5.4436,-5.5921,-5.6754,-5.7188,-5.7152,-5.7188,-5.7188,-5.7188,-5.7188,-5.7188,-5.7188,-5.7188,-5.7188,-5.7188,-5.7188,-5.7188,-5.7261,-5.8058,-5.8383,-5.8565,-6.0194,-6.081,-6.0919,-6.1688,-6.1978,-6.1978,-6.1978,-6.1978,-6.1978,-6.1978,-6.1978,-6.1978,-6.1978,-6.1978,-6.1978,-6.1978,-6.1978,-6.1978,-6.1978,-6.1978,-6.1978,-6.1978,-6.1978,-6.1978,-6.1978,-6.1978,-6.1978,-6.1978,-6.1978,-6.1978,-6.1978,-6.1978,-6.1978,-6.1978,-6.1978,-6.1978,-6.1978,-6.1978,-6.1978,-6.1978,-6.1978,-6.1978,-6.1978,-6.1978,-6.1978,-6.1978,-6.1978,-6.0777,-5.8027,-5.7881,-5.7881,-5.7881,-5.7881,-5.7881,-5.7881,-5.7881,-5.7881,-5.7881,-5.7881,-5.7881,-2.4994,0.0,0.0,0.0,0.0,0.0,0.0,-4.0489,-4.2551,-4.7943,-4.9138,-4.9986,-5.2669,-5.3778,-5.419,-5.3814,-5.4128,-5.4241,-5.3702,-5.3273,-5.2967,-5.2865,-5.2625,-5.248,-5.248,-5.248,-5.248,-5.248,-5.248,-5.2842,-5.3675,-5.4762,-5.5305,-5.5196,-5.65,-5.6899,-5.6319,-5.6899,-5.7188,-5.7188,-5.7188,-5.7188,-5.7188,-5.7188,-5.7188,-5.7188,-5.7188,-5.7188,-5.7261,-5.8058,-5.8383,-5.8565,-6.0194,-6.081,-6.0919,-6.1688,-6.1978,-6.1978,-6.1978,-6.1978,-6.1978,-6.1978,-6.1978,-6.1978,-6.1978,-6.1978,-6.1978,-6.1978,-6.1978,-6.1978,-6.1978,-6.1978,-6.1978,-6.1978,-6.1978,-6.1978,-6.1978,-6.1978,-6.1978,-6.1978,-6.1978,-6.1978,-6.1978,-6.1978,-6.1978,-6.1978,-6.1978,-6.1978,-6.1978,-6.1978,-6.1978,-6.1978,-6.1978,-6.1978,-6.1978,-6.1978,-6.1978,-6.1978,-6.1978,-6.0777,-5.8027,-5.7881,-5.7881,-5.7881,-5.7881,-5.7881,-5.7881,-5.7881,-5.7881,-5.7881,-5.7881,-5.7881,-2.6373,-2.7782,0.0,0.0,0.0,0.0,-3.7201,-3.8202,-3.9779,-4.6148,-4.7702,-4.8659,-5.1045,-5.2474,-5.3162,-5.2708,-5.3208,-5.3491,-5.3141,-5.2761,-5.248,-5.248,-5.248,-5.248,-5.248,-5.248,-5.248,-5.248,-5.248,-5.2842,-5.3675,-5.487,-5.5341,-5.4907,-5.6066,-5.6464,-5.5993,-5.6464,-5.6862,-5.7188,-5.7188,-5.7188,-5.7188,-5.7188,-5.7188,-5.7188,-5.7188,-5.7188,-5.7224,-5.7695,-5.7913,-5.8021,-5.9325,-6.0013,-6.0412,-6.1181,-6.1688,-6.1978,-6.1978,-6.1978,-6.1978,-6.1978,-6.1978,-6.1978,-6.1978,-6.1978,-6.1978,-6.1978,-6.1978,-6.1978,-6.1978,-6.1978,-6.1978,-6.1978,-6.1978,-6.1978,-6.1978,-6.1978,-6.1978,-6.1978,-6.1978,-6.1978,-6.1978,-6.1978,-6.1978,-6.1978,-6.1978,-6.1978,-6.1978,-6.1978,-6.1978,-6.1978,-6.1978,-6.1978,-6.1978,-6.1978,-6.1978,-6.1978,-6.1978,-6.0777,-5.8027,-5.7881,-5.7881,-5.7881,-5.7881,-5.7881,-5.7881,-5.7881,-5.7881,-5.7881,-5.7881,-5.7881,-2.8316,-2.9345,0.0,-3.2674,-3.075,0.0,-3.839,-3.7886,-3.7779,-4.4862,-4.6614,-4.7334,-4.8822,-5.0324,-5.1199,-5.0717,-5.1799,-5.281,-5.2999,-5.2717,-5.248,-5.248,-5.248,-5.248,-5.248,-5.248,-5.248,-5.248,-5.2589,-5.2951,-5.3675,-5.4544,-5.4979,-5.4907,-5.5703,-5.6066,-5.5993,-5.6066,-5.65,-5.7188,-5.7188,-5.7188,-5.7188,-5.7188,-5.7188,-5.7188,-5.7188,-5.7188,-5.7188,-5.7188,-5.7188,-5.7261,-5.8094,-5.8891,-5.9724,-6.052,-6.129,-6.1978,-6.1978,-6.1978,-6.1978,-6.1978,-6.1978,-6.1978,-6.1978,-6.1978,-6.1978,-6.1978,-6.1978,-6.1978,-6.1978,-6.1978,-6.1978,-6.1978,-6.1978,-6.1978,-6.1978,-6.1978,-6.1978,-6.1978,-6.1978,-6.1978,-6.1978,-6.1978,-6.1978,-6.1978,-6.1978,-6.1978,-6.1978,-6.1978,-6.1978,-6.1978,-6.1978,-6.1978,-6.1978,-6.1978,-6.1978,-6.1978,-6.1978,-6.0897,-5.8458,-5.8351,-5.8209,-5.7918,-5.7881,-5.7881,-5.7881,-5.7881,-5.7881,-5.7881,-5.7881,-5.7881,-3.2318,-3.2355,-3.2446,-3.1331,-3.1492,0.0,-3.1808,-3.2083,-3.3372,-3.697,-3.8206,-3.9465,-4.2196,-4.4455,-4.5661,-4.4889,-4.7559,-5.0388,-5.235,-5.2549,-5.248,-5.248,-5.248,-5.248,-5.248,-5.248,-5.248,-5.248,-5.3096,-5.353,-5.3675,-5.5015,-5.5522,-5.4943,-5.6247,-5.6645,-5.5993,-5.6645,-5.7043,-5.7188,-5.7188,-5.7188,-5.7188,-5.7188,-5.7188,-5.7188,-5.7188,-5.7188,-5.7188,-5.7188,-5.7188,-5.7261,-5.8094,-5.8891,-5.9724,-6.052,-6.129,-6.1978,-6.1978,-6.1978,-6.1978,-6.1978,-6.1978,-6.1978,-6.1978,-6.1978,-6.1978,-6.1978,-6.1978,-6.1978,-6.1978,-6.1978,-6.1978,-6.1978,-6.1978,-6.1978,-6.1978,-6.1978,-6.1978,-6.1978,-6.1978,-6.1978,-6.1978,-6.1978,-6.1978,-6.1978,-6.1978,-6.1978,-6.1978,-6.1978,-6.1978,-6.1978,-6.1978,-6.1978,-6.1978,-6.1978,-6.1978,-6.1978,-6.1978,-6.1748,-6.1192,-6.1228,-6.0156,-5.7954,-5.7881,-5.7881,-5.7881,-5.7881,-5.7881,-5.7881,-5.7881,-5.7881,-3.4546,-3.4301,-3.4424,-3.351,-3.2992,0.0,0.0,-3.271,-3.3049,-3.6793,-3.7132,-3.7488,-3.9853,-4.1485,-4.2596,-4.3014,-4.5715,-4.8134,-4.9329,-5.1212,-5.2335,-5.1937,-5.2263,-5.2335,-5.1937,-5.2263,-5.248,-5.248,-5.2878,-5.3277,-5.3675,-5.4436,-5.4689,-5.4327,-5.545,-5.5848,-5.545,-5.621,-5.679,-5.7188,-5.7188,-5.7188,-5.7188,-5.7188,-5.7188,-5.7188,-5.7188,-5.7188,-5.7188,-5.7188,-5.7188,-5.7224,-5.7623,-5.8528,-5.9651,-6.005,-6.0964,-6.1978,-6.1978,-6.1978,-6.1978,-6.1978,-6.1978,-6.1978,-6.1978,-6.1978,-6.1978,-6.1978,-6.1978,-6.1978,-6.1978,-6.1978,-6.1978,-6.1978,-6.1978,-6.1978,-6.1978,-6.1978,-6.1978,-6.1978,-6.1978,-6.1978,-6.1978,-6.1978,-6.1978,-6.1978,-6.1978,-6.1978,-6.1978,-6.1978,-6.1978,-6.1978,-6.1978,-6.1978,-6.1978,-6.1978,-6.1978,-6.1978,-6.1978,-6.1978,-6.1978,-6.1978,-6.0717,-5.7954,-5.7881,-5.7881,-5.7881,-5.7881,-5.7881,-5.7881,-5.7881,-5.7881,-3.7155,-3.6821,-3.7101,-3.653,-3.5235,-3.4503,0.0,0.0,0.0,-3.7436,-3.7155,-3.6671,-3.8,-3.8726,-3.9621,-4.1015,-4.341,-4.5091,-4.491,-4.8351,-5.0741,-5.0416,-5.1357,-5.1719,-5.0923,-5.114,-5.1611,-5.2226,-5.1828,-5.2118,-5.3385,-5.3603,-5.3711,-5.3711,-5.4472,-5.4979,-5.5124,-5.5703,-5.6391,-5.7188,-5.7188,-5.7188,-5.7188,-5.7188,-5.7188,-5.7188,-5.7188,-5.7188,-5.7188,-5.7188,-5.7188,-5.7188,-5.7188,-5.8166,-5.9615,-5.9615,-6.0629,-6.1978,-6.1978,-6.1978,-6.1978,-6.1978,-6.1978,-6.1978,-6.1978,-6.1978,-6.1978,-6.1978,-6.1978,-6.1978,-6.1978,-6.1978,-6.1978,-6.1978,-6.1978,-6.1978,-6.1978,-6.1978,-6.1978,-6.1978,-6.1978,-6.1978,-6.1978,-6.1978,-6.1978,-6.1978,-6.1978,-6.1978,-6.1978,-6.1978,-6.1978,-6.1978,-6.1978,-6.1978,-6.1978,-6.1978,-6.1978,-6.1978,-6.1978,-6.1978,-6.1978,-6.1978,-6.0956,-5.8737,-5.8173,-5.7881,-5.7881,-5.7881,-5.7881,-5.7915,-5.849,-5.8761,-4.2427,-4.1896,-4.076,-3.7998,-3.8648,-3.8533,-3.3236,0.0,-3.4132,-3.2424,0.0,-3.2984,-3.3052,0.0,0.0,-3.4474,-3.772,-3.9948,-3.9224,-4.2556,-4.5562,-4.6902,-4.9003,-5.0053,-4.9235,-4.7989,-4.8351,-5.1212,-4.9438,-4.9546,-5.248,-5.3313,-5.3711,-5.3711,-5.4472,-5.5196,-5.5848,-5.5957,-5.6391,-5.7188,-5.7188,-5.7188,-5.7188,-5.7188,-5.7188,-5.7188,-5.7188,-5.7188,-5.7188,-5.7188,-5.7188,-5.7188,-5.7188,-5.8166,-5.9615,-5.9615,-6.0629,-6.1978,-6.1978,-6.1978,-6.1978,-6.1978,-6.1978,-6.1978,-6.1978,-6.1978,-6.1978,-6.1978,-6.1978,-6.1978,-6.1978,-6.1978,-6.1978,-6.1978,-6.1978,-6.1978,-6.1978,-6.1978,-6.1978,-6.1978,-6.1978,-6.1978,-6.1978,-6.1978,-6.1978,-6.1978,-6.1978,-6.1978,-6.1978,-6.1978,-6.1978,-6.1978,-6.1978,-6.1978,-6.1978,-6.1978,-6.1978,-6.1978,-6.1978,-6.1978,-6.1978,-6.1978,-6.1868,-6.1551,-5.9146,-5.7881,-5.7881,-5.7881,-5.7881,-5.7949,-6.0622,-6.1873,-4.1941,-4.2177,-4.203,-3.9345,-3.9385,-3.9024,-3.4929,-3.3738,-3.3405,-3.3233,0.0,0.0,0.0,0.0,0.0,0.0,-3.5602,-3.7051,-3.6218,-3.9152,-4.1977,-4.3515,-4.5019,-4.6142,-4.6757,-4.6613,-4.7446,-4.9727,-4.8098,-4.8424,-5.1611,-5.2118,-5.2733,-5.3675,-5.4037,-5.4581,-5.5341,-5.5377,-5.574,-5.65,-5.65,-5.6754,-5.7188,-5.7188,-5.7188,-5.7188,-5.7188,-5.7188,-5.7188,-5.7188,-5.7188,-5.7188,-5.7188,-5.8166,-5.9615,-5.9615,-6.0629,-6.1978,-6.1978,-6.1978,-6.1978,-6.1978,-6.1978,-6.1978,-6.1978,-6.1978,-6.1978,-6.1978,-6.1978,-6.1978,-6.1978,-6.1978,-6.1978,-6.1978,-6.1978,-6.1978,-6.1978,-6.1978,-6.1978,-6.1978,-6.1978,-6.1978,-6.1978,-6.1978,-6.1978,-6.1978,-6.1978,-6.1978,-6.1978,-6.1978,-6.1978,-6.1978,-6.1978,-6.1978,-6.1978,-6.1978,-6.1978,-6.1978,-6.1978,-6.1978,-6.1978,-6.1978,-6.1257,-5.9676,-5.8493,-5.7881,-5.7881,-5.7881,-5.8795,-6.052,-6.1806,-6.2381,-4.2648,-4.3121,-4.3359,-4.0268,-3.9523,-3.8779,-3.5948,-3.4455,-3.388,-3.4534,-3.3793,0.0,0.0,0.0,0.0,0.0,0.0,-3.4863,0.0,-3.5965,-3.8101,-3.9858,-4.118,-4.2484,-4.386,-4.3932,-4.491,-4.7409,-4.6106,-4.6794,-5.0452,-5.1067,-5.1828,-5.3023,-5.3277,-5.3856,-5.4907,-5.4907,-5.5377,-5.6319,-5.6319,-5.6609,-5.7188,-5.7188,-5.7188,-5.7188,-5.7188,-5.7188,-5.7188,-5.7188,-5.7188,-5.7188,-5.7188,-5.8166,-5.9615,-5.9615,-6.0629,-6.1978,-6.1978,-6.1978,-6.1978,-6.1978,-6.1978,-6.1978,-6.1978,-6.1978,-6.1978,-6.1978,-6.1978,-6.1978,-6.1978,-6.1978,-6.1978,-6.1978,-6.1978,-6.1978,-6.1978,-6.1978,-6.1978,-6.1978,-6.1978,-6.1978,-6.1978,-6.1978,-6.1978,-6.1978,-6.1978,-6.1978,-6.1978,-6.1978,-6.1978,-6.1978,-6.1978,-6.1978,-6.1978,-6.1978,-6.1978,-6.1978,-6.1978,-6.1978,-6.1978,-6.1978,-6.0717,-5.7954,-5.7881,-5.7881,-5.7881,-5.7881,-5.9438,-6.2381,-6.2381,-6.2381,-4.69,-4.6557,-4.545,-4.0773,-3.9557,-3.8436,-3.4491,-3.5327,-3.651,-3.493,-3.6399,-3.7502,0.0,0.0,0.0,0.0,0.0,0.0,0.0,0.0,-3.3321,-3.5695,-3.8065,-3.9804,-4.0583,-3.8608,-3.9241,-4.3896,-4.2774,-4.3949,-4.8728,-5.0452,-5.1321,-5.1357,-5.2118,-5.3313,-5.487,-5.4907,-5.5667,-5.7152,-5.7152,-5.7188,-5.7188,-5.7188,-5.7188,-5.7188,-5.7188,-5.7188,-5.7188,-5.7188,-5.7188,-5.7188,-5.7188,-5.8166,-5.9615,-5.9615,-6.0629,-6.1978,-6.1978,-6.1978,-6.1978,-6.1978,-6.1978,-6.1978,-6.1978,-6.1978,-6.1978,-6.1978,-6.1978,-6.1978,-6.1978,-6.1978,-6.1978,-6.1978,-6.1978,-6.1978,-6.1978,-6.1978,-6.1978,-6.1978,-6.1978,-6.1978,-6.1978,-6.1978,-6.1978,-6.1978,-6.1978,-6.1978,-6.1978,-6.1978,-6.1978,-6.1978,-6.1978,-6.1978,-6.1978,-6.1978,-6.1978,-6.1978,-6.1978,-6.1978,-6.1978,-6.1978,-6.0717,-5.7954,-5.7881,-5.7881,-5.7881,-5.7881,-5.9438,-6.2381,-6.2381,-6.2381,-4.7487,-4.8161,-4.7907,-4.3666,-4.2159,-4.0726,-3.6701,-3.6846,-3.7209,-3.5059,-3.6906,-3.8282,-3.6166,0.0,0.0,0.0,0.0,0.0,0.0,0.0,-3.1111,0.0,0.0,0.0,-3.66,-3.7305,-3.8862,-4.1542,-4.1705,-4.3551,-4.7859,-4.9619,-5.0995,-5.2045,-5.2371,-5.3277,-5.487,-5.4363,-5.487,-5.6391,-5.6391,-5.6681,-5.7188,-5.7188,-5.7188,-5.7188,-5.7188,-5.7188,-5.7188,-5.7188,-5.7188,-5.7188,-5.7188,-5.8166,-5.9615,-5.9615,-6.0629,-6.1978,-6.1978,-6.1978,-6.1978,-6.1978,-6.1978,-6.1978,-6.1978,-6.1978,-6.1978,-6.1978,-6.1978,-6.1978,-6.1978,-6.1978,-6.1978,-6.1978,-6.1978,-6.1978,-6.1978,-6.1978,-6.1978,-6.1978,-6.1978,-6.1978,-6.1978,-6.1978,-6.1978,-6.1978,-6.1978,-6.1978,-6.1978,-6.1978,-6.1978,-6.1978,-6.1978,-6.1978,-6.1978,-6.1978,-6.1978,-6.1978,-6.1978,-6.2955,-6.5084,-6.3287,-6.1834,-6.0897,-5.8896,-5.8863,-6.0858,-6.0858,-6.14,-6.2381,-6.2381,-6.2381,-4.8366,-4.9075,-4.9278,-4.5816,-4.4548,-4.3136,-3.9152,-3.9297,-3.9623,-3.7196,-3.8302,-3.9605,-3.926,0.0,0.0,0.0,0.0,0.0,0.0,-2.9857,0.0,0.0,0.0,0.0,0.0,-3.524,-3.687,-3.9876,-4.0311,-4.2339,-4.6613,-4.8894,-5.0583,-5.1611,-5.219,-5.3277,-5.487,-5.4399,-5.4907,-5.6428,-5.6428,-5.6681,-5.7188,-5.7188,-5.7188,-5.7188,-5.7188,-5.7188,-5.7188,-5.7188,-5.7188,-5.7188,-5.7188,-5.8166,-5.9615,-5.9615,-6.0629,-6.1978,-6.1978,-6.1978,-6.1978,-6.1978,-6.1978,-6.1978,-6.1978,-6.1978,-6.1978,-6.1978,-6.1978,-6.1978,-6.1978,-6.1978,-6.1978,-6.1978,-6.1978,-6.1978,-6.1978,-6.1978,-6.1978,-6.1978,-6.1978,-6.1978,-6.1978,-6.1978,-6.1978,-6.1978,-6.1978,-6.1978,-6.1978,-6.1978,-6.1978,-6.1978,-6.1978,-6.1978,-6.1978,-6.1978,-6.1978,-6.1978,-6.3064,-6.4649,-6.6714,-6.4974,-6.397,-6.397,-6.2057,-6.2023,-6.397,-6.397,-6.3422,-6.2381,-6.2381,-6.2381]},{"header":{"parameterUnit":"m.s-1","parameterCategory":1,"la1":30.6,"la2":29.2853,"lo1":-89.7004,"lo2":-87.6739,"dy":0.0162,"dx":0.0183,"nx":112,"ny":82,"refTime":"2026-05-23T00:00:00:Z","depth":0,"parameterNumber":3,"parameterNumberName":"V-component_of_WINDS"},"data":[0.0,0.0,0.0,0.0,0.0,0.0,0.0,0.0,0.0,0.0,0.0,0.0,0.0,0.0,0.0,0.0,0.0,0.0,0.0,0.0,0.0,0.0,0.0,0.0,0.0,0.0,0.0,0.0,0.0,0.0,0.0,0.0,0.0,0.0,0.0,0.0,0.0,0.0,0.0,0.0,0.0,0.0,0.0,0.0,0.0,0.0,0.0,0.0,0.0,0.0,0.0,0.0,0.0,0.0,0.0,0.0,0.0,0.0,0.0,0.0,0.0,0.0,0.0,0.0,0.0,0.0,0.0,0.0,0.0,0.0,0.0,0.0,0.0,0.0,0.0,0.0,0.0,0.0,0.0,0.0,0.0,0.0,0.0,0.0,0.0,0.0,0.0,0.0,0.0,0.0,1.377,1.4907,1.6433,1.7483,1.7867,1.6916,1.5379,1.3214,0.0,0.0,0.0,0.0,0.0,0.0,0.0,0.0,0.0,0.0,0.0,0.0,0.0,0.0,0.0,0.0,0.0,0.0,0.0,0.0,0.0,0.0,0.0,0.0,0.0,0.0,0.0,0.0,0.0,0.0,0.0,0.0,0.0,0.0,0.0,0.0,0.0,0.0,0.0,0.0,0.0,0.0,0.0,0.0,0.0,0.0,0.0,0.0,0.0,0.0,0.0,0.0,0.0,0.0,0.0,0.0,0.0,0.0,0.0,0.0,0.0,0.0,0.0,0.0,0.0,0.0,0.0,0.0,0.0,0.0,0.0,0.0,0.0,0.0,0.0,0.0,0.0,0.0,0.0,0.0,0.0,0.0,0.0,0.0,0.0,0.0,0.0,0.0,0.0,0.0,0.0,0.0,0.0,0.0,0.0,0.0,0.0,0.0,0.0,0.0,0.0,0.0,0.0,0.0,1.3857,1.6974,1.7574,1.7867,1.8203,1.6857,1.5248,1.3536,0.0,0.0,0.0,0.0,0.0,0.0,0.0,0.0,0.0,0.0,0.0,0.0,0.0,0.0,0.0,0.0,0.0,0.0,0.0,0.0,0.0,0.0,0.0,0.0,0.0,0.0,0.0,0.0,0.0,0.0,0.0,0.0,0.0,0.0,0.0,0.0,0.0,0.0,0.0,0.0,0.0,0.0,0.0,0.0,0.0,0.0,0.0,0.0,0.0,0.0,0.0,0.0,0.0,0.0,0.0,0.0,0.0,0.0,0.0,0.0,0.0,0.0,0.0,0.0,0.0,0.0,0.0,0.0,0.0,0.0,0.0,0.0,0.0,0.0,0.0,0.0,0.0,0.0,0.0,0.0,0.0,0.0,0.0,0.0,0.0,0.0,0.0,0.0,0.0,0.0,0.0,0.0,0.0,0.0,0.0,0.0,0.0,0.0,0.0,0.0,0.0,0.0,0.0,1.3426,1.4885,1.7779,1.8072,1.8145,1.8291,1.715,1.5584,1.3623,1.231,0.0,0.0,0.0,0.0,0.0,0.0,0.0,0.0,0.0,0.0,0.0,0.0,0.0,0.0,0.0,0.0,0.0,0.0,0.0,0.0,0.0,0.0,0.0,0.0,0.0,0.0,0.0,0.0,0.0,0.0,0.0,0.0,0.0,0.0,0.0,0.0,0.0,0.0,0.0,0.0,0.0,0.0,0.0,0.0,0.0,0.0,0.0,0.0,0.0,0.0,0.0,0.0,0.0,0.0,0.0,0.0,0.0,0.0,0.0,0.0,0.0,0.0,0.0,0.0,0.0,0.0,0.0,0.0,0.0,0.0,0.0,0.0,0.0,0.0,0.0,0.0,0.0,0.0,0.0,0.0,0.0,0.0,0.0,0.0,0.0,0.0,0.0,0.0,0.0,0.0,0.0,0.0,0.0,0.0,0.0,0.0,0.0,0.0,0.0,0.0,0.0,0.0,1.509,1.6184,1.8101,1.8364,1.8394,1.8306,1.7282,1.5773,1.3623,1.2164,0.0,0.0,0.0,0.0,0.0,0.0,0.0,0.0,0.0,0.0,0.0,0.0,0.0,0.0,0.0,0.0,0.0,0.0,0.0,0.0,0.0,0.0,0.0,0.0,0.0,0.0,0.0,0.0,0.0,0.0,0.0,0.0,0.0,0.0,0.0,0.0,0.0,0.0,0.0,0.0,0.0,0.0,0.0,0.0,0.0,0.0,0.0,0.0,0.0,0.0,0.0,0.0,0.0,0.0,0.0,0.0,0.0,0.0,0.0,0.0,0.0,0.0,0.0,0.0,0.0,0.0,0.0,0.0,0.0,0.0,0.0,0.0,0.0,0.0,0.0,0.0,0.0,0.0,0.0,0.0,0.0,0.0,0.0,0.0,0.0,0.0,0.0,0.0,0.0,0.0,0.0,0.0,0.0,0.0,0.0,0.0,0.0,0.0,0.0,0.0,0.0,0.0,1.5687,1.741,1.8218,1.8569,1.8628,1.8321,1.6872,1.5277,1.3594,1.1706,0.0,0.0,0.0,0.0,0.0,0.0,0.0,0.0,0.0,0.0,0.0,0.0,0.0,0.0,0.0,0.0,0.0,0.0,0.0,0.0,0.0,0.0,0.0,0.0,0.0,0.0,0.0,0.0,0.0,0.0,0.0,0.0,0.0,0.0,0.0,0.0,0.0,0.0,0.0,0.0,0.0,0.0,0.0,0.0,0.0,0.0,0.0,0.0,0.0,0.0,0.0,0.0,0.0,0.0,0.0,0.0,0.0,0.0,0.0,0.0,0.0,0.0,0.0,0.0,0.0,0.0,0.0,0.0,0.0,0.0,0.0,0.0,0.0,0.0,0.0,0.0,0.0,0.0,0.0,0.0,0.0,0.0,0.0,0.0,0.0,0.0,0.0,0.0,0.0,0.0,0.0,0.0,0.0,0.0,0.0,0.0,0.0,0.0,0.0,0.0,0.0,0.0,1.5643,1.7208,1.8467,1.8891,1.8877,1.835,1.7384,1.5848,1.3638,0.0,0.0,0.0,0.0,0.0,0.0,0.0,0.0,0.0,0.0,0.0,0.0,0.0,0.0,0.0,0.0,0.0,0.0,0.0,0.0,0.0,0.0,0.0,0.0,0.0,0.0,0.0,0.0,0.0,0.0,0.0,0.0,0.0,0.0,0.0,0.0,0.0,0.0,0.0,0.0,0.0,0.0,0.0,0.0,0.0,0.0,0.0,0.0,0.0,0.0,0.0,0.0,0.0,0.0,0.0,0.0,0.0,0.0,0.0,0.0,0.0,0.0,0.0,0.0,0.0,0.0,0.0,0.0,0.0,0.0,0.0,0.0,0.0,0.0,0.0,0.0,0.0,0.0,0.0,0.0,0.0,0.0,0.0,0.0,0.0,0.0,0.0,0.0,0.0,0.0,0.0,0.0,0.0,0.0,0.0,0.0,0.0,0.0,0.0,0.0,0.0,0.0,1.4218,1.5848,1.7326,1.8642,1.9081,1.9008,1.8364,1.7516,1.6009,1.3638,0.0,0.0,0.0,0.0,0.0,0.0,0.0,0.0,0.0,0.0,0.0,0.0,0.0,0.0,0.0,0.0,0.0,0.0,0.0,0.0,0.0,0.0,0.0,0.0,0.0,0.0,0.0,0.0,0.0,0.0,0.0,0.0,0.0,0.0,0.0,0.0,0.0,0.0,0.0,0.0,0.0,0.0,0.0,0.0,0.0,0.0,0.0,0.0,0.0,0.0,0.0,0.0,0.0,0.0,0.0,0.0,0.0,0.0,0.0,0.0,0.0,0.0,0.0,0.0,0.0,0.0,0.0,0.0,0.0,0.0,0.0,0.0,0.0,0.0,0.0,0.0,0.0,0.0,0.0,0.0,0.0,0.0,0.0,0.0,0.0,0.0,0.0,0.0,0.0,0.0,0.0,0.0,0.0,0.0,0.0,0.0,0.0,0.0,0.0,0.0,0.0,0.0,1.4306,1.6433,1.8072,1.873,1.9081,1.9008,1.8364,1.7121,1.5597,0.0,0.0,0.0,0.0,0.0,0.0,0.0,0.0,0.0,0.0,0.0,0.0,0.0,0.0,0.0,0.0,0.0,0.0,0.0,0.0,0.0,0.0,0.0,0.0,0.0,0.0,0.0,0.0,0.0,0.0,0.0,0.0,0.0,0.0,0.0,0.0,0.0,0.0,0.0,0.0,0.0,0.0,0.0,0.0,0.0,0.0,0.0,0.0,0.0,0.0,0.0,0.0,0.0,0.0,0.0,0.0,0.0,0.0,0.0,0.0,0.0,0.0,0.0,0.0,0.0,0.0,0.0,0.0,0.0,0.0,0.0,0.0,0.0,0.0,0.0,0.0,0.0,0.0,0.0,0.0,0.0,0.0,0.0,0.0,0.0,0.0,0.0,0.0,0.0,0.0,0.0,0.0,0.0,0.0,0.0,0.0,0.0,0.0,0.0,0.0,0.0,0.0,0.0,1.4911,1.6901,1.8408,1.9067,1.9213,1.9008,1.8364,1.753,1.6023,1.3638,0.0,0.0,0.0,0.0,0.0,0.0,0.0,0.0,0.0,0.0,0.0,0.0,0.0,0.0,0.0,0.0,0.0,0.0,0.0,0.0,0.0,0.0,0.0,0.0,0.0,0.0,0.0,0.0,0.0,0.0,0.0,0.0,0.0,0.0,0.0,0.0,0.0,0.0,0.0,0.0,0.0,0.0,0.0,0.0,0.0,0.0,0.0,0.0,0.0,0.0,0.0,0.0,0.0,0.0,0.0,0.0,0.0,0.0,0.0,0.0,0.0,0.0,0.0,0.0,0.0,0.0,0.0,0.0,0.0,0.0,0.0,0.0,0.0,0.0,0.0,0.0,0.0,0.0,0.0,0.0,0.0,0.0,0.0,0.0,0.0,0.0,0.0,0.0,0.0,0.0,0.0,0.0,0.0,0.0,0.0,0.0,0.0,0.0,0.0,0.0,0.0,0.0,1.5133,1.7106,1.8555,1.9213,1.9272,1.9067,1.854,1.7779,1.6345,1.4033,0.0,0.0,0.0,0.0,0.0,0.0,0.0,0.0,0.0,0.0,0.0,0.0,0.0,0.0,0.0,0.0,0.0,0.0,0.0,0.0,0.0,0.0,0.0,0.0,0.0,0.0,0.0,0.0,0.0,0.0,0.0,0.0,0.0,0.0,0.0,0.0,0.0,0.0,0.0,0.0,0.0,0.0,0.0,0.0,0.0,0.0,0.0,0.0,0.0,0.0,0.0,0.0,0.0,0.0,0.0,0.0,0.0,0.0,0.0,0.0,0.0,0.0,0.0,0.0,0.0,0.0,0.0,0.0,0.0,0.0,0.0,0.0,0.0,0.0,0.0,0.0,0.0,0.0,0.0,0.0,0.0,0.0,0.0,0.0,0.0,0.0,0.0,0.0,0.0,0.0,0.0,0.0,0.0,0.0,0.0,0.0,0.0,0.0,0.0,0.0,0.0,0.0,1.5148,1.7135,1.8584,1.9213,1.9272,1.914,1.8818,1.7925,1.655,1.4673,0.0,0.0,0.0,0.0,0.0,0.0,0.0,0.0,0.0,0.0,0.0,0.0,0.0,0.0,0.0,0.0,0.0,0.0,0.0,0.0,0.0,0.0,0.0,0.0,0.0,0.0,0.0,0.0,0.0,0.0,0.0,0.0,0.0,0.0,0.0,0.0,0.0,0.0,0.0,0.0,0.0,0.0,0.0,0.0,0.0,0.0,0.0,0.0,0.0,0.0,0.0,0.0,0.0,0.0,0.0,0.0,0.0,0.0,0.0,0.0,1.4575,1.3792,0.0,0.0,0.0,0.0,0.0,0.0,0.0,0.0,0.0,0.0,0.0,0.0,0.0,0.0,0.0,0.0,0.0,0.0,0.0,0.0,0.0,0.0,0.0,0.0,0.0,0.0,0.0,0.0,0.0,0.0,0.0,0.0,0.0,0.0,0.0,0.0,0.0,0.0,0.0,0.0,1.5206,1.734,1.8833,1.9242,1.9272,1.914,1.8818,1.813,1.6887,1.4915,1.3492,0.0,0.0,0.0,0.0,0.0,0.0,0.0,0.0,0.0,0.0,0.0,0.0,0.0,0.0,0.0,0.0,0.0,0.0,0.0,0.0,0.0,0.0,0.0,0.0,0.0,0.0,0.0,0.0,0.0,0.0,0.0,0.0,0.0,0.0,0.0,0.0,0.0,0.0,0.0,0.0,0.0,0.0,0.0,0.0,0.0,0.0,0.0,0.0,0.0,0.0,0.0,0.0,0.0,0.0,0.0,0.0,0.0,0.0,0.0,1.658,1.5744,0.0,0.0,0.0,0.0,0.0,0.0,0.0,0.0,0.0,0.0,0.0,0.0,0.0,0.0,0.0,0.0,0.0,0.0,0.0,0.0,0.0,0.0,0.0,0.0,0.0,0.0,0.0,0.0,0.0,0.0,0.0,0.0,0.0,0.0,0.0,0.0,0.0,0.0,0.0,0.0,1.5438,1.7355,1.8745,1.928,1.9272,1.9213,1.9038,1.8277,1.7194,1.5716,1.4121,0.0,0.0,0.0,0.0,0.0,0.0,0.0,0.0,0.0,0.0,0.0,0.0,0.0,0.0,0.0,0.0,0.0,0.0,0.0,0.0,0.0,0.0,0.0,0.0,0.0,0.0,0.0,0.0,0.0,0.0,0.0,0.0,0.0,0.0,0.0,0.0,0.0,0.0,0.0,0.0,0.0,0.0,0.0,0.0,0.0,0.0,0.0,0.0,0.0,0.0,0.0,0.0,0.0,1.8891,1.9257,1.9784,1.9784,1.9984,2.0145,1.8531,1.7896,1.7955,1.6579,0.0,0.0,0.0,0.0,0.0,0.0,0.0,0.0,0.0,0.0,0.0,0.0,0.0,0.0,0.0,0.0,0.0,0.0,0.0,0.0,0.0,0.0,1.5101,1.5265,1.6009,1.5935,1.3418,0.0,0.0,0.0,0.0,0.0,0.0,0.0,0.0,0.0,0.0,0.0,1.5745,1.7428,1.8686,1.9213,1.9272,1.9272,1.9272,1.8438,1.7516,1.6594,1.4838,1.3243,0.0,0.0,0.0,0.0,0.0,0.0,0.0,0.0,0.0,0.0,0.0,0.0,0.0,0.0,0.0,0.0,0.0,0.0,0.0,0.0,0.0,0.0,0.0,0.0,0.0,0.0,0.0,0.0,0.0,0.0,0.0,0.0,0.8379,0.8053,0.0,0.0,0.0,0.0,0.0,0.0,0.0,0.0,0.0,0.0,0.0,0.0,0.0,1.6284,1.7984,1.9418,2.0237,2.0413,2.1262,2.1715,2.1803,2.1803,2.1818,2.1847,2.1598,0.0,1.9038,1.8555,0.0,0.0,0.0,0.0,0.0,0.0,0.0,0.0,0.0,0.0,0.0,0.0,0.0,0.0,0.0,0.0,0.0,0.0,0.0,0.0,0.0,0.0,1.7311,1.7016,1.7326,1.7369,1.6463,1.494,1.3477,1.2375,1.1794,1.1224,0.0,0.0,0.0,0.0,0.0,0.0,1.6213,1.7969,1.9184,1.9272,1.9272,1.9272,1.9272,1.8642,1.794,1.7252,1.5878,1.4589,1.3287,1.2031,0.0,0.0,0.0,0.0,0.0,0.0,0.0,0.0,0.0,0.0,0.0,0.0,0.0,0.0,0.0,0.0,0.0,0.0,0.0,0.0,0.0,0.0,0.0,0.0,0.0,0.0,0.0,0.0,0.0,0.8062,0.8569,0.8322,0.8587,0.8698,0.0,0.0,0.0,0.0,0.0,0.0,0.0,0.0,0.0,1.4112,1.4997,1.6133,1.7598,1.9255,2.0247,2.0652,2.1853,2.252,2.271,2.271,2.271,2.271,2.271,2.2111,2.1072,2.0033,1.8964,1.7911,0.0,0.0,0.0,0.0,1.6666,1.6637,1.756,1.7647,1.7311,1.6901,0.0,0.0,0.0,0.0,0.0,0.0,0.0,1.56,1.6272,1.715,1.7867,1.8101,1.8394,1.8511,1.8091,1.7135,1.5906,1.417,1.3799,1.3243,1.1677,1.1706,0.0,0.0,0.0,1.5586,1.6769,1.813,1.9067,1.9257,1.9272,1.9199,1.9023,1.8569,1.8028,1.7323,1.6287,1.5277,1.4355,1.3067,1.1853,0.0,0.0,0.0,0.0,0.0,0.0,0.0,0.0,0.0,0.0,0.0,0.0,0.0,0.0,0.0,0.0,0.0,0.0,0.0,0.0,0.0,0.0,0.0,0.0,0.0,0.0,0.0,0.0,0.813,0.8539,0.8398,0.8869,0.8995,0.0,0.0,0.0,0.0,0.0,0.0,1.1045,1.1931,1.3047,1.4526,1.5198,1.6205,1.7446,1.8797,1.9801,2.0292,2.1749,2.2543,2.2835,2.3165,2.3354,2.3354,2.3267,2.3091,2.2754,2.132,2.0355,1.9696,1.8877,1.8364,1.8096,1.8716,1.8774,1.8716,1.9769,1.9872,1.9433,1.8862,1.8452,1.7911,1.6345,0.0,0.0,0.0,0.0,1.6857,1.7721,1.813,1.8452,1.9023,1.9286,1.9382,1.9096,1.8716,1.7882,1.5994,1.5703,1.5204,1.3309,1.3433,0.0,1.3755,1.4984,1.6272,1.7381,1.8364,1.9008,1.9257,1.9272,1.914,1.8818,1.8482,1.8057,1.7439,1.6535,1.576,1.5177,1.4033,1.2921,1.1987,0.0,0.0,0.0,0.0,0.0,0.0,0.0,0.0,0.0,0.0,0.0,0.0,0.0,0.0,0.0,0.0,0.0,0.0,0.0,0.0,0.0,0.0,0.0,0.0,0.0,0.0,0.0,0.0,0.0,0.7905,0.8444,0.0,0.0,0.0,0.0,0.8896,0.9572,1.032,1.1081,1.1873,1.3097,1.4911,1.5853,1.7033,1.8452,1.902,1.935,1.9386,2.1084,2.1949,2.2028,2.3428,2.4027,2.4013,2.3706,2.3559,2.3471,2.2491,2.1701,2.1072,2.072,2.0329,2.0081,2.0472,2.0589,2.0633,2.1013,2.072,2.0227,2.0852,2.0208,1.9125,1.8716,1.816,0.0,0.0,1.8408,1.8803,1.9514,1.9705,1.9755,2.0091,1.9945,1.9793,1.9764,1.9213,1.854,1.7808,1.7194,1.6609,1.5848,0.0,1.5745,1.576,1.6564,1.7472,1.816,1.8833,1.9257,1.9272,1.9272,1.914,1.8818,1.8482,1.816,1.7808,1.6872,1.6199,1.5877,1.4926,1.3931,1.295,1.1694,0.0,0.0,0.0,0.0,0.0,0.0,0.0,0.0,0.0,0.0,0.0,0.0,0.0,0.0,0.0,0.0,0.0,0.0,0.0,0.0,0.0,0.0,0.0,0.0,0.0,0.0,0.0,0.0,0.8792,0.9112,0.0,0.9047,0.9151,0.9362,0.9714,1.0302,1.0824,1.1313,1.2047,1.2812,1.376,1.4671,1.5435,1.6055,1.7466,1.8217,1.8217,1.9772,2.0948,2.1937,2.2411,2.321,2.4071,2.3954,2.391,2.3881,2.3545,2.2901,2.2096,2.1774,2.1584,2.1496,2.1613,2.1672,2.1686,2.1803,2.1686,2.1452,2.1276,2.075,2.015,1.9813,1.9512,1.9351,1.952,1.9638,1.9769,2.0003,2.0062,2.0091,2.0154,2.015,2.0062,2.0062,1.9725,1.9345,1.9111,1.8379,1.7516,1.6712,1.6857,1.6989,1.6579,1.734,1.8116,1.8555,1.8994,1.9272,1.9272,1.9272,1.9052,1.8525,1.8364,1.7984,1.7284,1.6712,1.6228,1.5921,1.5174,1.4414,1.3653,1.2775,1.1385,0.0,0.0,0.0,0.0,0.0,0.0,0.0,0.0,0.0,0.0,0.0,0.0,0.0,0.0,0.0,0.0,0.0,0.0,0.0,0.0,0.0,0.0,0.0,0.0,0.0,0.8546,0.9167,0.9413,0.9876,1.0119,0.9989,1.0095,1.029,1.059,1.1053,1.1484,1.1841,1.2395,1.2885,1.3257,1.3976,1.4476,1.4809,1.6147,1.6868,1.7062,1.8575,1.976,2.0759,2.1229,2.2245,2.3653,2.3553,2.3839,2.4232,2.413,2.3706,2.3091,2.2784,2.2593,2.2491,2.2491,2.2491,2.2476,2.2374,2.233,2.2242,2.1715,2.1393,2.1174,2.0955,2.0823,2.072,2.072,2.0591,2.0559,2.0559,2.0559,2.0559,2.0559,2.0431,2.0343,2.0343,2.015,1.9886,1.9837,1.9155,1.8394,1.768,1.7955,1.813,1.7636,1.8145,1.8701,1.8921,1.914,1.9272,1.9272,1.9272,1.9008,1.8364,1.8203,1.7765,1.6961,1.6492,1.6082,1.576,1.5192,1.455,1.3828,1.2965,1.1677,0.9938,0.0,0.0,0.0,0.0,0.0,0.0,0.0,0.0,0.0,0.0,0.0,0.0,0.0,0.0,0.0,0.0,0.0,0.0,0.0,0.0,0.0,0.0,0.0,0.8418,0.9234,0.9851,0.9705,1.0599,1.0964,1.0343,1.085,1.1321,1.1508,1.1849,1.2199,1.2612,1.2895,1.3265,1.3553,1.3981,1.4481,1.501,1.522,1.5529,1.5946,1.7537,1.8342,1.8482,1.9912,2.1433,2.2806,2.2593,2.3289,2.4554,2.4247,2.4101,2.4071,2.372,2.3398,2.312,2.3106,2.3106,2.3062,2.2754,2.2637,2.2593,2.2286,2.2198,2.2198,2.2184,2.1964,2.1715,2.1701,2.1467,2.1218,2.1218,2.1203,2.1203,2.1203,2.0969,2.0735,2.0735,2.0431,2.0164,1.9857,1.9573,1.9184,1.8862,1.9067,1.9169,1.8847,1.9067,0.0,1.9272,1.9272,1.9324,1.9257,1.9257,1.8994,1.8335,1.7984,1.753,1.6917,1.6257,1.576,1.5396,1.5075,1.4462,1.355,1.2281,1.1313,1.0653,0.0,0.0,0.0,0.0,0.0,0.0,0.0,0.0,0.0,0.0,0.0,0.0,0.0,0.0,0.0,0.0,0.0,0.0,0.0,0.0,0.0,0.8896,0.9449,0.9259,0.9851,1.0461,1.0932,1.124,1.15,1.1695,1.1776,1.1882,1.2069,1.2288,1.2458,1.2556,1.2939,1.3128,1.3226,1.3831,1.4406,1.4882,1.5289,1.5741,1.6093,1.6574,1.7369,1.8482,1.9912,2.1433,2.2887,2.3922,2.4569,2.4987,2.4899,2.4657,2.4379,2.3823,2.3545,2.3427,2.3193,2.3106,2.3091,2.3003,2.2974,2.2915,2.2608,2.2506,2.2462,2.2242,2.2125,2.1993,2.1759,2.1628,2.1511,2.1276,2.1203,2.1203,2.1203,2.1145,2.1072,2.1072,2.0823,2.0559,2.0472,2.0003,1.9573,1.9199,1.9213,1.9294,1.9155,1.9213,1.9272,1.9272,1.9272,1.9184,1.895,1.8921,1.8657,1.7999,1.7647,1.7179,1.6595,1.5906,1.5484,1.5396,1.5075,1.4706,1.4247,1.2921,1.2175,0.0,0.0,0.0,0.0,0.0,0.0,0.0,0.0,0.0,0.0,0.0,0.0,0.0,0.0,0.0,0.0,0.0,0.0,0.0,0.0,0.0,0.0,0.9543,1.0152,1.0379,1.068,1.1062,1.1557,1.1744,1.1963,1.228,1.2272,1.2296,1.2402,1.258,1.2678,1.2678,1.2946,1.3133,1.3206,1.3697,1.4159,1.4666,1.5124,1.5541,1.5966,1.6108,1.6673,1.7499,1.8401,1.9576,2.1032,2.2545,2.3584,2.421,2.4849,2.5017,2.4701,0.0,0.0,0.0,0.0,2.3106,2.3106,2.3106,2.3106,2.3076,2.2886,2.2828,2.2798,2.2623,2.2476,2.233,2.214,2.1891,2.1657,2.1467,2.1306,2.1203,2.1203,2.1203,2.1203,2.1203,2.1057,2.0881,2.075,2.0311,0.0,1.9535,1.936,1.9272,1.9272,1.9272,1.9272,1.9272,1.9272,1.925,1.9008,1.8994,1.873,1.8072,1.7721,0.0,0.0,0.0,1.5469,1.5192,1.4739,0.0,0.0,0.0,0.0,0.0,0.0,0.0,0.0,1.2028,1.1955,0.0,0.0,0.0,0.0,0.0,0.0,0.0,0.0,0.0,0.0,0.0,0.0,0.0,0.0,0.0,0.0,1.0278,1.0908,1.1484,1.1541,1.1598,1.1784,1.2101,1.2312,1.2337,1.2491,1.2596,1.2596,1.2743,1.2782,1.2798,1.3035,0.0,0.0,0.0,1.3961,1.4546,1.4839,1.5186,1.5673,1.6037,1.6178,1.6178,1.6391,1.7228,1.8751,2.019,2.1709,2.3174,2.4563,2.5105,2.5002,2.432,2.3881,2.3559,2.3223,2.3106,2.3106,2.3106,0.0,0.0,2.3106,2.3106,2.3106,2.3106,2.2901,2.2667,2.2637,2.2198,2.1745,2.1701,2.1452,2.1203,2.1203,2.1203,2.1203,2.1203,2.1203,2.113,2.0837,2.0486,2.015,1.9872,1.952,1.9272,1.9272,1.9272,1.9272,1.9272,1.9272,1.9257,1.928,1.9184,0.0,1.8291,1.7911,1.734,1.6521,1.614,1.5644,1.5031,1.4531,1.4501,1.5002,1.4779,1.4911,1.544,1.544,1.5455,1.544,1.3353,1.3003,0.0,0.0,0.0,0.0,0.0,0.0,0.0,0.0,0.0,0.0,0.0,0.0,0.0,0.0,0.0,1.0302,1.0747,1.1181,1.1813,1.1809,1.1784,1.1963,1.2174,1.2361,1.2499,1.2678,1.2783,1.2783,1.2816,1.2897,1.3035,1.3214,1.3401,1.3587,1.3758,1.4156,1.491,1.4981,1.5337,1.6108,1.6178,0.0,1.6249,1.7439,1.8751,2.0259,2.1709,2.3243,2.4699,2.4984,2.4973,2.4627,2.4232,2.3881,2.3559,2.3223,2.3106,2.3106,2.3106,2.3106,2.3106,2.3106,2.3106,2.3106,2.3106,2.3062,0.0,2.2696,2.2359,2.2023,2.1759,2.1452,2.1203,2.1203,2.1203,2.1203,2.1203,2.1203,2.1189,2.113,2.0633,2.0168,2.015,1.9667,1.9272,1.9272,1.9272,1.9272,1.9272,1.9272,1.9169,1.8906,1.8642,1.8335,1.794,1.7369,1.7005,1.6815,1.6507,1.6111,1.5703,1.5848,1.5848,1.5731,1.5672,1.5701,1.5776,1.5776,1.595,1.617,1.5218,1.4871,0.0,0.0,0.0,0.0,0.0,0.0,0.0,0.0,0.0,0.0,0.0,0.7893,0.8467,0.0,0.9815,1.0397,1.0988,1.1455,1.1622,1.1776,1.1971,1.215,1.2247,1.241,1.2678,1.2783,1.2774,1.2774,1.2774,1.2807,1.2962,1.3222,1.3368,1.3368,1.3717,1.414,1.4613,1.4858,1.5328,1.5895,1.6108,1.6178,1.6249,1.6946,1.8131,1.9576,2.1089,2.2545,2.4006,2.4781,2.4929,2.454,2.4203,2.3881,2.3559,2.3223,2.3106,2.3106,2.3106,2.3106,2.3106,2.3106,2.3106,2.3106,2.3106,2.3106,2.3076,2.2915,2.2637,2.233,2.2023,2.1701,2.1408,2.1247,2.1203,2.1203,2.1203,2.1203,2.1203,2.1203,2.0676,2.0183,2.0183,1.9711,1.9272,1.9272,1.9272,1.9272,1.9272,1.9272,1.9213,1.9052,1.8891,1.8584,1.8101,1.7326,1.6903,1.6903,1.6595,1.6345,1.6155,1.6331,1.6419,1.6389,1.6389,1.6462,1.6623,1.6623,1.6696,1.6843,1.6521,1.6301,0.0,0.0,0.0,0.0,0.0,0.0,0.0,0.6947,0.721,0.7942,0.8295,0.8617,0.9145,0.9768,1.0217,1.0466,1.1157,1.1655,1.1445,1.1723,1.2052,1.2231,1.2288,1.2434,1.2751,1.275,1.2774,1.2774,1.2774,1.2848,1.2881,1.3157,1.3279,1.3206,1.3628,1.4011,1.4246,1.4752,1.5186,1.5603,1.6037,1.6178,1.6178,1.6532,1.7429,1.896,2.0674,2.2121,2.3311,2.4563,2.4973,2.4627,2.4232,2.3925,2.3647,2.3252,2.3106,2.3106,2.3106,2.3106,2.3106,2.3106,2.3106,2.3106,2.3106,2.3106,2.3106,2.3106,2.2871,2.255,2.2257,2.1935,2.1613,2.1291,2.1203,2.1203,2.1203,2.1203,2.1203,2.1203,2.0676,2.0183,2.0183,1.9711,1.9272,1.9272,1.9272,1.9272,1.9272,1.9272,1.9272,1.9272,1.9213,1.8921,1.8262,1.7428,1.6991,1.6991,1.6696,1.655,1.655,1.655,1.6682,1.6991,1.6991,1.7077,1.7279,1.7279,1.7279,1.7279,1.7279,1.7194,0.7318,0.701,0.6633,0.6668,0.6659,0.6821,0.0,0.7953,0.8245,0.8973,0.9034,0.9077,0.9685,0.9928,1.0258,1.1069,1.1306,1.1513,1.1856,1.189,1.1866,1.2044,1.2207,1.2385,1.2572,1.2743,1.2774,1.2774,1.2774,1.2905,1.3059,1.31,1.3262,1.3571,1.3574,1.3883,1.4441,1.4822,1.5186,1.5603,1.6037,1.6178,1.6249,1.758,1.896,2.0536,2.3379,2.4713,2.4849,2.5052,2.5105,2.5002,2.432,2.4057,2.3954,2.334,2.3106,2.3106,2.3106,2.3106,2.3106,2.3106,2.3106,2.3106,2.3106,2.3106,2.3106,2.3106,2.2871,2.255,2.2257,2.1935,2.1613,2.1291,2.1203,2.1203,2.1203,2.1203,2.1203,2.1203,2.0676,2.0183,2.0183,1.9711,1.9272,1.9272,1.9272,1.9272,1.9272,1.9272,1.9272,1.9272,1.9023,1.8584,1.7925,1.7501,1.7282,1.7282,1.7238,1.7223,1.7223,1.7223,1.7238,1.7267,1.7282,1.7296,1.7279,1.7279,1.7279,1.7279,1.7279,1.7264,0.7795,0.7413,0.7016,0.6949,0.7364,0.7852,0.8026,0.8417,0.8929,0.9447,0.9405,0.9488,1.0254,1.0277,1.033,1.0906,1.1156,1.1361,1.1553,1.1696,1.176,1.1727,1.1971,1.2255,1.2604,1.2629,1.2718,1.2766,1.2774,1.2873,1.2938,1.3043,1.3165,1.3319,1.353,1.3817,1.4305,1.4778,1.5186,1.5603,1.6037,1.6673,1.751,1.8131,1.9646,2.1984,2.4142,2.5119,2.5119,2.5119,2.5017,2.4811,2.4466,2.413,2.3735,2.3281,2.3106,2.3106,2.3106,2.3106,2.3106,2.3106,2.3106,2.3106,2.3106,2.3106,2.3106,2.3106,2.3018,2.2798,2.2315,2.2081,2.1847,2.1335,2.1203,2.1203,2.1203,2.1203,2.1203,2.1203,2.0676,2.0183,2.0183,1.9711,1.9272,1.9272,1.9272,1.9272,1.9272,1.9272,1.9272,1.9272,1.8979,1.8686,1.8408,1.7911,1.7691,1.7882,1.7721,1.7691,1.7882,1.7896,1.7896,1.7896,1.7896,1.7896,1.7896,1.7896,1.7896,1.7896,1.7896,1.7896,0.7788,0.7541,0.7345,0.7295,0.8012,0.8663,0.8507,0.8886,0.933,0.9678,0.9502,0.9592,1.0387,1.0348,1.0396,1.0793,1.1147,1.1343,1.145,1.1607,1.1654,1.1516,1.1727,1.2004,1.2384,1.2475,1.2621,1.2751,1.2808,1.2774,1.2774,1.2954,1.3068,1.3165,1.3425,1.3751,1.4123,1.469,1.5115,1.547,1.6381,1.7369,1.8412,1.9239,2.1032,2.3515,2.4631,2.5119,2.5119,2.5119,2.4987,2.4767,2.4679,2.4276,2.3823,2.3501,2.3267,2.3106,2.3106,2.3106,2.3106,2.3106,2.3106,2.3106,2.3106,2.3106,2.3106,2.3106,2.3106,2.2988,2.2447,2.2242,2.2037,2.1481,2.1276,2.1203,2.1203,2.1203,2.1203,2.1203,2.0676,2.0183,2.0183,1.9711,1.9272,1.9272,1.9272,1.9272,1.9272,1.9272,1.9272,1.9272,1.8979,1.8789,1.8789,1.8277,1.8057,1.8291,1.8072,1.8057,1.8291,1.8306,1.8306,1.8306,1.8306,1.8306,1.8306,1.8306,1.8306,1.8306,1.8306,1.8306,0.6918,0.7027,0.7282,0.7676,0.8235,0.8794,0.9257,0.9387,0.9464,0.9746,0.9313,0.9147,0.9871,1.0062,1.0281,1.0922,1.1272,1.1565,1.1752,1.1622,1.1508,1.15,1.1508,1.1589,1.1784,1.2264,1.2628,1.2637,1.2735,1.2774,1.2774,1.284,1.3003,1.3352,1.3376,1.3547,1.3888,1.4617,1.4981,1.5052,1.7288,1.8342,1.8482,2.1377,2.3515,2.5052,2.5052,2.5119,2.5119,2.5119,2.5119,2.5075,2.4753,2.4554,2.4496,2.4174,2.3647,2.3106,2.3106,2.3106,2.3106,2.3106,2.3106,2.3106,2.3106,2.3106,2.3106,2.3106,2.3106,2.3032,2.2696,2.2403,2.2096,2.1759,2.1437,2.1203,2.1203,2.1203,2.1203,2.1203,2.0676,2.0183,2.0183,1.9711,1.9272,1.9272,1.9272,1.9272,1.9272,1.9272,1.9272,1.9272,1.8979,1.8789,1.8789,1.8482,1.8291,1.8306,1.8291,1.8291,1.8306,1.8306,1.8306,1.8306,1.8306,1.8306,1.8306,1.8306,1.8306,1.8306,1.8306,1.8306,0.7295,0.7531,0.7784,0.825,0.8721,0.9051,0.9154,0.928,0.9402,0.9403,0.8972,0.8897,0.9806,0.9734,0.9876,1.0952,1.1126,1.1328,1.1752,1.1719,1.1589,1.1346,1.1533,1.1614,1.1427,1.1898,1.2304,1.2612,1.2621,1.271,1.2832,1.2946,1.3116,1.336,1.349,1.3809,1.4261,1.4759,1.5115,1.5399,1.846,2.0397,2.1377,2.3379,2.4631,2.5119,2.5119,2.5119,2.5119,2.5119,2.5119,2.5119,2.5002,2.4826,2.4554,2.4452,2.3998,2.3427,2.3427,2.3296,2.3106,2.3106,2.3106,2.3106,2.3106,2.3106,2.3106,2.3106,2.3106,2.3032,2.271,2.2403,2.2096,2.1774,2.1452,2.1203,2.1203,2.1203,2.1203,2.1203,2.0852,2.0431,2.0212,1.9886,1.9573,1.9301,1.9272,1.9272,1.9272,1.9272,1.9272,1.9272,1.9184,1.9111,1.9111,1.8818,1.8716,1.8935,1.8745,1.873,1.8935,1.895,1.895,1.895,1.895,1.895,1.895,1.895,1.895,1.895,1.895,1.895,0.7688,0.7874,0.8105,0.872,0.8938,0.9033,0.914,0.9164,0.9124,0.8913,0.8633,0.866,0.9436,0.9302,0.9504,1.0731,1.0923,1.1089,1.163,1.1679,1.1589,1.1354,1.1533,1.1614,1.1435,1.1736,1.2085,1.2442,1.2588,1.271,1.2832,1.2938,1.3116,1.336,1.3482,1.3871,1.4474,1.4839,1.5541,1.6654,1.9286,2.1365,2.2819,2.4428,2.5119,2.5119,2.5119,2.5119,2.5119,2.5119,2.5119,2.5119,2.5119,2.4987,2.4811,2.4811,2.4408,2.391,2.3676,2.3384,2.3106,2.3106,2.3106,2.3106,2.3106,2.3106,2.3106,2.3106,2.3106,2.3062,2.2842,2.2491,2.2125,2.192,2.1525,2.1203,2.1203,2.1203,2.1203,2.1203,2.094,2.0662,2.0442,2.0047,1.9705,1.933,1.9272,1.9272,1.9272,1.9272,1.9272,1.9272,1.9272,1.9272,1.9272,1.9081,1.9052,1.9257,1.9081,1.9052,1.9272,1.9272,1.9272,1.9272,1.9272,1.9272,1.9272,1.9272,1.9272,1.9272,1.9272,1.9272,0.8006,0.8055,0.8231,0.8987,0.8939,0.8777,0.9086,0.8911,0.8601,0.8296,0.8249,0.8364,0.8652,0.8792,0.9215,1.0229,1.0566,1.0891,1.1427,1.1508,1.1516,1.1516,1.1524,1.1598,1.1776,1.1809,1.1955,1.2296,1.2621,1.275,1.2774,1.279,1.3019,1.336,1.3384,1.3772,1.4546,1.491,1.6169,1.8412,1.9912,2.1365,2.2819,2.4428,2.5119,2.5119,2.5119,2.5119,2.5119,2.5119,2.5119,2.5119,2.5119,2.5119,2.5119,2.5119,2.4899,2.4466,2.3852,2.3427,2.3135,2.312,2.3106,2.3106,2.3106,2.3106,2.3106,2.3106,2.3106,2.3106,2.3106,2.2652,2.2184,2.2184,2.1686,2.1203,2.1203,2.1203,2.1203,2.1203,2.094,2.072,2.0706,2.0179,1.9705,1.933,1.9272,1.9272,1.9272,1.9272,1.9272,1.9272,1.9272,1.9272,1.9272,1.9272,1.9272,1.9272,1.9272,1.9272,1.9272,1.9272,1.9272,1.9272,1.9272,1.9272,1.9272,1.9272,1.9272,1.9272,1.9272,1.9272,0.818,0.8395,0.8594,0.8879,0.8934,0.8852,0.8845,0.8593,0.8269,0.7855,0.7607,0.7524,0.7716,0.823,0.8871,0.9688,1.0436,1.1037,1.1443,1.1622,1.1703,1.1703,1.1817,1.1914,1.1963,1.2207,1.2402,1.2491,1.2458,1.2556,1.2824,1.3092,1.3279,1.3368,1.3628,1.4098,1.483,1.5541,1.6593,1.797,1.9773,2.1365,2.2819,2.4428,2.5119,2.5119,2.5119,2.5119,2.5119,2.5119,2.5119,2.5119,2.5119,2.5119,2.5119,2.5119,2.4767,2.4218,2.4291,2.3954,2.3427,2.3179,2.3106,2.3106,2.3106,2.3106,2.3106,2.3106,2.3106,2.3106,2.3106,2.2652,2.2184,2.2184,2.1686,2.1203,2.1203,2.1203,2.1203,2.1203,2.094,2.0647,2.0343,2.0033,1.9705,1.933,1.9272,1.9272,1.9272,1.9272,1.9272,1.9272,1.9272,1.9272,1.9272,1.9272,1.9272,1.9272,1.9272,1.9272,1.9272,1.9272,1.9272,1.9272,1.9272,1.9272,1.9272,1.9272,1.9272,1.9272,1.9272,1.9272,0.8388,0.8635,0.8832,0.8865,0.8831,0.8743,0.8397,0.814,0.7842,0.7231,0.7056,0.7012,0.6976,0.7684,0.8472,0.9052,1.0043,1.0883,1.1313,1.1606,1.1801,1.1874,1.1971,1.2093,1.2247,1.2377,1.2515,1.267,1.2596,1.2661,1.2938,1.3141,1.3327,1.349,1.3825,1.4461,1.5257,1.5683,1.6664,1.8051,1.9773,2.1365,2.2819,2.4428,2.5119,2.5119,2.5119,2.5119,2.5119,2.5119,2.5119,2.5119,2.5119,2.5119,2.5119,2.5119,2.4899,2.451,2.4554,2.4335,2.394,2.3471,2.3223,2.3106,2.3106,2.3106,2.3106,2.3106,2.3106,2.3106,2.3106,2.274,2.2345,2.2213,2.1789,2.1379,2.1247,2.1203,2.1203,2.1203,2.1057,2.0837,2.0446,2.0296,2.0033,1.9617,1.9544,1.9485,1.9301,1.9272,1.9272,1.9272,1.9272,1.9272,1.9272,1.9272,1.9272,1.9272,1.9272,1.9272,1.9272,1.9272,1.9272,1.9272,1.9272,1.9272,1.9272,1.9272,1.9272,1.9272,1.9272,1.9272,0.8621,0.8838,0.8878,0.8858,0.8791,0.852,0.7972,0.7624,0.7282,0.6606,0.6563,0.6589,0.6371,0.7194,0.8064,0.852,0.9581,1.0566,1.1143,1.1524,1.1817,1.2044,1.2069,1.2207,1.2564,1.2467,1.2507,1.275,1.2774,1.2913,1.3084,1.3116,1.3303,1.3598,1.4019,1.4657,1.5461,1.5532,1.6513,1.8342,1.9843,2.1365,2.2819,2.4428,2.5119,2.5119,2.5119,2.5119,2.5119,2.5119,2.5119,2.5119,2.5119,2.5119,2.5119,2.5119,2.509,2.5031,2.4782,2.4583,2.4408,2.3793,2.3398,2.3164,2.312,2.3106,2.3106,2.3106,2.3106,2.3106,2.3106,2.2871,2.255,2.2257,2.1935,2.1613,2.1276,2.1203,2.1203,2.1203,2.1203,2.1101,2.0779,2.072,2.0516,1.9916,1.9837,1.972,1.9374,1.9301,1.9272,1.9272,1.9272,1.9272,1.9272,1.9272,1.9272,1.9272,1.9272,1.9272,1.9272,1.9272,1.9272,1.9272,1.9272,1.9272,1.9272,1.9272,1.9272,1.9272,1.9272,1.9272,0.8811,0.8865,0.8851,0.8784,0.8635,0.8415,0.7959,0.7365,0.675,0.6418,0.6065,0.5836,0.5979,0.6738,0.7595,0.8479,0.938,1.0274,1.1102,1.1411,1.1727,1.2199,1.2255,1.2402,1.2751,1.2759,1.2767,1.2832,1.2774,1.2913,1.3084,1.3238,1.349,1.3847,1.4211,1.4512,1.4688,1.5319,1.6372,1.79,1.9773,2.1365,2.2819,2.4428,2.5119,2.5119,2.5119,2.5119,2.5119,2.5119,2.5119,2.5119,2.5119,2.5119,2.5119,2.5119,2.4958,2.4753,2.4973,2.4613,2.4101,2.372,2.3559,2.3457,2.3193,2.3106,2.3106,2.3106,2.3106,2.3106,2.3106,2.2871,2.255,2.2257,2.1935,2.1613,2.1276,2.1203,2.1203,2.1203,2.1203,2.1101,2.0779,2.072,2.0589,2.0208,1.993,1.9793,1.9735,1.95,1.9272,1.9272,1.9272,1.9272,1.9272,1.9272,1.9272,1.9272,1.9272,1.9272,1.9272,1.9272,1.9272,1.9272,1.9272,1.9272,1.9272,1.9272,1.9272,1.9272,1.9272,1.9272,0.8757,0.8824,0.8844,0.875,0.854,0.8204,0.7455,0.6874,0.6349,0.5792,0.5588,0.5494,0.547,0.6373,0.7253,0.7701,0.8645,0.9681,1.0672,1.0964,1.1386,1.2207,1.2304,1.245,1.2734,1.2774,1.2774,1.2774,1.2774,1.2954,1.3222,1.3498,1.3796,1.4181,1.4403,1.4688,1.5044,1.616,1.763,1.9298,2.0951,2.2545,2.4006,2.4766,2.5119,2.5119,2.5119,2.5119,2.5119,2.5119,2.5119,2.5119,2.5119,2.5119,2.5119,2.5119,2.5031,2.4914,2.5075,2.4914,2.451,2.4013,2.3735,2.3574,2.3413,2.3237,2.3106,2.3106,2.3106,2.3106,2.3106,2.2988,2.2798,2.2491,2.2037,2.1613,2.1276,2.1203,2.1203,2.1203,2.1203,2.1159,2.0998,2.0969,2.0867,2.0489,2.0355,2.0208,2.0033,1.9725,1.9514,1.9338,1.9272,1.9272,1.9272,1.9272,1.9272,1.9272,1.9272,1.9272,1.9272,1.9272,1.9272,1.9272,1.9272,1.9412,1.9573,1.9573,1.9608,1.9769,1.9769,1.9769,0.8662,0.8825,0.8838,0.871,0.8418,0.7951,0.6927,0.6416,0.5956,0.5306,0.5232,0.5284,0.5226,0.6061,0.6846,0.7064,0.7966,0.9056,1.0209,1.0558,1.107,1.2077,1.2264,1.2434,1.2751,1.275,1.2774,1.2774,1.2873,1.3035,1.3352,1.3709,1.4047,1.4332,1.4474,1.483,1.5461,1.6997,1.874,2.0617,2.2134,2.3584,2.5119,2.5119,2.5119,2.5119,2.5119,2.5119,2.5119,2.5119,2.5119,2.5119,2.5119,2.5119,2.5119,2.5119,2.5119,2.5119,2.5119,2.5075,2.4929,2.4349,2.3969,2.3676,2.353,2.331,2.3106,2.3106,2.3106,2.3106,2.3106,2.3106,2.3018,2.2623,2.2111,2.1613,2.1276,2.1203,2.1203,2.1203,2.1203,2.1203,2.1203,2.1203,2.113,2.0867,2.0764,2.0577,2.0314,2.0062,1.9769,1.9506,1.9418,1.9441,1.9441,1.9441,1.9397,1.9286,1.9272,1.9272,1.9272,1.9272,1.9301,1.9426,1.9441,1.9588,1.9872,1.9872,1.9989,2.0183,2.0183,2.0183,0.8635,0.8825,0.8811,0.8574,0.8174,0.7665,0.6874,0.617,0.5602,0.5426,0.5159,0.5063,0.5478,0.5807,0.631,0.7293,0.7813,0.8576,1.0041,1.0477,1.0972,1.1736,1.2109,1.2385,1.2572,1.2743,1.2774,1.2774,1.2986,1.3157,1.336,1.3709,1.3904,1.3975,1.4332,1.4688,1.5052,1.6856,1.8729,2.0605,2.2121,2.3584,2.5119,2.5119,2.5119,2.5119,2.5119,2.5119,2.5119,2.5119,2.5119,2.5119,2.5119,2.5119,2.5119,2.5119,2.5119,2.5119,2.5119,2.4929,2.4679,2.454,2.4305,2.3925,2.3325,2.3135,2.3106,2.3106,2.3106,2.3106,2.3106,2.3106,2.2959,2.2359,2.195,2.1613,2.1276,2.1203,2.1203,2.1203,2.1203,2.1203,2.1203,2.1203,2.1203,2.1174,2.0911,2.0706,2.0676,2.0398,2.0124,2.0095,1.9886,1.9764,1.9764,1.9764,1.9647,1.9301,1.9272,1.9272,1.9272,1.9272,1.947,1.9764,1.9764,1.9872,2.0139,2.0139,2.0154,2.0183,2.0183,2.0183,0.8492,0.875,0.8811,0.856,0.814,0.7603,0.6769,0.6059,0.5526,0.5281,0.506,0.5002,0.5358,0.5575,0.5929,0.6604,0.6887,0.7521,0.8844,0.934,0.9998,1.1151,1.1703,1.2142,1.2588,1.2726,1.2774,1.2774,1.2994,1.3173,1.336,1.3612,1.3869,1.4261,1.4617,1.539,1.6644,1.8519,2.0328,2.1915,2.3447,2.4495,2.5119,2.5119,2.5119,2.5119,2.4914,2.4943,2.5105,2.4914,2.4943,2.5119,2.5119,2.5119,2.5119,2.5119,2.5119,2.5119,2.5119,2.4914,2.454,2.4335,2.4057,2.3735,2.3486,2.3267,2.3106,2.3106,2.3106,2.3106,2.3106,2.3106,2.2959,2.233,2.2081,2.1847,2.132,2.1203,2.1203,2.1203,2.1203,2.1203,2.1203,2.1203,2.1203,2.1203,2.1101,2.1013,2.1013,2.0735,2.0603,2.0794,2.0355,2.0047,2.0047,1.9872,1.9784,1.9842,1.9681,1.9652,1.9842,1.9857,1.9916,2.0047,2.0047,2.0208,2.0475,2.0475,2.0577,2.0823,2.0823,2.0823,0.8201,0.854,0.873,0.8425,0.8011,0.7467,0.6615,0.5985,0.5522,0.5182,0.5014,0.5042,0.527,0.547,0.5726,0.6154,0.6424,0.7001,0.8203,0.8723,0.9437,1.0664,1.1289,1.1801,1.2351,1.2637,1.2774,1.2774,1.2946,1.31,1.3279,1.3535,1.3949,1.4474,1.5248,1.6372,1.776,2.0108,2.1777,2.2819,2.436,2.5119,2.5119,2.5119,2.5119,2.5105,2.4782,2.4826,2.5105,2.4767,2.4826,2.5119,2.5119,2.5119,2.5119,2.5119,2.5119,2.5119,2.5119,2.4914,2.451,2.4188,2.3866,2.3574,2.3486,2.3296,2.3106,2.3106,2.3106,2.3106,2.3106,2.3106,2.2974,2.2432,2.2242,2.2023,2.1467,2.1276,2.1203,2.1203,2.1203,2.1203,2.1203,2.1203,2.1203,2.1203,2.1203,2.1203,2.1203,2.1013,2.0955,2.1189,2.0794,2.0486,2.0329,2.0179,2.0106,2.0168,2.0033,2.0003,2.0168,2.0183,2.0227,2.0329,2.0329,2.0489,2.0867,2.0867,2.0984,2.1203,2.1203,2.1203,0.774,0.8147,0.8418,0.8069,0.7706,0.7231,0.6479,0.5937,0.5517,0.5159,0.5097,0.5124,0.527,0.547,0.5726,0.6154,0.6662,0.7363,0.8457,0.9061,0.9624,1.0355,1.0907,1.137,1.1752,1.2426,1.2774,1.2774,1.2774,1.2913,1.3084,1.3611,1.4094,1.4466,1.6291,1.7469,1.783,2.1089,2.2751,2.2819,2.436,2.5119,2.5119,2.5119,2.5119,2.5105,2.4782,2.4826,2.5105,2.4767,2.4826,2.5119,2.5119,2.5119,2.5119,2.5119,2.5119,2.5119,2.5119,2.4914,2.451,2.4188,2.3866,2.353,2.3208,2.3106,2.3106,2.3106,2.3106,2.3106,2.3106,2.3106,2.3032,2.2696,2.2389,2.2096,2.1759,2.1437,2.1203,2.1203,2.1203,2.1203,2.1203,2.1203,2.1203,2.1203,2.1203,2.1203,2.1203,2.1203,2.1203,2.1203,2.1203,2.1072,2.075,2.072,2.0574,2.0197,2.0183,2.0183,2.0183,2.0183,2.0384,2.0706,2.072,2.0881,2.1203,2.1203,2.1203,2.1203,2.1203,2.1203,0.7122,0.7461,0.7651,0.7353,0.7014,0.6654,0.6215,0.5764,0.5411,0.5277,0.516,0.5124,0.527,0.5345,0.5648,0.64,0.6694,0.7175,0.8227,0.8988,0.9673,1.0294,1.1443,1.2231,1.2475,1.2702,1.2774,1.2774,1.3038,1.3311,1.3419,1.3831,1.4778,1.6132,1.7117,1.8798,2.1227,2.2258,2.3311,2.436,2.4849,2.5119,2.5119,2.5119,2.5119,2.5105,2.4782,2.4826,2.5105,2.4767,2.4826,2.5119,2.5119,2.5119,2.5119,2.5119,2.5119,2.5119,2.5119,2.4767,2.4218,2.4115,2.3706,2.3237,2.3135,2.3106,2.3106,2.3106,2.3106,2.3106,2.3106,2.3106,2.3032,2.2696,2.255,2.2403,2.2096,2.1774,2.154,2.154,2.1364,2.1203,2.1203,2.1203,2.1203,2.1203,2.1203,2.1203,2.1203,2.1203,2.1203,2.1203,2.1203,2.1174,2.1057,2.0852,2.0779,2.0896,2.0691,2.0621,2.0896,2.0896,2.0955,2.1057,2.1057,2.1101,2.1203,2.1203,2.1203,2.1203,2.1203,2.1203,0.6424,0.6851,0.7061,0.6817,0.6532,0.6242,0.5971,0.5661,0.5373,0.531,0.5242,0.5215,0.5297,0.5438,0.5712,0.6302,0.6645,0.7167,0.8146,0.8844,0.9624,1.0615,1.1695,1.2434,1.2621,1.2759,1.284,1.3038,1.3104,1.3343,1.3718,1.4521,1.5846,1.7884,1.8328,1.9876,2.2751,2.3379,2.4142,2.5119,2.5119,2.5119,2.5119,2.5119,2.5119,2.5105,2.4782,2.4826,0.0,2.4767,2.4826,2.5119,2.5119,2.5119,2.5119,2.5119,2.5119,2.5105,2.4987,2.4679,2.4232,2.3984,2.3545,2.3106,2.3106,2.3106,2.3106,2.3106,2.3106,2.3106,2.3106,2.3106,2.3062,2.2857,2.271,2.2564,2.2389,2.2096,2.1847,2.1715,2.154,2.135,2.1233,2.1203,2.1203,2.1203,2.1203,2.1203,2.1203,2.1203,2.1203,2.1203,2.1203,2.1203,2.1203,2.1028,2.0998,2.1203,2.1013,2.0998,2.1203,2.1203,2.1203,2.1203,2.1203,2.1203,2.1203,2.1203,2.1203,2.1203,2.1203,2.1203,0.0,0.6254,0.6552,0.6436,0.6152,0.5913,0.5774,0.5574,0.0,0.5314,0.5297,0.5313,0.5345,0.5632,0.5904,0.6002,0.6612,0.7363,0.8219,0.8869,0.9762,1.1135,1.1768,1.2158,1.2328,1.2645,1.2972,1.3367,1.3104,1.3227,1.4071,1.5478,1.7267,1.9585,1.9745,2.0835,2.2956,2.436,2.5119,2.5119,2.5119,2.5119,2.5119,2.5119,2.5119,2.5105,2.4797,2.4841,2.5105,2.473,2.4855,2.5119,2.5119,2.5119,2.5119,2.5119,2.5105,2.5046,2.4767,2.4554,2.4393,2.3764,2.3354,2.3106,2.3106,2.3106,2.3106,2.3106,2.3106,2.3106,2.3106,2.3106,2.3106,2.3106,2.2871,2.2652,2.2652,2.2418,2.2125,2.1818,2.173,2.1598,2.1291,2.1233,2.1203,2.1203,2.1203,2.1203,2.1203,2.1203,2.1203,2.1203,2.1203,2.1203,2.1203,2.1203,2.1203,2.1203,2.1203,2.1203,2.1203,2.1203,2.1203,2.1203,2.1203,2.1203,2.1203,2.1203,2.1203,2.1203,2.1203,2.1203,0.5088,0.0,0.5636,0.5351,0.5424,0.5501,0.0,0.5329,0.5389,0.5318,0.5297,0.5454,0.5918,0.5807,0.6034,0.7175,0.7502,0.7926,0.8779,0.9957,1.1053,1.1947,1.2402,1.2596,1.271,1.2726,1.2972,1.3367,1.3555,1.4333,1.5824,1.6449,1.814,2.102,2.1163,2.2283,2.4563,2.4916,2.5119,2.5119,2.5119,2.5119,2.5119,2.5119,2.5119,2.5119,2.5046,2.5061,2.5119,2.5046,2.5061,2.5119,2.5119,2.5119,2.5119,2.5119,2.4973,2.4701,2.4943,2.4452,2.3764,2.3354,2.3164,2.3106,2.3106,2.3106,2.3106,2.3106,2.3106,2.3106,2.3106,2.3106,2.3106,2.3106,2.3047,2.2988,2.2988,2.274,2.2491,2.2418,2.2023,2.1672,2.1598,2.1379,2.1203,2.1203,2.1203,2.1203,2.1203,2.1203,2.1203,2.1203,2.1203,2.1203,2.1203,2.1203,2.1203,2.1203,2.1203,2.1203,2.1203,2.1203,2.1203,2.1203,2.1203,2.1203,2.1203,2.1203,2.1203,2.1203,2.1203,2.1203,0.4791,0.5154,0.5514,0.5396,0.5443,0.5517,0.5487,0.5348,0.5269,0.5294,0.5361,0.5535,0.5878,0.601,0.6359,0.7175,0.7649,0.8276,0.9429,1.0607,1.1589,1.2231,1.2548,1.2743,1.2766,1.2972,1.3235,1.3621,1.4399,1.5359,1.6667,1.7935,1.953,2.151,2.2167,2.327,2.4899,2.4899,2.4899,2.4899,2.5046,2.5046,2.4899,2.5061,2.5119,2.5119,2.5119,2.5119,2.5119,2.5119,2.5119,2.5119,2.5119,2.5119,2.5119,2.5119,2.4914,2.4665,2.4841,2.4291,2.3574,2.3384,2.3237,2.3106,2.3106,2.3106,2.3106,2.3106,2.3106,2.3106,2.3106,2.3106,2.3106,2.3106,2.3106,2.3106,2.3106,2.2974,2.2798,2.2652,2.2242,2.1876,2.1715,2.1554,2.1379,2.1233,2.1335,2.1379,2.1233,2.1203,2.1203,2.1203,2.1203,2.1203,2.1203,2.1203,2.1203,2.1203,2.1203,2.1203,2.1203,2.1203,2.1489,2.2044,2.2539,2.2805,2.2805,2.2805,2.2805,2.2805,2.2805,2.2539,0.4833,0.5341,0.583,0.5799,0.5773,0.5793,0.5864,0.0,0.0,0.0,0.5543,0.5726,0.5839,0.6359,0.6822,0.6976,0.7732,0.8763,1.0147,1.1013,1.1727,1.2247,1.2483,1.267,1.2824,1.3169,1.3564,1.3875,1.4977,1.6073,1.698,1.9152,2.0731,2.1507,2.2815,2.3837,2.4496,2.454,2.4569,2.4569,2.4973,2.4958,2.4583,2.4973,2.5119,2.5119,2.5119,2.5119,2.5119,2.5119,2.5119,2.5119,2.5119,2.5119,2.5119,2.5119,2.4914,2.4554,2.451,2.413,2.3662,2.3618,2.3369,2.3106,2.3106,2.3106,2.3106,2.3106,2.3106,2.3106,2.3106,2.3106,2.3106,2.3106,2.3106,2.3106,2.3106,2.3106,2.3032,2.2754,2.2418,2.2096,2.1818,2.173,2.1584,2.1262,2.1481,2.1584,2.1247,2.1203,2.1203,2.1203,2.1203,2.1203,2.1203,2.1203,2.1203,2.1203,2.1203,2.1203,2.1203,2.1375,2.1987,2.2974,2.3966,2.4505,2.4727,2.4505,2.4505,2.4727,2.4727,2.4206,0.5411,0.5969,0.6197,0.5495,0.5731,0.6045,0.58,0.5743,0.0,0.0,0.0,0.6286,0.6863,0.7029,0.7401,0.8341,0.9112,0.9892,1.0784,1.1354,1.1874,1.2264,1.2596,1.2808,1.2766,1.3169,1.3564,1.3875,1.4333,1.5303,1.6915,1.846,1.9814,2.1149,2.2489,2.3501,2.4145,2.4437,2.4569,2.4569,2.4973,2.4958,2.4583,2.4973,2.5119,2.5119,2.5119,2.5119,2.5119,2.5119,2.5119,2.5119,2.5119,2.5119,2.5119,2.5119,2.4914,2.4525,2.4247,2.4086,2.3969,2.3691,2.3369,2.3106,2.3106,2.3106,2.3106,2.3106,2.3106,2.3106,2.3106,2.3106,2.3106,2.3106,2.3106,2.3106,2.3106,2.3106,2.3091,2.3047,2.2579,2.2169,2.2125,2.1876,2.1584,2.1262,2.1481,2.1584,2.1247,2.1203,2.1203,2.1203,2.1203,2.1203,2.1203,2.1203,2.1203,2.1203,2.1203,2.1203,2.1203,2.2199,2.2805,2.2974,2.3199,2.3743,2.4727,2.3743,2.3743,2.4727,2.4727,2.4804,0.5296,0.5864,0.6278,0.5919,0.6398,0.6846,0.6696,0.6569,0.6498,0.0,0.0,0.0,0.7126,0.7626,0.83,0.9372,0.99,1.0396,1.1021,1.1403,1.1792,1.2255,1.245,1.2694,1.3087,1.3424,1.3818,1.4137,1.5173,1.6462,1.8011,1.9419,2.0753,2.2153,2.2793,2.3427,2.4071,2.4232,2.4393,2.4569,2.4973,2.4958,2.4583,2.4973,2.5119,2.5119,2.5119,2.5119,2.5119,2.5119,2.5119,2.5119,2.5119,2.5119,2.5105,2.4929,2.4701,2.4525,2.4203,2.4086,2.4027,2.3706,2.3501,2.334,2.3164,2.3106,2.3106,2.3106,2.3106,2.3106,2.3106,2.3106,2.3106,2.3106,2.3106,2.3106,2.3106,2.3106,2.3106,2.3106,2.274,2.2418,2.2418,2.2301,2.2096,2.1789,2.1862,2.1847,2.1511,2.1467,2.1408,2.1233,2.1525,2.1672,2.1496,2.1642,2.1584,2.1233,2.1203,2.1203,2.1203,2.2974,2.3631,2.303,2.4261,2.5131,2.568,2.5131,2.5516,2.6681,2.6884,2.6774,0.5311,0.5773,0.6253,0.653,0.6952,0.735,0.7561,0.7371,0.7159,0.7331,0.0,0.7553,0.7555,0.83,0.9216,1.0079,1.0444,1.0777,1.1224,1.1516,1.1841,1.2255,1.2377,1.2668,1.3341,1.3687,1.4006,1.4342,1.6009,1.7431,1.846,2.0182,2.1587,2.2606,2.2918,2.3427,2.4071,2.4086,2.4247,2.4569,2.4973,2.4958,2.4583,2.4973,2.5119,2.5119,2.5119,2.5119,2.5119,2.5119,2.5119,2.5119,2.5119,2.5119,2.509,2.4841,2.4753,2.4642,2.4393,2.4262,2.4159,2.391,2.3764,2.3662,2.3413,2.3281,2.3223,2.3223,2.3164,2.3106,2.3106,2.3106,2.3106,2.3106,2.3106,2.3106,2.3106,2.3106,2.3106,2.3106,2.2842,2.2623,2.2623,2.2623,2.252,2.2228,2.2242,2.2169,2.1847,2.1818,2.1715,2.1467,2.1876,2.2081,2.1832,2.2037,2.1964,2.1467,2.1291,2.1203,2.1203,2.3463,2.4172,2.303,2.502,2.6282,2.6664,2.6391,2.7048,2.8594,2.8926,2.868,0.5919,0.6141,0.6343,0.7001,0.696,0.6968,0.7789,0.7699,0.7673,0.8351,0.8506,0.8519,0.8674,0.9299,0.9925,1.0347,1.0834,1.124,1.1451,1.1922,1.2264,1.2304,1.2596,1.2939,1.3367,1.3687,1.4006,1.4342,1.6009,1.7044,1.7173,1.9674,2.1132,2.1272,2.248,2.3427,2.4071,2.4086,2.4247,2.4569,2.4973,2.4958,2.4583,2.4973,2.5119,2.5119,2.5119,2.5119,2.5119,2.5119,2.5119,2.5119,2.5119,2.5119,2.5119,2.509,2.509,2.509,2.5061,2.4788,2.4525,2.451,2.4291,2.4042,2.4013,2.3808,2.3559,2.3559,2.334,2.3106,2.3106,2.3106,2.3106,2.3106,2.3106,2.3106,2.3106,2.3106,2.3106,2.3106,2.2842,2.2623,2.2623,2.2623,2.252,2.2228,2.2418,2.2476,2.2184,2.214,2.214,2.2111,2.2154,2.2169,2.2154,2.2169,2.2169,2.2111,2.154,2.1203,2.1203,2.3463,2.4172,2.303,2.4172,2.5582,2.7142,2.6025,2.6877,2.9528,2.9567,2.9726,0.5763,0.6165,0.6612,0.6996,0.7285,0.0,0.0,0.8422,0.8625,0.9129,0.9226,0.9283,0.9453,0.9705,1.0079,1.0672,1.1021,1.133,1.163,1.1849,1.206,1.228,1.2426,1.279,1.3595,1.4586,1.5043,1.4735,1.6915,1.8267,1.8267,2.0055,2.1461,2.2341,2.2856,2.3427,2.4071,2.4086,2.4349,2.4943,2.5061,2.5061,2.4943,2.5061,2.5119,2.5119,2.5119,2.5119,2.5119,2.5119,2.5119,2.5119,2.5119,2.5119,2.5119,2.5119,2.4987,2.4826,2.4826,2.4738,2.454,2.4335,2.432,2.4349,2.4145,2.3852,2.3588,2.3588,2.3354,2.3106,2.3106,2.3106,2.3106,2.3106,2.3106,2.3106,2.3106,2.3106,2.3106,2.3106,2.3003,2.293,2.293,2.293,2.2886,2.2769,2.2681,2.2579,2.2476,2.2462,2.2389,2.2198,2.2345,2.2535,2.274,2.2579,2.2462,2.2462,2.1862,2.1511,2.1511,2.2875,2.3087,2.1873,2.3253,2.4664,2.606,2.5834,2.7053,2.957,2.9032,2.9298,0.575,0.6189,0.6676,0.7004,0.0,0.0,0.8779,0.9088,0.9413,0.9941,0.9965,0.9916,1.0038,1.0054,1.0257,1.0922,1.1159,1.1419,1.1736,1.1825,1.1947,1.219,1.2335,1.2808,1.3696,1.4753,1.543,1.5564,1.7689,1.9164,1.961,2.1006,2.2153,2.3043,2.3106,2.3427,2.4071,2.4086,2.4408,2.5119,2.5119,2.5119,2.5119,2.5119,2.5119,2.5119,2.5119,2.5119,2.5119,2.5119,2.5119,2.5119,2.5119,2.5119,2.5119,2.5119,2.4987,2.4797,2.4797,2.4797,2.4686,2.4466,2.454,2.4723,2.4335,2.4013,2.3749,2.3749,2.3515,2.3281,2.3384,2.3267,2.3106,2.3106,2.3106,2.3106,2.3106,2.3106,2.3106,2.3106,2.3106,2.3106,2.3106,2.3106,2.3106,2.3106,2.2915,2.2769,2.2769,2.2769,2.2696,2.2491,2.2652,2.2871,2.3091,2.2901,2.2769,2.2769,2.2286,2.1906,2.1701,2.2663,2.2534,2.1203,2.2709,2.4195,2.5611,2.5932,2.7449,3.0,2.9411,2.9602,0.6082,0.631,0.652,0.7062,0.0,0.0,0.9429,0.9583,0.9892,1.0785,1.0688,1.0383,1.0383,1.0383,1.0558,1.0915,1.1265,1.1565,1.1752,1.1922,1.2028,1.2028,1.2441,1.3012,1.3576,1.3924,1.4888,1.6894,1.8267,1.961,2.1006,2.2341,2.3106,2.3106,2.3106,2.3427,2.4071,2.4086,2.4408,2.5119,2.5119,2.5119,2.5119,2.5119,2.5119,2.5119,2.5119,2.5119,2.5119,2.5119,2.5119,2.5119,2.5119,2.5119,2.5119,2.5119,2.5119,2.5119,2.5119,2.5119,2.5119,2.5119,2.5119,2.5061,2.4738,2.4349,2.4086,2.4086,2.3852,2.3676,2.3998,2.3603,2.312,2.312,2.3106,2.3106,2.3106,2.3106,2.3106,2.3106,2.3106,2.3106,2.3106,2.3106,2.3106,2.3106,2.3106,2.3106,2.3106,2.3106,2.3106,2.3106,2.3106,2.3106,2.3106,2.3106,2.3106,2.3106,2.2798,2.2345,2.173,2.2836,2.2782,2.1233,2.2724,2.431,2.6007,2.6327,2.8025,3.0898,3.0898,3.0898,0.6,0.6465,0.7082,0.7496,0.0,0.0,0.0,1.014,0.0,0.0,1.0964,1.081,1.081,1.081,1.0883,1.111,1.1346,1.1565,1.1752,1.1817,1.1959,1.2328,1.251,1.3234,1.4929,1.5339,1.6213,1.7926,1.9562,2.0626,2.1082,2.2341,2.3106,2.3106,2.3106,2.3427,2.4071,2.4086,2.4408,2.5119,2.5119,2.5119,2.5119,2.5119,2.5119,2.5119,2.5119,2.5119,2.5119,2.5119,2.5119,2.5119,2.5119,2.5119,2.5119,2.5119,2.5119,2.5119,2.5119,2.5119,2.5119,2.5119,2.5119,2.5105,2.5017,2.4525,2.413,2.4364,2.4027,2.3676,2.3998,2.394,2.3735,2.3501,2.3281,2.3106,2.3106,2.3106,2.3106,2.3106,2.3106,2.3106,2.3106,2.3106,2.3106,2.3106,2.3106,2.3106,2.3106,2.3106,2.3106,2.3106,2.3106,2.3106,2.3106,2.3106,2.3106,2.3106,2.3018,2.2784,2.2359,2.2498,2.2394,2.1891,2.2543,2.4039,2.6344,2.6662,2.8235,3.0898,2.9903,3.002,0.6367,0.6968,0.7659,0.8162,0.9015,0.9925,1.0688,1.0858,1.0972,1.1362,1.1248,1.1094,1.1167,1.1118,1.1126,1.1305,1.1492,1.1646,1.176,1.1776,1.1938,1.2334,1.2952,1.3939,1.5432,1.6396,1.757,1.9187,2.0407,2.1335,2.1839,2.2668,2.3106,2.3106,2.3106,2.3354,2.3881,2.4013,2.4349,2.4929,2.5061,2.5119,2.5119,2.5119,2.5119,2.5119,2.5119,2.5119,2.5119,2.5119,2.5119,2.5119,2.5119,2.5119,2.5119,2.5119,2.5119,2.5119,2.5119,2.5119,2.5119,2.5119,2.5119,2.5105,2.4973,2.4496,2.4145,2.4481,2.4188,2.3896,2.4349,2.4379,2.4159,2.3706,2.3442,2.3267,2.3135,2.3106,2.3106,2.3106,2.3106,2.3106,2.3106,2.3106,2.3106,2.3106,2.3106,2.3106,2.3106,2.3106,2.3106,2.3106,2.3106,2.3106,2.3106,2.3106,2.3106,2.3106,2.3106,2.3018,2.2828,2.252,2.2527,2.293,2.3233,2.4651,2.7264,2.7593,2.882,3.0898,3.0251,3.0386,0.6985,0.7586,0.8195,0.8934,0.9567,1.0266,1.1273,1.1508,1.1573,1.1744,1.1508,1.1321,1.1492,1.1386,1.133,1.15,1.1663,1.1776,1.1776,1.1837,1.1949,1.2242,1.3655,1.4869,1.5508,1.7123,1.8852,2.0636,2.0931,2.1622,2.3043,2.3106,2.3106,2.3106,2.3106,2.3267,2.3588,2.3896,2.4218,2.4569,2.4943,2.5075,2.5075,2.5119,2.5119,2.5119,2.5119,2.5119,2.5119,2.509,2.509,2.5119,2.509,2.5105,2.5119,2.5119,2.5119,2.5119,2.5119,2.5119,2.5119,2.5119,2.5119,2.5061,2.4767,2.4393,2.4203,2.4525,2.4379,2.4276,2.4958,2.4832,2.4452,2.3793,2.3618,2.3501,2.3179,2.3106,2.3106,2.3106,2.3106,2.3106,2.3106,2.3106,2.3106,2.3106,2.3106,2.3106,2.3106,2.3106,2.3106,2.3106,2.3106,2.3106,2.3106,2.3106,2.3106,2.3106,2.3106,2.3106,2.3106,2.2828,2.3127,2.4177,2.4496,2.5897,2.8428,2.8737,2.9608,3.0957,3.1348,3.1543,0.6692,0.7399,0.8219,0.9126,1.0119,1.1037,1.1411,1.1614,1.1727,1.1768,1.1711,1.1671,1.1711,1.1687,1.1671,1.1711,1.1752,1.1776,1.1776,1.201,1.2242,1.2535,1.4023,1.5521,1.6819,1.753,1.9,2.164,2.1129,2.1389,2.3029,2.3106,2.3106,2.3106,2.3106,2.3267,2.3588,2.3662,2.3998,2.4569,2.4642,2.4738,2.4753,2.5002,2.5119,2.5119,2.5119,2.5119,2.5105,2.4855,2.4899,2.5105,2.4841,2.4899,2.5119,2.5119,2.5119,2.5119,2.5119,2.5119,2.5119,2.5119,2.5119,2.5119,2.5031,2.4797,2.454,2.4929,2.4782,2.4554,2.5017,2.5075,2.4788,2.413,2.3779,2.3501,2.3179,2.3106,2.3106,2.3106,2.3106,2.3106,2.3106,2.3106,2.3106,2.3106,2.3106,2.3106,2.3106,2.3106,2.3106,2.3106,2.3106,2.3106,2.3106,2.3106,2.3106,2.3106,2.3106,2.3106,2.3106,2.3047,2.3578,2.4849,2.4974,2.6282,2.8792,2.8883,2.9758,3.1387,3.1484,3.1699,0.6855,0.7667,0.0,0.9869,0.0,1.1297,1.1573,1.1703,1.1776,1.1776,1.1776,1.1776,1.1776,1.1776,1.1776,1.1776,1.1776,1.1776,1.1776,1.2001,1.2535,1.3485,1.5025,1.6621,1.8144,1.9116,2.0315,2.1816,2.1694,2.1944,2.281,2.3018,2.3106,2.3106,2.3106,2.3193,2.3354,2.3515,2.3764,2.4101,2.4423,2.4569,2.4635,2.4811,2.4973,2.5119,2.5119,2.5119,2.5119,2.4943,2.4973,2.5105,2.4943,2.4885,2.4914,2.5061,2.5031,2.4914,2.5075,2.5119,2.5119,2.5119,2.5119,2.5119,2.5119,2.4899,2.4642,2.5031,2.4885,2.4642,2.5031,2.5119,2.5002,2.4437,2.4071,2.3691,2.3208,2.3106,2.3106,2.3106,2.3106,2.3106,2.3106,2.3106,2.3106,2.3106,2.3106,2.3106,2.3106,2.3106,2.3106,2.3106,2.3106,2.3106,2.3106,2.3106,2.3106,2.3106,2.3106,2.3106,2.3106,2.3899,2.4702,2.5378,2.6399,2.7907,2.9844,2.9844,3.0426,3.1523,3.1738,3.2051,0.6944,0.7943,0.9077,1.0637,1.1094,0.0,1.1695,1.1776,1.1776,1.1776,1.1776,1.1776,1.1776,1.1776,1.1776,1.1776,1.1837,1.1837,1.1837,1.2303,1.3186,1.4421,1.6256,1.791,1.9203,2.0683,2.1642,2.1686,2.2169,2.2506,2.2623,2.2871,2.3047,2.3106,2.3106,2.3106,2.3106,2.3384,2.3545,2.3603,2.4145,2.4437,2.4481,2.4481,2.4723,2.5031,2.5031,2.5075,2.5119,2.5061,2.5075,2.5119,2.5061,2.4914,2.4686,2.5017,2.4958,2.4753,2.5031,2.5119,2.5119,2.5119,2.5119,2.5119,2.5119,2.4943,2.4715,2.5046,2.4929,2.4782,2.5061,2.5119,2.5046,2.4642,2.4364,2.3998,2.3398,2.3281,2.3267,2.3208,2.3149,2.3106,2.3106,2.3106,2.3106,2.3106,2.3106,2.3106,2.3106,2.3106,2.3106,2.3106,2.3106,2.3106,2.3106,2.3106,2.3106,2.3106,2.3106,2.3106,2.3106,2.5362,2.6581,2.6581,2.8086,2.953,3.0898,3.0957,3.1211,3.1641,3.207,3.25,0.6116,0.0,0.934,0.0,1.1094,1.1321,0.0,0.0,1.1776,1.1776,1.1776,1.1776,1.1776,1.1776,1.1776,1.1776,1.201,1.2062,1.1837,1.3495,1.4669,1.4599,1.7196,1.9087,1.9261,2.0485,2.1393,2.1672,2.1774,2.2052,2.2593,2.2667,2.2813,2.3106,2.3106,2.3106,2.3106,2.3149,2.331,2.3588,2.3691,2.3881,2.4145,2.4145,2.432,2.4709,2.4709,2.4803,2.5105,2.4826,2.487,2.509,2.4811,2.4855,2.5061,2.5105,2.509,2.5061,2.5105,2.5119,2.5119,2.5119,2.5119,2.5119,2.5119,2.509,2.5061,2.5119,2.509,2.5061,2.5119,2.5119,2.5046,2.4642,2.454,2.4408,2.4027,2.3954,2.3866,2.3588,2.331,2.3106,2.3106,2.3106,2.3106,2.3106,2.3106,2.3106,2.3106,2.3106,2.3106,2.3106,2.3106,2.3106,2.3106,2.3106,2.3106,2.3106,2.3106,2.3106,2.3106,2.7667,3.0216,3.0216,2.9353,2.953,3.0898,3.125,3.166,3.209,3.2519,3.293,0.6795,0.7975,0.912,0.0,1.0948,1.1175,1.1541,1.1703,1.1776,1.1776,1.1776,1.1776,1.1776,1.1776,1.1776,1.1776,1.201,1.2182,1.2062,1.3784,1.5322,1.5902,1.791,1.9564,2.0328,2.0859,2.1276,2.1408,2.1598,2.1891,2.2345,2.2535,2.2769,2.3091,2.3106,2.3106,2.3106,2.3106,2.3267,2.3588,2.3413,2.3501,2.3808,2.3808,2.4086,2.4569,2.4569,2.4826,2.5105,2.4767,2.4826,2.5105,2.4973,2.4885,2.487,2.5061,2.5002,2.487,2.5061,2.5119,2.5119,2.5119,2.5119,2.5119,2.5119,2.5119,2.5119,2.5119,2.5119,2.5119,2.5119,2.5119,2.509,2.4943,2.4914,2.487,2.4657,2.4349,2.4013,2.3735,2.3574,2.3398,2.3149,2.3106,2.3106,2.3106,2.3106,2.3106,2.3106,2.3106,2.3106,2.3106,2.3106,2.3106,2.3106,2.3106,2.3106,2.3106,2.3106,2.4379,2.7366,2.9667,3.1113,3.1601,3.0794,3.0679,3.125,3.168,3.2109,3.2519,3.2715,3.3027,0.7139,0.791,0.8576,1.0054,1.059,1.0891,0.0,0.0,1.1719,1.1768,1.1776,1.1776,1.1776,1.1776,1.1776,1.1776,1.2164,1.2492,1.2785,1.451,1.6239,1.7421,1.8894,2.0155,2.1089,2.1203,2.1203,2.1203,2.1437,2.1759,2.2169,2.2389,2.2696,2.3091,2.3106,2.3106,2.3106,2.3106,2.3237,2.3471,2.3223,2.3237,2.3471,2.3559,2.3866,2.432,2.4408,2.4583,2.4803,2.4709,2.4782,2.5017,2.509,2.4973,2.4797,2.5031,2.4973,2.473,2.5031,2.5119,2.5119,2.5119,2.5119,2.5119,2.5119,2.5119,2.5119,2.5119,2.5119,2.5119,2.5119,2.5119,2.5119,2.5119,2.5119,2.5119,2.5119,2.4583,2.4115,2.3954,2.3749,2.3486,2.3164,2.3384,2.3603,2.3603,2.3603,2.3603,2.3603,2.331,2.3106,2.3106,2.3398,2.3603,2.3603,2.3603,2.3603,2.3603,2.3603,2.5345,2.9258,3.0787,3.1836,3.248,3.2031,3.1758,3.168,3.2109,3.248,3.2793,3.291,3.3125,0.6197,0.6852,0.7644,0.9235,0.9949,1.0482,0.0,1.1508,1.1565,1.1744,1.1776,1.1776,1.1776,1.1776,1.1776,1.1776,1.2464,1.3303,1.4304,1.6304,1.8056,1.9068,2.0322,2.1146,2.1203,2.1203,2.1203,2.1203,2.1233,2.1511,2.2154,2.2198,2.2491,2.3091,2.3106,2.3106,2.3106,2.3106,2.312,2.3135,2.312,2.312,2.3149,2.3457,2.3618,2.3662,2.3969,2.4115,2.4159,2.4452,2.4583,2.4627,2.5002,2.5119,2.5105,2.5119,2.5119,2.5105,2.5119,2.5119,2.5119,2.5119,2.5119,2.5119,2.5119,2.5119,2.5119,2.5119,2.5119,2.5119,2.5119,2.5119,2.5119,2.5119,2.5119,2.5119,2.5119,2.4701,2.4379,2.4364,2.3706,2.3135,2.3106,2.413,2.5017,2.5017,2.5017,2.5017,2.5017,2.3881,2.3106,2.3106,2.4218,2.5017,2.5017,2.5017,2.5017,2.5017,2.5017,2.5084,2.542,3.0488,3.332,3.3359,3.2793,3.2402,3.2129,3.2559,3.2773,3.2812,3.3203,3.3398,0.6049,0.6669,0.7326,0.8479,0.9299,0.9965,1.0517,1.1702,1.251,1.176,1.2337,1.3015,1.3015,1.2371,1.1837,1.201,1.319,1.425,1.485,1.7162,1.8881,1.9245,2.0442,2.1203,2.1203,2.1203,2.1203,2.1203,2.1203,2.1408,2.1847,2.1876,2.2154,2.2769,2.2798,2.2901,2.3106,2.3106,2.3106,2.3106,2.3106,2.3106,2.312,2.3442,2.3486,2.3296,2.3632,2.3881,2.4086,2.4203,2.4379,2.4598,2.5002,2.5119,2.5119,2.5119,2.5119,2.5119,2.5119,2.5119,2.5119,2.5119,2.5119,2.5119,2.5119,2.5119,2.5119,2.5119,2.5119,2.5119,2.5119,2.5119,2.5119,2.5119,2.5119,2.5119,2.5119,2.5002,2.4818,2.4818,2.4569,2.4364,2.4364,2.4744,2.5119,2.5119,2.5119,2.5119,2.5119,2.4642,2.4364,2.4364,2.4841,2.5119,2.5119,2.5119,2.5119,2.5119,2.5119,2.6702,3.029,3.2301,3.3418,3.3418,3.3223,3.2891,3.2483,3.2949,3.3203,3.3203,3.3359,3.3418,0.569,0.6261,0.0,0.0,0.8727,0.9528,1.0681,1.2064,1.2964,1.2229,1.3172,1.4055,1.3775,1.3015,1.2543,1.2775,1.3901,1.496,1.5736,1.7929,1.9582,2.0062,2.0744,2.1203,2.1203,2.1203,2.1203,2.1203,2.1203,2.135,2.1686,2.1701,2.1979,2.2608,2.2725,2.2886,2.3106,2.3106,2.3106,2.3106,2.3106,2.3106,2.312,2.3325,2.331,2.312,2.334,2.3559,2.3764,2.3881,2.4042,2.4291,2.4797,2.4958,2.4973,2.509,2.5119,2.5119,2.5119,2.5119,2.5119,2.5119,2.5119,2.5119,2.5119,2.5119,2.5119,2.5119,2.5119,2.5119,2.5119,2.5119,2.5119,2.5119,2.5119,2.5119,2.5119,2.5119,2.5119,2.5119,2.5119,2.5119,2.5119,2.5119,2.5119,2.5119,2.5119,2.5119,2.5119,2.5119,2.5119,2.5119,2.5119,2.5119,2.5119,2.5119,2.5119,2.5119,2.5119,2.7618,3.3165,3.3418,3.3418,3.3418,3.3418,3.3242,3.2851,3.3242,3.3418,3.3418,3.3418,3.3418,0.0,0.0,0.0,0.0,0.0,0.0,1.1704,1.2491,1.2782,1.3108,1.4187,1.485,1.3965,1.3784,1.3844,1.4202,1.462,1.554,1.7218,1.8712,2.016,2.1496,2.1408,2.1203,2.1203,2.1203,2.1203,2.1203,2.1203,2.135,2.1686,2.1715,2.1993,2.2593,2.293,2.3106,2.3091,2.3106,2.3106,2.3106,2.3106,2.3106,2.3106,2.3106,2.3106,2.3106,2.3106,2.3106,2.3135,2.3457,2.3588,2.3662,2.432,2.4569,2.4613,2.5002,2.5119,2.5119,2.5119,2.5119,2.5119,2.5119,2.5119,2.5119,2.5119,2.5119,2.5119,2.5119,2.5119,2.5119,2.5119,2.5119,2.5119,2.5119,2.5119,2.5119,2.5119,2.5119,2.5119,2.5119,2.5119,2.5119,2.5119,2.5119,2.5119,2.5119,2.5119,2.5119,2.5119,2.5119,2.5119,2.5119,2.5119,2.5119,2.5119,2.5119,2.5119,2.5119,2.5119,2.7618,3.3165,3.3418,3.3418,3.3418,3.3418,3.3418,3.3418,3.3418,3.3418,3.3418,3.3418,3.3418,0.5284,0.0,0.0,0.0,0.0,0.0,0.0,1.1134,1.2453,1.2287,1.3858,1.5401,1.5977,1.5675,1.5795,1.7032,1.6549,1.6713,1.8491,1.9918,2.0931,2.1292,2.1262,2.1203,2.1203,2.1203,2.1203,2.1203,2.1203,2.135,2.1686,2.2125,2.2345,2.2301,2.2828,2.2988,2.2754,2.2988,2.3106,2.3106,2.3106,2.3106,2.3106,2.3106,2.3106,2.3106,2.3106,2.3106,2.3135,2.3457,2.3588,2.3662,2.432,2.4569,2.4613,2.5002,2.5119,2.5119,2.5119,2.5119,2.5119,2.5119,2.5119,2.5119,2.5119,2.5119,2.5119,2.5119,2.5119,2.5119,2.5119,2.5119,2.5119,2.5119,2.5119,2.5119,2.5119,2.5119,2.5119,2.5119,2.5119,2.5119,2.5119,2.5119,2.5119,2.5119,2.5119,2.5119,2.5119,2.5119,2.5119,2.5119,2.5119,2.5119,2.5119,2.5119,2.5119,2.5119,2.5119,2.7618,3.3165,3.3418,3.3418,3.3418,3.3418,3.3418,3.3418,3.3418,3.3418,3.3418,3.3418,3.3418,0.6606,0.6927,0.0,0.0,0.0,0.0,1.0273,1.1725,1.2829,1.3233,1.4983,1.6458,1.6585,1.6734,1.7274,1.873,1.8126,1.7898,1.9145,2.0385,2.1203,2.1203,2.1203,2.1203,2.1203,2.1203,2.1203,2.1203,2.1203,2.135,2.1686,2.2169,2.2359,2.2184,2.2652,2.2813,2.2623,2.2813,2.2974,2.3106,2.3106,2.3106,2.3106,2.3106,2.3106,2.3106,2.3106,2.3106,2.312,2.331,2.3398,2.3442,2.3969,2.4247,2.4408,2.4797,2.5002,2.5119,2.5119,2.5119,2.5119,2.5119,2.5119,2.5119,2.5119,2.5119,2.5119,2.5119,2.5119,2.5119,2.5119,2.5119,2.5119,2.5119,2.5119,2.5119,2.5119,2.5119,2.5119,2.5119,2.5119,2.5119,2.5119,2.5119,2.5119,2.5119,2.5119,2.5119,2.5119,2.5119,2.5119,2.5119,2.5119,2.5119,2.5119,2.5119,2.5119,2.5119,2.5119,2.7618,3.3165,3.3418,3.3418,3.3418,3.3418,3.3418,3.3418,3.3418,3.3418,3.3418,3.3418,3.3418,0.8522,0.8762,0.0,0.9485,0.9511,0.0,1.2427,1.2953,1.3378,1.4631,1.6278,1.717,1.6217,1.7022,1.8194,1.9278,1.9174,1.9026,1.9421,2.05,2.1203,2.1203,2.1203,2.1203,2.1203,2.1203,2.1203,2.1203,2.1247,2.1393,2.1686,2.2037,2.2213,2.2184,2.2506,2.2652,2.2623,2.2652,2.2828,2.3106,2.3106,2.3106,2.3106,2.3106,2.3106,2.3106,2.3106,2.3106,2.3106,2.3106,2.3106,2.3135,2.3471,2.3793,2.413,2.4452,2.4841,2.5119,2.5119,2.5119,2.5119,2.5119,2.5119,2.5119,2.5119,2.5119,2.5119,2.5119,2.5119,2.5119,2.5119,2.5119,2.5119,2.5119,2.5119,2.5119,2.5119,2.5119,2.5119,2.5119,2.5119,2.5119,2.5119,2.5119,2.5119,2.5119,2.5119,2.5119,2.5119,2.5119,2.5119,2.5119,2.5119,2.5119,2.5119,2.5119,2.5119,2.5119,2.5119,2.7352,3.2237,3.2511,3.2765,3.3355,3.3418,3.3418,3.3418,3.3418,3.3418,3.3418,3.3418,3.3418,0.9727,0.9738,0.9842,0.9879,1.0271,0.0,1.0182,1.0969,1.1899,1.237,1.3342,1.4462,1.541,1.6511,1.7299,1.7456,1.8674,1.9912,2.0687,2.1031,2.1203,2.1203,2.1203,2.1203,2.1203,2.1203,2.1203,2.1203,2.1452,2.1628,2.1686,2.2228,2.2432,2.2198,2.2725,2.2886,2.2623,2.2886,2.3047,2.3106,2.3106,2.3106,2.3106,2.3106,2.3106,2.3106,2.3106,2.3106,2.3106,2.3106,2.3106,2.3135,2.3471,2.3793,2.413,2.4452,2.4841,2.5119,2.5119,2.5119,2.5119,2.5119,2.5119,2.5119,2.5119,2.5119,2.5119,2.5119,2.5119,2.5119,2.5119,2.5119,2.5119,2.5119,2.5119,2.5119,2.5119,2.5119,2.5119,2.5119,2.5119,2.5119,2.5119,2.5119,2.5119,2.5119,2.5119,2.5119,2.5119,2.5119,2.5119,2.5119,2.5119,2.5119,2.5119,2.5119,2.5119,2.5119,2.5119,2.5577,2.6686,2.6702,2.8854,3.3292,3.3418,3.3418,3.3418,3.3418,3.3418,3.3418,3.3418,3.3418,1.1853,1.1727,1.1727,1.1743,1.1683,0.0,0.0,1.1543,1.1988,1.312,1.3561,1.4063,1.5099,1.608,1.6779,1.6889,1.8238,1.9447,1.993,2.0691,2.1145,2.0984,2.1115,2.1145,2.0984,2.1115,2.1203,2.1203,2.1364,2.1525,2.1686,2.1993,2.2096,2.195,2.2403,2.2564,2.2403,2.271,2.2945,2.3106,2.3106,2.3106,2.3106,2.3106,2.3106,2.3106,2.3106,2.3106,2.3106,2.3106,2.3106,2.312,2.3281,2.3647,2.4101,2.4262,2.4709,2.5119,2.5119,2.5119,2.5119,2.5119,2.5119,2.5119,2.5119,2.5119,2.5119,2.5119,2.5119,2.5119,2.5119,2.5119,2.5119,2.5119,2.5119,2.5119,2.5119,2.5119,2.5119,2.5119,2.5119,2.5119,2.5119,2.5119,2.5119,2.5119,2.5119,2.5119,2.5119,2.5119,2.5119,2.5119,2.5119,2.5119,2.5119,2.5119,2.5119,2.5119,2.5119,2.5119,2.5119,2.5119,2.775,3.3292,3.3418,3.3418,3.3418,3.3418,3.3418,3.3418,3.3418,3.3418,1.417,1.395,1.3871,1.3613,1.3174,1.29,0.0,0.0,0.0,1.409,1.417,1.4123,1.4587,1.5304,1.5908,1.6208,1.7374,1.8218,1.8145,1.9535,2.0501,2.0369,2.075,2.0896,2.0574,2.0662,2.0852,2.1101,2.094,2.1057,2.1569,2.1657,2.1701,2.1701,2.2008,2.2213,2.2271,2.2506,2.2784,2.3106,2.3106,2.3106,2.3106,2.3106,2.3106,2.3106,2.3106,2.3106,2.3106,2.3106,2.3106,2.3106,2.3106,2.3501,2.4086,2.4086,2.4496,2.5119,2.5119,2.5119,2.5119,2.5119,2.5119,2.5119,2.5119,2.5119,2.5119,2.5119,2.5119,2.5119,2.5119,2.5119,2.5119,2.5119,2.5119,2.5119,2.5119,2.5119,2.5119,2.5119,2.5119,2.5119,2.5119,2.5119,2.5119,2.5119,2.5119,2.5119,2.5119,2.5119,2.5119,2.5119,2.5119,2.5119,2.5119,2.5119,2.5119,2.5119,2.5119,2.5119,2.5119,2.5119,2.7219,3.1726,3.2829,3.3418,3.3418,3.3418,3.3418,3.3437,3.3769,3.3926,1.6021,1.5769,1.5239,1.3924,1.4306,1.4503,1.2385,0.0,1.2889,1.265,0.0,1.2827,1.3187,0.0,0.0,1.3841,1.5192,1.614,1.5848,1.7194,1.8408,1.895,1.9798,2.0223,1.9955,1.9389,1.9535,2.0691,1.9974,2.0018,2.1203,2.154,2.1701,2.1701,2.2008,2.2301,2.2564,2.2608,2.2784,2.3106,2.3106,2.3106,2.3106,2.3106,2.3106,2.3106,2.3106,2.3106,2.3106,2.3106,2.3106,2.3106,2.3106,2.3501,2.4086,2.4086,2.4496,2.5119,2.5119,2.5119,2.5119,2.5119,2.5119,2.5119,2.5119,2.5119,2.5119,2.5119,2.5119,2.5119,2.5119,2.5119,2.5119,2.5119,2.5119,2.5119,2.5119,2.5119,2.5119,2.5119,2.5119,2.5119,2.5119,2.5119,2.5119,2.5119,2.5119,2.5119,2.5119,2.5119,2.5119,2.5119,2.5119,2.5119,2.5119,2.5119,2.5119,2.5119,2.5119,2.5119,2.5119,2.5119,2.539,2.6048,3.0872,3.3418,3.3418,3.3418,3.3418,3.3457,3.5,3.5723,1.6415,1.6455,1.6186,1.5005,1.5119,1.5078,1.3321,1.2824,1.2823,1.3049,0.0,0.0,0.0,0.0,0.0,0.0,1.4384,1.497,1.4633,1.5818,1.696,1.7636,1.8189,1.8642,1.8891,1.8833,1.9169,2.0091,1.9433,1.9564,2.0852,2.1057,2.1306,2.1686,2.1832,2.2052,2.2359,2.2374,2.252,2.2828,2.2828,2.293,2.3106,2.3106,2.3106,2.3106,2.3106,2.3106,2.3106,2.3106,2.3106,2.3106,2.3106,2.3501,2.4086,2.4086,2.4496,2.5119,2.5119,2.5119,2.5119,2.5119,2.5119,2.5119,2.5119,2.5119,2.5119,2.5119,2.5119,2.5119,2.5119,2.5119,2.5119,2.5119,2.5119,2.5119,2.5119,2.5119,2.5119,2.5119,2.5119,2.5119,2.5119,2.5119,2.5119,2.5119,2.5119,2.5119,2.5119,2.5119,2.5119,2.5119,2.5119,2.5119,2.5119,2.5119,2.5119,2.5119,2.5119,2.5119,2.5119,2.5119,2.6635,2.9835,3.2174,3.3418,3.3418,3.3418,3.3945,3.4941,3.5684,3.6016,1.7069,1.7149,1.7079,1.576,1.5519,1.5276,1.3934,1.3356,1.3218,1.369,1.3439,0.0,0.0,0.0,0.0,0.0,0.0,1.413,0.0,1.4531,1.5394,1.6154,1.6638,1.7165,1.7721,1.775,1.8145,1.9155,1.8628,1.8906,2.0384,2.0633,2.094,2.1423,2.1525,2.1759,2.2184,2.2184,2.2374,2.2754,2.2754,2.2871,2.3106,2.3106,2.3106,2.3106,2.3106,2.3106,2.3106,2.3106,2.3106,2.3106,2.3106,2.3501,2.4086,2.4086,2.4496,2.5119,2.5119,2.5119,2.5119,2.5119,2.5119,2.5119,2.5119,2.5119,2.5119,2.5119,2.5119,2.5119,2.5119,2.5119,2.5119,2.5119,2.5119,2.5119,2.5119,2.5119,2.5119,2.5119,2.5119,2.5119,2.5119,2.5119,2.5119,2.5119,2.5119,2.5119,2.5119,2.5119,2.5119,2.5119,2.5119,2.5119,2.5119,2.5119,2.5119,2.5119,2.5119,2.5119,2.5119,2.5119,2.775,3.3292,3.3418,3.3418,3.3418,3.3418,3.4316,3.6016,3.6016,3.6016,1.8534,1.8339,1.7846,1.5754,1.5433,1.5189,1.3586,1.3916,1.4428,1.4068,1.4706,1.5104,0.0,0.0,0.0,0.0,0.0,0.0,0.0,0.0,1.3462,1.4467,1.5379,1.6082,1.6448,1.5599,1.5805,1.7735,1.7282,1.7812,1.9749,2.0384,2.0735,2.075,2.1057,2.154,2.2169,2.2184,2.2491,2.3091,2.3091,2.3106,2.3106,2.3106,2.3106,2.3106,2.3106,2.3106,2.3106,2.3106,2.3106,2.3106,2.3106,2.3501,2.4086,2.4086,2.4496,2.5119,2.5119,2.5119,2.5119,2.5119,2.5119,2.5119,2.5119,2.5119,2.5119,2.5119,2.5119,2.5119,2.5119,2.5119,2.5119,2.5119,2.5119,2.5119,2.5119,2.5119,2.5119,2.5119,2.5119,2.5119,2.5119,2.5119,2.5119,2.5119,2.5119,2.5119,2.5119,2.5119,2.5119,2.5119,2.5119,2.5119,2.5119,2.5119,2.5119,2.5119,2.5119,2.5119,2.5119,2.5119,2.775,3.3292,3.3418,3.3418,3.3418,3.3418,3.4316,3.6016,3.6016,3.6016,1.9066,1.9275,1.9174,1.7366,1.682,1.63,1.4689,1.4747,1.4892,1.4165,1.4911,1.5467,1.4658,0.0,0.0,0.0,0.0,0.0,0.0,0.0,1.257,0.0,0.0,0.0,1.4834,1.5072,1.5701,1.6784,1.6903,1.7651,1.9397,2.0047,2.0603,2.1028,2.1159,2.1525,2.2169,2.1964,2.2169,2.2784,2.2784,2.2901,2.3106,2.3106,2.3106,2.3106,2.3106,2.3106,2.3106,2.3106,2.3106,2.3106,2.3106,2.3501,2.4086,2.4086,2.4496,2.5119,2.5119,2.5119,2.5119,2.5119,2.5119,2.5119,2.5119,2.5119,2.5119,2.5119,2.5119,2.5119,2.5119,2.5119,2.5119,2.5119,2.5119,2.5119,2.5119,2.5119,2.5119,2.5119,2.5119,2.5119,2.5119,2.5119,2.5119,2.5119,2.5119,2.5119,2.5119,2.5119,2.5119,2.5119,2.5119,2.5119,2.5119,2.5119,2.5119,2.5119,2.5119,2.5516,2.6296,3.0186,3.3225,3.507,3.4004,3.3984,3.5137,3.5137,3.5449,3.6016,3.6016,3.6016,1.9603,1.9828,1.9847,1.8511,1.7999,1.7428,1.5818,1.5877,1.6009,1.5028,1.5524,1.6052,1.5862,0.0,0.0,0.0,0.0,0.0,0.0,1.2025,0.0,0.0,0.0,0.0,0.0,1.4238,1.4896,1.6111,1.6287,1.7106,1.8833,1.9755,2.0373,2.0852,2.1086,2.1525,2.2169,2.1979,2.2184,2.2798,2.2798,2.2901,2.3106,2.3106,2.3106,2.3106,2.3106,2.3106,2.3106,2.3106,2.3106,2.3106,2.3106,2.3501,2.4086,2.4086,2.4496,2.5119,2.5119,2.5119,2.5119,2.5119,2.5119,2.5119,2.5119,2.5119,2.5119,2.5119,2.5119,2.5119,2.5119,2.5119,2.5119,2.5119,2.5119,2.5119,2.5119,2.5119,2.5119,2.5119,2.5119,2.5119,2.5119,2.5119,2.5119,2.5119,2.5119,2.5119,2.5119,2.5119,2.5119,2.5119,2.5119,2.5119,2.5119,2.5119,2.5119,2.5119,2.556,2.612,2.6954,3.073,3.277,3.277,3.1705,3.1687,3.277,3.277,3.39,3.6016,3.6016,3.6016]}]]